[[{"header":{"parameterUnit":"m.s-1","parameterCategory":1,"la1":31.0,"la2":29.5877,"lo1":-88.7671,"lo2":-86.6584,"dy":0.0162,"dx":0.0185,"nx":115,"ny":88,"refTime":"2024-07-12T00:00:00:Z","depth":0,"parameterNumber":2,"parameterNumberName":"U-component_of_WINDS"},"data":[0.0,0.0,0.0,0.0,0.0,0.0,0.0,0.0,0.0,0.0,0.0,0.0,0.0,0.0,0.0,0.0,0.0,0.0,0.0,0.0,0.0,0.0,0.0,0.0,0.0,0.0,0.0,0.0,0.0,0.0,0.0,0.0,0.0,0.0,0.0,0.0,0.0,0.0,0.0,0.0,0.0,0.0,0.0,0.0,0.0,0.0,0.0,0.0,0.0,0.0,0.0,0.0,0.0,0.0,0.0,0.0,0.0,0.0,0.0,0.0,0.0,0.0,0.0,0.0,0.0,0.0,0.0,0.0,0.0,0.0,0.0,0.0,0.0,0.0,0.0,0.0,0.0,0.0,0.0,0.0,0.0,0.0,0.0,0.0,0.0,0.0,0.0,0.0,0.0,0.0,0.0,0.0,0.0,0.0,0.0,0.0,0.0,0.0,0.0,0.0,0.0,0.0,0.0,0.0,0.0,0.0,0.0,0.0,0.0,0.0,0.0,0.0,0.0,0.0,0.0,0.0,0.0,0.0,0.0,0.0,0.0,0.0,0.0,0.0,0.0,0.0,0.0,0.0,0.0,0.0,0.0,0.0,0.0,0.0,0.0,0.0,0.0,0.0,0.0,0.0,0.0,0.0,0.0,0.0,0.0,0.0,0.0,0.0,0.0,0.0,0.0,0.0,0.0,0.0,0.0,0.0,0.0,0.0,0.0,0.0,0.0,0.0,0.0,0.0,0.0,0.0,0.0,0.0,0.0,0.0,0.0,0.0,0.0,0.0,0.0,0.0,0.0,0.0,0.0,0.0,0.0,0.0,0.0,0.0,0.0,0.0,0.0,0.0,0.0,0.0,0.0,0.0,0.0,0.0,0.0,0.0,0.0,0.0,0.0,0.0,0.0,0.0,0.0,0.0,0.0,0.0,0.0,0.0,0.0,0.0,0.0,0.0,0.0,0.0,0.0,0.0,0.0,0.0,0.0,0.0,0.0,0.0,0.0,0.0,0.0,0.0,0.0,0.0,0.0,0.0,0.0,0.0,0.0,0.0,0.0,0.0,0.0,0.0,0.0,0.0,0.0,0.0,0.0,0.0,0.0,0.0,0.0,0.0,0.0,0.0,0.0,0.0,0.0,0.0,0.0,0.0,0.0,0.0,0.0,0.0,0.0,0.0,0.0,0.0,0.0,0.0,0.0,0.0,0.0,0.0,0.0,0.0,0.0,0.0,0.0,0.0,0.0,0.0,0.0,0.0,0.0,0.0,0.0,0.0,0.0,0.0,0.0,0.0,0.0,0.0,0.0,0.0,0.0,0.0,0.0,0.0,0.0,0.0,0.0,0.0,0.0,0.0,0.0,0.0,0.0,0.0,0.0,0.0,0.0,0.0,0.0,0.0,0.0,0.0,0.0,0.0,0.0,0.0,0.0,0.0,0.0,0.0,0.0,0.0,0.0,0.0,0.0,0.0,0.0,0.0,0.0,0.0,0.0,0.0,0.0,0.0,0.0,0.0,0.0,0.0,0.0,0.0,0.0,0.0,0.0,0.0,0.0,0.0,0.0,0.0,0.0,0.0,0.0,0.0,0.0,0.0,0.0,0.0,0.0,0.0,0.0,0.0,0.0,0.0,0.0,0.0,0.0,0.0,0.0,0.0,0.0,0.0,0.0,0.0,0.0,0.0,0.0,0.0,0.0,0.0,0.0,0.0,0.0,0.0,0.0,0.0,0.0,0.0,0.0,0.0,0.0,0.0,0.0,0.0,0.0,0.0,0.0,0.0,0.0,0.0,0.0,0.0,0.0,0.0,0.0,0.0,0.0,0.0,0.0,0.0,0.0,0.0,0.0,0.0,0.0,0.0,0.0,0.0,0.0,0.0,0.0,0.0,0.0,0.0,0.0,0.0,0.0,0.0,0.0,0.0,0.0,0.0,0.0,0.0,0.0,0.0,0.0,0.0,0.0,0.0,0.0,0.0,0.0,0.0,0.0,0.0,0.0,0.0,0.0,0.0,0.0,0.0,0.0,0.0,0.0,0.0,0.0,0.0,0.0,0.0,0.0,0.0,0.0,0.0,0.0,0.0,0.0,0.0,0.0,0.0,0.0,0.0,0.0,0.0,0.0,0.0,0.0,0.0,0.0,0.0,0.0,0.0,0.0,0.0,0.0,0.0,0.0,0.0,0.0,0.0,0.0,0.0,0.0,0.0,0.0,0.0,0.0,0.0,0.0,0.0,0.0,0.0,0.0,0.0,0.0,0.0,0.0,0.0,0.0,0.0,0.0,0.0,0.0,0.0,0.0,0.0,0.0,0.0,0.0,0.0,0.0,0.0,0.0,0.0,0.0,0.0,0.0,0.0,0.0,0.0,0.0,0.0,0.0,0.0,0.0,0.0,0.0,0.0,0.0,0.0,0.0,0.0,0.0,0.0,0.0,0.0,0.0,0.0,0.0,0.0,0.0,0.0,0.0,0.0,0.0,0.0,0.0,0.0,0.0,0.0,0.0,0.0,0.0,0.0,0.0,0.0,0.0,0.0,0.0,0.0,0.0,0.0,0.0,0.0,0.0,0.0,0.0,0.0,0.0,0.0,0.0,0.0,0.0,0.0,0.0,0.0,0.0,0.0,0.0,0.0,0.0,0.0,0.0,0.0,0.0,0.0,0.0,0.0,0.0,0.0,0.0,0.0,0.0,0.0,0.0,0.0,0.0,0.0,0.0,0.0,0.0,0.0,0.0,0.0,0.0,0.0,0.0,0.0,0.0,0.0,0.0,0.0,0.0,0.0,0.0,0.0,0.0,0.0,0.0,0.0,0.0,0.0,0.0,0.0,0.0,0.0,0.0,0.0,0.0,0.0,0.0,0.0,0.0,0.0,0.0,0.0,0.0,0.0,0.0,0.0,0.0,0.0,0.0,0.0,0.0,0.0,0.0,0.0,0.0,0.0,0.0,0.0,0.0,0.0,0.0,0.0,0.0,0.0,0.0,0.0,0.0,0.0,0.0,0.0,0.0,0.0,0.0,0.0,0.0,0.0,0.0,0.0,0.0,0.0,0.0,0.0,0.0,0.0,0.0,0.0,0.0,0.0,0.0,0.0,0.0,0.0,0.0,0.0,0.0,0.0,0.0,0.0,0.0,0.0,0.0,0.0,0.0,0.0,0.0,0.0,0.0,0.0,0.0,0.0,0.0,0.0,0.0,0.0,0.0,0.0,0.0,0.0,0.0,0.0,0.0,0.0,0.0,0.0,0.0,0.0,0.0,0.0,0.0,0.0,0.0,0.0,0.0,0.0,0.0,0.0,0.0,0.0,0.0,0.0,0.0,0.0,0.0,0.0,0.0,0.0,0.0,0.0,0.0,0.0,0.0,0.0,0.0,0.0,0.0,0.0,0.0,0.0,0.0,0.0,0.0,0.0,0.0,0.0,0.0,0.0,0.0,0.0,0.0,0.0,0.0,0.0,0.0,0.0,0.0,0.0,0.0,0.0,0.0,0.0,0.0,0.0,0.0,0.0,0.0,0.0,0.0,0.0,0.0,0.0,0.0,0.0,0.0,0.0,0.0,0.0,0.0,0.0,0.0,0.0,0.0,0.0,0.0,0.0,0.0,0.0,0.0,0.0,0.0,0.0,0.0,0.0,0.0,0.0,0.0,0.0,0.0,0.0,0.0,0.0,0.0,0.0,0.0,0.0,0.0,0.0,0.0,0.0,0.0,0.0,0.0,0.0,0.0,0.0,0.0,0.0,0.0,0.0,0.0,0.0,0.0,0.0,0.0,0.0,0.0,0.0,0.0,0.0,0.0,0.0,0.0,0.0,0.0,0.0,0.0,0.0,0.0,0.0,0.0,0.0,0.0,0.0,0.0,0.0,0.0,0.0,0.0,0.0,0.0,0.0,0.0,0.0,0.0,0.0,0.0,0.0,0.0,0.0,0.0,0.0,0.0,0.0,0.0,0.0,0.0,0.0,0.0,0.0,0.0,0.0,0.0,0.0,0.0,0.0,0.0,0.0,0.0,0.0,0.0,0.0,0.0,0.0,0.0,0.0,0.0,0.0,0.0,0.0,0.0,0.0,0.0,0.0,0.0,0.0,0.0,0.0,0.0,0.0,0.0,0.0,0.0,0.0,0.0,0.0,0.0,0.0,0.0,0.0,0.0,0.0,0.0,0.0,0.0,0.0,0.0,0.0,0.0,0.0,0.0,0.0,0.0,0.0,0.0,0.0,0.0,0.0,0.0,0.0,0.0,0.0,0.0,0.0,0.0,0.0,0.0,0.0,0.0,0.0,0.0,0.0,0.0,0.0,-0.3381,0.0,0.0,0.0,0.0,0.0,0.0,0.0,0.0,0.0,0.0,0.0,0.0,0.0,0.0,0.0,0.0,0.0,0.0,0.0,0.0,0.0,0.0,0.0,0.0,0.0,0.0,0.0,0.0,0.0,0.0,0.0,0.0,0.0,0.0,0.0,0.0,0.0,0.0,0.0,0.0,0.0,0.0,0.0,0.0,0.0,0.0,0.0,0.0,0.0,0.0,0.0,0.0,0.0,0.0,0.0,0.0,0.0,0.0,0.0,0.0,0.0,0.0,0.0,0.0,0.0,0.0,0.0,0.0,0.0,0.0,0.0,0.0,0.0,0.0,0.0,0.0,0.0,0.0,0.0,0.0,0.0,0.0,0.0,0.0,0.0,0.0,0.0,0.0,0.0,0.0,0.0,0.0,0.0,0.0,0.0,0.0,0.0,0.0,0.0,0.0,0.0,0.0,0.0,0.0,0.0,0.0,0.0,0.0,0.0,0.0,-0.3095,-0.3208,-0.326,-0.3254,-0.3147,0.0,0.0,0.0,0.0,0.0,0.0,0.0,0.0,0.0,0.0,0.0,0.0,0.0,0.0,0.0,0.0,0.0,0.0,0.0,0.0,0.0,0.0,0.0,0.0,0.0,0.0,0.0,0.0,0.0,0.0,0.0,0.0,0.0,0.0,0.0,0.0,0.0,0.0,0.0,0.0,0.0,0.0,0.0,0.0,0.0,0.0,0.0,0.0,0.0,0.0,0.0,0.0,0.0,0.0,0.0,0.0,0.0,0.0,0.0,0.0,0.0,0.0,0.0,0.0,0.0,0.0,0.0,0.0,0.0,0.0,0.0,0.0,0.0,0.0,0.0,0.0,0.0,0.0,0.0,0.0,0.0,0.0,0.0,0.0,0.0,0.0,0.0,0.0,0.0,0.0,0.0,0.0,0.0,0.0,0.0,0.0,0.0,0.0,0.0,0.0,0.0,0.0,0.0,0.0,0.0,0.0,0.0,0.0,0.0,0.0,0.0,0.0,-0.3155,-0.31,-0.2951,0.0,0.0,0.0,0.0,0.0,0.0,0.0,0.0,0.0,0.0,0.0,0.0,0.0,0.0,0.0,0.0,0.0,0.0,0.0,0.0,0.0,0.0,0.0,0.0,0.0,0.0,0.0,0.0,0.0,0.0,0.0,0.0,0.0,0.0,0.0,0.0,0.0,0.0,0.0,0.0,0.0,0.0,0.0,0.0,0.0,0.0,0.0,0.0,0.0,0.0,0.0,0.0,0.0,0.0,0.0,0.0,0.0,0.0,0.0,0.0,0.0,0.0,0.0,0.0,0.0,0.0,0.0,0.0,0.0,0.0,0.0,0.0,0.0,0.0,0.0,0.0,0.0,0.0,0.0,0.0,0.0,0.0,0.0,0.0,0.0,0.0,0.0,0.0,0.0,0.0,0.0,0.0,0.0,0.0,0.0,0.0,0.0,0.0,0.0,0.0,0.0,0.0,0.0,0.0,0.0,0.0,0.0,0.0,0.0,0.0,-0.2625,-0.2832,-0.2832,0.0,-0.2812,0.0,0.0,0.0,0.0,0.0,0.0,0.0,0.0,0.0,0.0,0.0,0.0,0.0,0.0,0.0,0.0,0.0,0.0,0.0,0.0,0.0,0.0,0.0,0.0,0.0,0.0,0.0,0.0,0.0,0.0,0.0,0.0,0.0,0.0,0.0,0.0,0.0,0.0,0.0,0.0,0.0,0.0,0.0,0.0,0.0,0.0,0.0,0.0,0.0,0.0,0.0,0.0,0.0,0.0,0.0,0.0,0.0,0.0,0.0,0.0,0.0,0.0,0.0,0.0,0.0,0.0,0.0,0.0,0.0,0.0,0.0,0.0,0.0,0.0,0.0,0.0,0.0,0.0,0.0,0.0,0.0,0.0,0.0,0.0,0.0,0.0,0.0,0.0,0.0,0.0,0.0,0.0,0.0,0.0,0.0,0.0,0.0,0.0,0.0,0.0,0.0,0.0,0.0,0.0,0.0,0.0,0.0,0.0,0.0,0.0,0.0,-0.2375,-0.2503,-0.2547,0.0,0.0,0.0,0.0,0.0,0.0,0.0,0.0,0.0,0.0,0.0,0.0,0.0,0.0,0.0,0.0,0.0,0.0,0.0,0.0,0.0,0.0,0.0,0.0,0.0,0.0,0.0,0.0,0.0,0.0,0.0,0.0,0.0,0.0,0.0,0.0,0.0,0.0,0.0,0.0,0.0,0.0,0.0,0.0,0.0,0.0,0.0,0.0,0.0,0.0,0.0,0.0,0.0,0.0,0.0,0.0,0.0,0.0,0.0,0.0,0.0,0.0,0.0,0.0,0.0,0.0,0.0,0.0,0.0,0.0,0.0,0.0,0.0,0.0,0.0,0.0,0.0,0.0,0.0,0.0,0.0,0.0,0.0,0.0,0.0,0.0,0.0,0.0,0.0,0.0,0.0,0.0,0.0,0.0,0.0,0.0,0.0,0.0,0.0,0.0,0.0,0.0,0.0,0.0,0.0,0.0,0.0,0.0,0.0,0.0,-0.2128,0.0,-0.22,-0.2401,-0.2478,-0.2453,0.0,0.0,0.0,0.0,0.0,0.0,0.0,0.0,0.0,0.0,0.0,0.0,0.0,0.0,0.0,0.0,0.0,0.0,0.0,0.0,0.0,0.0,0.0,0.0,0.0,0.0,0.0,0.0,0.0,0.0,0.0,0.0,0.0,0.0,0.0,0.0,0.0,0.0,0.0,0.0,0.0,0.0,0.0,0.0,0.0,0.0,0.0,0.0,0.0,0.0,0.0,0.0,0.0,0.0,0.0,0.0,0.0,0.0,0.0,0.0,0.0,0.0,0.0,0.0,0.0,0.0,0.0,0.0,0.0,0.0,0.0,0.0,0.0,0.0,0.0,0.0,0.0,0.0,0.0,0.0,0.0,0.0,0.0,0.0,0.0,0.0,0.0,0.0,0.0,0.0,0.0,0.0,0.0,0.0,0.0,0.0,0.0,0.0,0.0,0.0,0.0,0.0,0.0,0.0,0.0,0.0,0.0,0.0,0.0,-0.2208,-0.2208,-0.2465,-0.2683,-0.268,0.0,0.0,0.0,0.0,0.0,0.0,0.0,0.0,0.0,0.0,0.0,0.0,0.0,0.0,0.0,0.0,0.0,0.0,0.0,0.0,0.0,0.0,0.0,0.0,0.0,0.0,0.0,0.0,0.0,0.0,0.0,0.0,0.0,0.0,0.0,0.0,0.0,0.0,0.0,0.0,0.0,0.0,0.0,0.0,0.0,0.0,0.0,0.0,0.0,0.0,0.0,0.0,0.0,0.0,0.0,0.0,0.0,0.0,0.0,0.0,0.0,0.0,0.0,0.0,0.0,0.0,0.0,0.0,0.0,0.0,0.0,0.0,0.0,0.0,0.0,0.0,0.0,0.0,0.0,0.0,0.0,0.0,0.0,0.0,0.0,0.0,0.0,0.0,0.0,0.0,0.0,0.0,0.0,0.0,0.0,0.0,0.0,0.0,0.0,0.0,0.0,0.0,0.0,0.0,0.0,0.0,0.0,0.0,0.0,-0.1799,-0.1793,-0.1998,-0.2412,-0.2296,-0.2314,0.0,0.0,0.0,0.0,0.0,0.0,0.0,0.0,0.0,0.0,0.0,0.0,0.0,0.0,0.0,0.0,0.0,0.0,0.0,0.0,0.0,0.0,0.0,0.0,0.0,0.0,0.0,0.0,0.0,0.0,0.0,0.0,0.0,0.0,0.0,0.0,0.0,0.0,0.0,0.0,0.0,0.0,0.0,0.0,0.0,0.0,0.0,0.0,0.0,0.0,0.0,0.0,0.0,0.0,0.0,0.0,0.0,0.0,0.0,0.0,0.0,0.0,0.0,0.0,0.0,0.0,0.0,0.0,0.0,0.0,0.0,0.0,0.0,0.0,0.0,0.0,0.0,0.0,0.0,0.0,0.0,0.0,0.0,0.0,0.0,0.0,0.0,0.0,0.0,0.0,0.0,0.0,0.0,0.0,0.0,0.0,0.0,0.0,0.0,0.0,0.0,0.0,0.0,0.0,0.0,0.0,0.0,0.0,0.0,-0.1523,0.0,-0.198,0.0,-0.2079,-0.2082,0.0,0.0,0.0,0.0,0.0,0.0,0.0,0.0,0.0,0.0,0.0,0.0,0.0,0.0,0.0,0.0,0.0,0.0,0.0,0.0,0.0,0.0,0.0,0.0,0.0,0.0,0.0,0.0,0.0,0.0,0.0,0.0,0.0,0.0,0.0,0.0,0.0,0.0,0.0,0.0,0.0,0.0,0.0,0.0,0.0,0.0,0.0,0.0,0.0,0.0,0.0,0.0,0.0,0.0,0.0,0.0,0.0,0.0,0.0,0.0,0.0,0.0,0.0,0.0,0.0,0.0,0.0,0.0,0.0,0.0,0.0,0.0,0.0,0.0,0.0,0.0,0.0,0.0,0.0,0.0,0.0,0.0,0.0,0.0,0.0,0.0,0.0,0.0,0.0,0.0,0.0,0.0,0.0,0.0,0.0,0.0,0.0,0.0,0.0,0.0,0.0,0.0,0.0,0.0,0.0,0.0,0.0,0.0,-0.1549,-0.18,-0.2179,-0.2195,-0.1825,-0.2066,-0.2041,0.0,0.0,0.0,0.0,0.0,0.0,0.0,0.0,0.0,0.0,0.0,0.0,0.0,0.0,0.0,0.0,0.0,0.0,0.0,0.0,0.0,0.0,0.0,0.0,0.0,0.0,0.0,0.0,0.0,0.0,0.0,0.0,0.0,0.0,0.0,0.0,0.0,0.0,0.0,0.0,0.0,0.0,0.0,0.0,0.0,0.0,0.0,0.0,0.0,0.0,0.0,0.0,0.0,0.0,0.0,0.0,0.0,0.0,0.0,0.0,0.0,0.0,0.0,0.0,0.0,0.0,0.0,0.0,0.0,0.0,0.0,0.0,0.0,0.0,0.0,0.0,0.0,0.0,0.0,0.0,0.0,0.0,0.0,0.0,0.0,0.0,0.0,0.0,0.0,0.0,0.0,0.0,0.0,0.0,0.0,0.0,0.0,0.0,0.0,0.0,0.0,0.0,0.0,0.0,0.0,0.0,0.0,0.0,0.0,-0.1669,-0.1921,-0.226,-0.2645,-0.2103,-0.2028,0.0,0.0,0.0,0.0,0.0,0.0,0.0,0.0,0.0,0.0,0.0,0.0,0.0,0.0,0.0,0.0,0.0,0.0,0.0,0.0,0.0,0.0,0.0,0.0,0.0,0.0,0.0,0.0,0.0,0.0,0.0,0.0,0.0,0.0,0.0,0.0,0.0,0.0,0.0,0.0,0.0,0.0,0.0,0.0,0.0,0.0,0.0,0.0,0.0,0.0,0.0,0.0,0.0,0.0,0.0,0.0,0.0,0.0,0.0,0.0,0.0,0.0,0.0,0.0,0.0,0.0,0.0,0.0,0.0,0.0,0.0,0.0,0.0,0.0,0.0,0.0,0.0,0.0,0.0,0.0,0.0,0.0,0.0,0.0,0.0,0.0,0.0,0.0,0.0,0.0,0.0,0.0,0.0,0.0,0.0,0.0,0.0,0.0,0.0,0.0,0.0,0.0,0.0,0.0,0.0,0.0,0.0,0.0,0.0,-0.2157,-0.2405,-0.2729,-0.3105,-0.2354,-0.2129,-0.2529,0.0,0.0,0.0,0.0,0.0,0.0,0.0,0.0,0.0,0.0,0.0,0.0,0.0,0.0,0.0,0.0,0.0,0.0,0.0,0.0,0.0,0.0,0.0,0.0,0.0,0.0,0.0,0.0,0.0,0.0,0.0,0.0,0.0,0.0,0.0,0.0,0.0,0.0,0.0,0.0,0.0,0.0,0.0,0.0,0.0,0.0,0.0,0.0,0.0,0.0,0.0,0.0,0.0,0.0,0.0,0.0,0.0,0.0,0.0,0.0,0.0,0.0,0.0,0.0,0.0,0.0,0.0,0.0,0.0,0.0,0.0,0.0,0.0,0.0,0.0,0.0,0.0,0.0,0.0,0.0,0.0,0.0,0.0,0.0,0.0,0.0,0.0,0.0,0.0,0.0,0.0,0.0,0.0,0.0,0.0,0.0,0.0,0.0,0.0,0.0,0.0,0.0,0.0,0.0,0.0,0.0,0.0,0.0,-0.3117,-0.352,-0.3541,-0.3194,-0.2732,-0.2355,0.0,0.0,0.0,0.0,0.0,0.0,0.0,0.0,0.0,0.0,0.0,0.0,0.0,0.0,0.0,0.0,0.0,0.0,0.0,0.0,0.0,0.0,0.0,0.0,0.0,0.0,0.0,0.0,0.0,0.0,0.0,0.0,0.0,0.0,0.0,0.0,0.0,0.0,0.0,0.0,0.0,0.0,0.0,0.0,0.0,0.0,0.0,0.0,0.0,0.0,0.0,0.0,0.0,0.0,0.0,0.0,0.0,0.0,0.0,0.0,0.0,0.0,0.0,0.0,0.0,0.0,0.0,0.0,0.0,0.0,0.0,0.0,0.0,0.0,0.0,0.0,0.0,0.0,0.0,0.0,0.0,0.0,0.0,0.0,0.0,0.0,0.0,0.0,0.0,0.0,0.0,0.0,0.0,0.0,0.0,0.0,0.0,0.0,0.0,0.0,0.0,0.0,0.0,0.0,0.0,0.0,0.0,0.0,0.0,-0.3616,-0.4562,-0.4736,-0.3987,-0.3037,-0.2622,0.0,0.0,0.0,0.0,0.0,0.0,0.0,0.0,0.0,0.0,0.0,0.0,0.0,0.0,0.0,0.0,0.0,0.0,0.0,0.0,0.0,0.0,0.0,0.0,0.0,0.0,0.0,0.0,0.0,0.0,0.0,0.0,0.0,0.0,0.0,0.0,0.0,0.0,0.0,0.0,0.0,0.0,0.0,0.0,0.0,0.0,0.0,0.0,0.0,0.0,0.0,0.0,0.0,0.0,0.0,0.0,0.0,0.0,0.0,0.0,0.0,0.0,0.0,0.0,0.0,0.0,0.0,0.0,0.0,0.0,0.0,0.0,0.0,0.0,0.0,0.0,0.0,0.0,0.0,0.0,0.0,0.0,0.0,0.0,0.0,0.0,0.0,0.0,0.0,0.0,0.0,0.0,0.0,0.0,0.0,0.0,0.0,0.0,0.0,0.0,0.0,0.0,0.0,0.0,0.0,0.0,0.0,0.0,-0.2967,-0.4281,-0.53,-0.5535,-0.4843,-0.3842,-0.3226,0.0,0.0,0.0,0.0,0.0,0.0,0.0,0.0,0.0,0.0,0.0,0.0,0.0,0.0,0.0,0.0,0.0,0.0,0.0,0.0,0.0,0.0,0.0,0.0,0.0,0.0,0.0,0.0,0.0,0.0,0.0,0.0,0.0,0.0,0.0,0.0,0.0,0.0,0.0,0.0,0.0,0.0,0.0,0.0,0.0,0.0,0.0,0.0,0.0,0.0,0.0,0.0,0.0,0.0,0.0,0.0,0.0,0.0,0.0,0.0,0.0,0.0,0.0,0.0,0.0,0.0,0.0,0.0,0.0,0.0,0.0,0.0,0.0,0.0,0.0,0.0,0.0,0.0,0.0,0.0,0.0,0.0,0.0,0.0,0.0,0.0,0.0,0.0,0.0,0.0,0.0,0.0,0.0,0.0,0.0,0.0,0.0,0.0,0.0,0.0,0.0,0.0,0.0,0.0,0.0,0.0,0.0,0.0,-0.3062,-0.4975,-0.5771,-0.6012,-0.5618,-0.4838,-0.396,0.0,0.0,0.0,0.0,0.0,0.0,0.0,0.0,0.0,0.0,0.0,0.0,0.0,0.0,0.0,0.0,0.0,0.0,0.0,0.0,0.0,0.0,0.0,0.0,0.0,0.0,0.0,0.0,0.0,0.0,0.0,0.0,0.0,0.0,0.0,0.0,0.0,0.0,0.0,0.0,0.0,0.0,0.0,0.0,0.0,0.0,0.0,0.0,0.0,0.0,0.0,0.0,0.0,0.0,0.0,0.0,0.0,0.0,0.0,0.0,0.0,0.0,0.0,0.0,0.0,0.0,0.0,0.0,0.0,0.0,0.0,0.0,0.0,0.0,0.0,0.0,0.0,0.0,0.0,0.0,0.0,0.0,0.0,0.0,0.0,0.0,0.0,0.0,0.0,0.0,0.0,0.0,0.0,0.0,0.0,0.0,0.0,0.0,0.0,0.0,0.0,0.0,0.0,0.0,0.0,0.0,0.0,0.0,-0.3608,-0.498,-0.5809,-0.6069,-0.584,-0.4901,-0.4078,0.0,0.0,0.0,0.0,0.0,0.0,0.0,0.0,0.0,0.0,0.0,0.0,0.0,0.0,0.0,0.0,0.0,0.0,0.0,0.0,0.0,0.0,0.0,0.0,0.0,0.0,0.0,0.0,0.0,0.0,0.0,0.0,0.0,0.0,0.0,0.0,0.0,0.0,0.0,0.0,0.0,0.0,0.0,0.0,0.0,0.0,0.0,0.0,0.0393,0.0,0.0,0.0,0.0,0.0,0.0,0.0,0.0,0.0,0.0,0.0,0.0,0.0,0.0,0.0,0.0,0.0,0.0,0.0,0.0,0.0,0.0,0.0,0.0,0.0,0.0,0.0,0.0,0.0,0.0,0.0,0.0,0.0,0.0,0.0,0.0,0.0,0.0,0.0,0.0,0.0,0.0,0.0,0.0,0.0,0.0,0.0,0.0,0.0,0.0,0.0,0.0,0.0,0.0,0.0,0.0,0.0,0.0,0.0,-0.4194,-0.5268,-0.5899,-0.6125,-0.5897,-0.5292,-0.4479,0.0,0.0,0.0,0.0,0.0,0.0,0.0,0.0,0.0,0.0,0.0,0.0,0.0,0.0,0.0,0.0,0.0,0.0,0.0,0.0,0.0,0.0,0.0,0.0,0.0,0.0,0.0,0.0,0.0,0.0,0.0,0.0,0.0,0.0,0.0,0.0,0.0,0.0,0.0,0.0,0.0,0.0,0.0,0.0,0.0,0.0,0.0,0.0,0.0,0.0,0.0,0.0,0.0,0.0,0.0,0.0,0.0,0.0,0.0,0.0,0.0,0.0,0.0,0.0,0.0,0.0,0.0,0.0,0.0,0.0,0.0,0.0,0.0,0.0,0.0,0.0,0.0,0.0,0.0,0.0,0.0,0.0,0.0,0.0,0.0,0.0,0.0,0.0,0.0,0.0,0.0,0.0,0.0,0.0,0.0,0.0,0.0,0.0,0.0,0.0,0.0,0.0,0.0,0.0,0.0,0.0,0.0,-0.3944,-0.4714,-0.559,-0.602,-0.6089,-0.5963,-0.5731,-0.4947,-0.3622,0.0,0.0,0.0,0.0,0.0,0.0,0.0,0.0,0.0,0.0,0.0,0.0,0.0,0.0,0.0,0.0,0.0,0.0,0.0,0.0,0.0,0.0,0.0,0.0,0.0,0.0,0.0,0.0,0.0,0.0,0.0,0.0,0.0,0.0,0.0,0.0,0.0,0.0,0.0145,0.0094,0.0,0.0,0.0,0.0,0.0,0.0,0.0,0.0,0.0432,0.0,0.0,0.0,0.0,0.0,0.0,0.0,0.0,0.0,0.0,0.0,0.0,0.0,0.0,0.0,0.0,0.0,0.0,0.0,0.0,0.0,0.0,0.0,0.0,0.0,0.0,0.0,0.0,0.0,0.0,0.0,0.0,0.0,0.0,0.0,0.0,0.0,0.0,0.0,0.0,0.0,0.0,0.0,0.0,0.0,0.0,0.0,0.0,0.0,0.0,0.0,0.0,0.0,0.0,0.0,0.0,-0.3524,-0.4417,-0.5125,-0.5599,-0.602,-0.6159,-0.6171,-0.5812,-0.5015,-0.3817,0.0,0.0,0.0,0.0,0.0,0.0,0.0,0.0,0.0,0.0,0.0,0.0,0.0,0.0,0.0,0.0,0.0,0.0,0.0,0.0,0.0,0.0,0.0,0.0,0.0,0.0,0.0,0.0,0.0,0.0,0.0,0.0,0.0,0.0,0.0,0.0,0.0,0.0,0.0,0.0052,0.0082,0.0,0.0,0.0,0.0,0.0,0.0,0.0,0.0,0.0745,0.0,0.0,0.0,0.0,0.0,0.0,0.0,0.0,0.0,0.0,0.0,0.0,0.0,0.0,0.0,0.0,0.0,0.0,0.0,0.0,0.0,0.0,0.0,0.0,0.0,0.0,0.0,0.0,0.0,0.0,0.0,0.0,0.0,0.0,0.0,0.0,0.0,0.0,0.0,0.0,0.0,0.0,0.0,0.0,0.0,0.0,0.0,0.0,0.0,0.0,0.0,0.0,0.0,0.0,0.0,-0.3398,-0.4443,-0.5187,-0.5599,-0.5962,-0.6128,-0.5906,-0.5505,-0.4719,0.0,0.0,0.0,0.0,0.0,0.0,0.0,0.0,0.0,0.0,0.0,0.0,0.0,0.0,0.0,0.0,0.0,0.0,0.0,0.0,0.0,0.0,0.0,0.0,0.0,0.0,0.0,0.0,0.0,0.0,0.0,0.0,0.0,0.0,0.0,0.0,0.0,0.0,0.0,0.0,0.0082,0.0141,0.0234,0.0,0.0,0.0,0.0,0.0,0.0,0.0974,0.1051,0.0,0.0,0.0,0.0,0.0,0.0,0.0,0.0,0.0,0.0,0.0,0.0,0.0,0.0,0.0,0.0,0.0,0.0,0.0,0.0,0.0,0.0,0.0,0.0,0.0,0.0,0.0,0.0,0.0,0.0,0.0,0.0,0.0,0.0,0.0,0.0,0.0,0.0,0.0,0.0,0.0,0.0,0.0,0.0,0.0,0.0,0.0,0.0,0.0,0.0,0.0,0.0,0.0,0.0,0.0,-0.315,-0.432,-0.5138,-0.5604,-0.6015,-0.6053,-0.5679,-0.5311,-0.4532,0.0,0.0,0.0,0.0,0.0,0.0,0.0,0.0,0.0,0.0,0.0,0.0,0.0,0.0,0.0,0.0,0.0,0.0,0.0,0.0,0.0,0.0,0.0,0.0,0.0,0.0,0.0,0.0,0.0,0.0,0.0,0.0,0.0,0.0,0.0,0.0,0.0,0.0,0.0,0.0,0.0,0.0211,0.0254,0.0411,0.0,0.0,0.0,0.0,0.095,0.1105,0.0,0.0,0.0,0.0,0.0,0.0,0.0,0.0,0.0,0.0,0.0,0.0,0.0,0.0,0.0,0.0,0.0,0.0,0.0,0.0,0.0,0.0,0.0,0.0,0.0,0.0,0.0,0.0,0.0,0.0,0.0,0.0,0.0,0.0,0.0,0.0,0.0,0.0,0.0,0.0,0.0,0.0,0.0,0.0,0.0,0.0,0.0,0.0,0.0,0.0,0.0,0.0,0.0,0.0,0.0,0.0,-0.2874,-0.3982,-0.4902,-0.555,-0.5967,-0.6119,-0.5883,-0.5651,-0.4874,0.0,0.0,0.0,0.0,0.0,0.0,0.0,0.0,0.0,0.0,0.0,0.0,0.0,0.0,0.0,0.0,0.0,0.0,0.0,0.0,0.0,0.0,0.0,0.0,0.0,0.0,0.0,0.0,0.0,0.0,0.0,0.0,0.0,0.0,0.0,0.0,0.0,0.0,0.0,0.0,0.0,0.032,0.0751,0.0859,0.0947,0.0,0.0,0.0908,0.0817,0.0856,0.0,0.0,0.0,0.0,0.0,0.0,0.0,0.0,0.0,0.0,0.0,0.0,0.0,0.0,0.0,0.0,0.0,0.0,0.0,0.0,0.0,0.0,0.0,0.0,0.0,0.0,0.0,0.0,0.0,0.0,0.0,0.0,0.0,0.0,0.0,0.0,0.0,0.0,0.0,0.0,0.0,0.0,0.0,0.0,0.0,0.0,0.0,0.0,0.0,0.0,0.0,0.0,0.0,0.0,0.0,-0.2641,-0.3055,-0.4295,-0.5153,-0.5604,-0.5967,-0.6072,-0.5746,-0.5306,-0.4528,0.0,0.0,0.0,0.0,0.0,0.0,0.0,0.0,0.0,0.0,0.0,0.0,0.0,0.0,0.0,0.0,0.0,0.0,0.0,0.0,0.0,0.0,0.0,0.0,0.0,0.0,0.0,0.0,0.0,0.0,0.0,0.0,0.0,0.0,0.0,0.0,0.0,0.0,0.0,0.0,0.0,0.0,0.0717,0.1158,0.0,0.0,0.0,0.1339,0.1067,0.0,0.0,0.0,0.0,0.0,0.0,0.0,0.0,0.0,0.0,0.0,0.0,0.0,0.0,0.0,0.0,0.0,0.0,0.0,0.0,0.0,0.0,0.0,0.0,0.0,0.0,0.0,0.0,0.0,0.0,0.0,0.0,0.0,0.0,0.0,0.0,0.0,0.0,0.0,0.0,0.0,0.0,0.0,0.0,0.0,0.0,0.0,0.0,0.0,0.0,0.0,0.0,0.0,0.0,0.0,0.0,0.0,-0.3187,-0.4599,-0.5448,-0.5613,-0.6015,-0.5981,-0.5618,-0.5094,0.0,0.0,0.0,0.0,0.0,0.0,0.0,0.0,0.0,0.0,0.0,0.0,0.0,0.0,0.0,0.0,0.0,0.0,0.0,0.0,0.0,0.0,0.0,0.0,0.0,0.0,0.0,-0.0393,0.0,0.0,0.0,0.0,0.0,0.0,0.0,0.0,0.0,0.0,0.0,0.0,0.0,0.0,0.0666,0.0644,0.1177,0.1432,0.0,0.0,0.1466,0.1203,0.1228,0.1291,0.0,0.0,0.0,0.0,0.0,0.0,0.0,0.0,0.0,0.0,0.0,0.0,0.0,0.0,0.0,0.0,0.0,0.0,0.0,0.0,0.0,0.0,0.0,0.0,0.0,0.0,0.0,0.0,0.0,0.0,0.0,0.0,0.0,0.0,0.0,0.0,0.0,0.0,0.0,0.0,0.0,0.0,0.0,0.0,0.0,0.0,0.0,0.0,0.0,0.0,0.0,0.0,0.0,0.0,0.0,-0.307,-0.4691,-0.559,-0.5623,-0.6015,-0.5981,-0.5623,-0.5372,-0.4721,0.0,0.0,0.0,0.0,0.0,0.0,0.0,0.0,0.0,0.0,0.0,0.0,0.0,0.0,0.0,0.0,0.0,0.0,0.0,0.0,0.0,0.0,0.0,0.0,0.0,0.0,0.0,0.0,0.0,0.0,0.0,0.0,0.0,0.0,0.0,0.0,0.0,0.0,0.0,0.0,0.0,0.0719,0.0709,0.0889,0.1004,0.0,0.0,0.0995,0.1117,0.1138,0.1232,0.1594,0.0,0.0,0.0,0.0,0.0,0.0,0.0,0.0,0.0,0.0,0.0,0.0,0.0,0.0,0.0,0.0,0.0,0.0,0.0,0.0,0.0,0.0,0.0,0.0,0.0,0.0,0.0,0.0,0.0,0.0,0.0,0.0,0.0,0.0,0.0,0.0,0.0,0.0,0.0,0.0,0.0,0.0,0.0,0.0,0.0,0.0,0.0,0.0,0.0,0.0,0.0,0.0,0.0,-0.3175,-0.3154,-0.4753,-0.5609,-0.5623,-0.6015,-0.6034,-0.5618,-0.5401,-0.4772,0.0,0.0,0.0,0.0,0.0,0.0,0.0,0.0,0.0,0.0,0.0,0.0,0.0,0.0,0.0,0.0,0.0,0.0,0.0,0.0,0.0,0.0,0.0,0.0,0.0,0.0,0.0,0.0,-0.0489,-0.0348,-0.0127,0.0,0.0,0.0,0.0,0.0,0.0,0.0,0.0,0.0,0.0,0.0713,0.0744,0.1141,0.0,0.0,0.1139,0.1273,0.0986,0.124,0.154,0.1642,0.2027,0.0,0.0,0.0,0.0,0.0,0.0,0.0,0.0,0.0,0.0,0.0,0.0,0.0,0.0,0.0,0.0,0.0,0.0,0.0,0.0,0.0,0.0,0.0,0.0,0.0,0.0,0.0,0.0,0.0,0.0,0.0,0.0,0.0,0.0,0.0,0.0,0.0,0.0,0.0,0.0,0.0,0.0,0.0,0.0,0.0,0.0,0.0,0.0,0.0,0.0,0.0,0.0,-0.3232,-0.3289,-0.478,-0.5642,-0.5698,-0.6048,-0.5976,-0.5628,-0.5401,-0.4852,0.0,0.0,0.0,0.0,0.0,0.0,0.0,0.0,0.0,0.0,0.0,0.0,0.0,0.0,0.0,0.0,0.0,0.0,0.0,0.0,0.0,0.0,0.0,0.0,0.0,0.0,0.0,0.0,-0.0422,-0.0231,0.0067,0.0,0.0,0.0,0.0,0.0,0.0,0.0,0.0,0.0,0.0,0.0747,0.0835,0.1261,0.1439,0.1041,0.1358,0.1557,0.1215,0.1477,0.1657,0.1644,0.0,0.0,0.0,0.0,0.0,0.0,0.0,0.0,0.0,0.0,0.0,0.0,0.0,0.0,0.0,0.0,0.0,0.0,0.0,0.0,0.0,0.0,0.0,0.0,0.0,0.0,0.0,-0.1968,0.0,0.0,-0.1667,0.0,0.0,0.0,0.0,0.0,0.0,0.0,0.0,0.0,0.0,0.0,0.0,0.0,0.0,0.0,0.0,0.0,0.0,0.0,0.0,0.0,0.0,-0.3293,-0.3508,-0.4892,-0.5703,-0.5897,-0.6065,-0.6034,-0.5623,-0.5405,-0.4895,-0.4023,0.0,0.0,0.0,0.0,0.0,0.0,0.0,0.0,0.0,0.0,0.0,0.0,0.0,0.0,0.0,0.0,0.0,0.0,0.0,0.0,0.0,0.0,0.0,0.0,0.0,0.0,-0.039,-0.0277,-0.0112,0.0,0.0,0.0,0.0,0.0,0.0,0.0,0.0,0.0,0.0,0.0771,0.0834,0.0894,0.1117,0.1293,0.1279,0.1482,0.1772,0.1925,0.1767,0.16,0.0,0.0,0.0,0.0,0.0,0.0,0.0,0.0,0.0,0.0,0.0,0.0,0.0,0.0,0.0,0.0,0.0,0.0,0.0,0.0,0.0,0.0,0.0,0.0,0.0,0.0,0.0,-0.3119,-0.2864,0.0,0.0,0.0,0.0,0.0,0.0,0.0,0.0,0.0,0.0,0.0,-0.3963,-0.4295,0.0,0.0,0.0,0.0,0.0,0.0,0.0,0.0,0.0,0.0,0.0,0.0,-0.3354,-0.3667,-0.4916,-0.5708,-0.5906,-0.6065,-0.6034,-0.5623,-0.5538,-0.5042,-0.4033,0.0,0.0,0.0,0.0,0.0,0.0,0.0,0.0,0.0,0.0,0.0,0.0,0.0,0.0,0.0,0.0,0.0,0.0,0.0,0.0,0.0,0.0,0.0,0.0,0.0,-0.0333,0.0,0.0,0.0,0.0,0.0,0.0,0.0,0.0,0.0,0.0,0.0,0.0409,0.0858,0.0883,0.0882,0.0902,0.0978,0.1052,0.0,0.0,0.0,0.0,0.0,0.0,0.0,0.0,0.0,0.0,0.0,0.0,0.0,0.0,0.2417,0.2236,0.2109,0.2077,0.2188,0.0,0.0,0.0,0.0,0.0,0.0,0.0,0.0,0.0,0.0,0.0,0.0,0.0,0.0,-0.44,0.0,-0.3863,0.0,0.0,0.0,0.0,0.0,0.0,0.0,0.0,-0.4648,-0.4969,-0.4832,-0.51,-0.5029,0.0,-0.4638,-0.4134,0.0,0.0,0.0,0.0,0.0,0.0,0.0,0.0,-0.3606,-0.4052,-0.5134,-0.5812,-0.6015,-0.6103,-0.6009,-0.5722,-0.55,-0.5004,-0.4177,-0.3727,-0.3268,0.0,0.0,0.0,0.0,0.0,0.0,0.0,0.0,0.0,0.0,0.0,0.0,0.0,0.0,0.0,0.0,0.0,0.0,0.0,0.0,0.0,0.0,0.0,-0.036,0.0,0.0,0.0,0.0,0.0,0.0,0.0,0.0,0.0,0.0518,0.0307,0.0272,0.0687,0.0827,0.0909,0.0866,0.0,0.0,0.0,0.0,0.0,0.0,0.0,0.2247,0.2193,0.2354,0.2528,0.2605,0.2639,0.2715,0.2844,0.0,0.0,0.231,0.2202,0.2209,0.2277,0.2386,0.2396,0.2393,0.2481,0.2536,0.0,0.0,0.0,0.0,0.0,0.0,0.0,0.0,-0.5964,-0.5845,0.0,-0.4947,0.0,0.0,0.0,0.0,0.0,-0.435,0.0,0.0,-0.571,-0.6109,-0.5916,-0.5911,-0.5916,-0.592,-0.5855,-0.5487,-0.4714,-0.3966,0.0,0.0,0.0,0.0,0.0,0.0,-0.4052,-0.4683,-0.5492,-0.6015,-0.6218,-0.6173,-0.607,-0.5887,-0.532,-0.481,-0.4394,-0.4031,-0.37,-0.3394,-0.2623,0.0,0.0,0.0,0.0,0.0,0.0,0.0,0.0,0.0,0.0,0.0,0.0,0.0,0.0,0.0,0.0,0.0,0.0,0.0,0.0,-0.0471,0.0,0.0,0.0,0.0,0.0,0.0,0.0,0.0,0.0,0.0,-0.0242,-0.0048,0.0098,0.0211,0.0,0.0,0.0,0.0,0.129,0.129,0.1569,0.1825,0.2036,0.1915,0.1856,0.2046,0.0,0.0,0.2511,0.2627,0.2741,0.2968,0.2765,0.2611,0.2601,0.2432,0.2319,0.2326,0.2326,0.2336,0.2347,0.2409,0.2417,-0.6285,0.0,0.0,0.0,0.0,-0.5823,-0.6455,-0.7332,-0.6965,-0.6799,-0.6789,-0.6226,0.0,0.0,0.0,0.0,0.0,0.0,-0.5232,-0.5348,-0.5775,-0.6048,-0.6084,-0.6084,-0.6138,-0.6138,-0.6089,-0.5915,-0.5543,-0.5314,-0.4451,-0.3026,0.0,0.0,0.0,0.0,-0.46,-0.5069,-0.564,-0.6015,-0.6173,-0.6173,-0.6009,-0.5703,-0.5372,-0.5048,-0.4633,-0.4522,-0.422,-0.3714,-0.3393,0.0,0.0,0.0,0.0,0.0,0.0,0.0,0.0,0.0,0.0,0.0,0.0,0.0,0.0,0.0,0.0,0.0,0.0,0.0,-0.0651,-0.0613,-0.061,0.0,0.0,0.0,0.0,0.0,0.0,0.0,0.0,0.0,-0.0927,-0.0776,-0.0368,0.0,0.0,0.061,0.112,0.1066,0.101,0.101,0.1233,0.0,0.1495,0.1638,0.1787,0.1845,0.1822,0.1896,0.2263,0.2336,0.2449,0.2726,0.2743,0.2652,0.2642,0.2503,0.2403,0.2434,0.2462,0.2549,0.256,0.2597,0.2611,-0.7703,-0.6591,-0.6782,-0.6984,-0.7314,-0.7672,-0.8329,-0.9136,-0.8652,-0.8391,-0.8261,-0.7721,-0.6929,-0.5919,-0.5534,0.0,0.0,0.0,-0.5774,-0.5925,-0.61,-0.6131,-0.6173,-0.6173,-0.6173,-0.6173,-0.6173,-0.6108,-0.6039,-0.6034,-0.5413,-0.42,0.0,0.0,-0.3999,-0.4596,-0.5094,-0.5453,-0.5826,-0.6047,-0.6173,-0.6173,-0.6072,-0.5741,-0.5524,-0.5259,-0.4971,-0.4834,-0.4599,-0.4191,-0.3876,-0.3322,0.0,0.0,0.0,0.0,0.0,0.0,0.0,0.0,0.0,0.0,0.0,-0.1096,0.0,0.0,0.0,0.0,-0.0584,-0.0723,-0.094,-0.0914,0.0,0.0,0.0,0.0,0.0,0.0,0.0,-0.0779,-0.1177,-0.1452,-0.146,-0.1361,-0.0987,-0.0112,0.0112,0.0393,0.0785,0.0,0.0897,0.0897,0.1066,0.1178,0.129,0.1434,0.1644,0.1898,0.1959,0.2071,0.2352,0.241,0.2465,0.2635,0.2691,0.2691,0.2691,0.2599,0.2536,0.2574,0.2597,0.2627,0.2683,0.2691,0.2691,-0.8806,-0.881,-0.8718,-0.8895,-0.9321,-0.9591,-1.0268,-1.1066,-1.048,-1.0144,-0.9818,-0.9092,-0.8381,-0.7595,-0.6624,0.0,-0.6229,-0.6284,-0.6318,-0.6496,-0.6496,-0.6403,-0.6234,-0.6229,-0.6215,-0.6201,-0.6256,-0.6192,-0.6173,-0.6173,-0.5981,-0.5611,-0.5223,-0.5021,-0.4952,-0.5189,-0.5485,-0.593,-0.6133,-0.6173,-0.6173,-0.6173,-0.6124,-0.5887,-0.5703,-0.55,-0.5268,-0.5084,-0.4928,-0.4709,-0.4135,-0.3682,-0.3339,0.0,0.0,0.0,0.0,0.0,0.0,0.0,0.0,0.0,0.0,0.0,0.0,0.0,0.0,0.0,-0.1046,0.0,-0.1384,-0.1214,0.0,0.0,0.0,-0.0775,-0.0774,-0.1107,-0.1257,-0.1079,0.0,0.0,-0.1797,-0.1797,-0.1629,-0.1239,-0.0449,0.0168,0.0224,0.0561,0.0841,0.0897,0.0957,0.1013,0.1292,0.1399,0.1623,0.2071,0.224,0.2352,0.2635,0.2691,0.2691,0.2691,0.2691,0.2691,0.2691,0.2683,0.2691,0.2685,0.2687,0.2689,0.2691,0.2691,0.2691,-0.9912,-0.9962,-1.0674,-1.0025,-0.8474,-0.8288,-0.8835,-0.9768,-0.9318,-0.9266,-0.9489,-0.892,-0.8241,-0.7389,-0.6889,-0.6616,-0.6646,-0.6646,-0.6674,-0.6716,-0.6716,-0.6693,-0.6651,-0.6646,-0.6562,-0.6469,-0.6403,-0.6384,-0.6182,-0.6173,-0.618,-0.6033,-0.5928,-0.5743,-0.5464,-0.5794,-0.5993,-0.6098,-0.6204,-0.6173,-0.6173,-0.6173,-0.6004,-0.5689,-0.5632,-0.5439,-0.5075,-0.5013,-0.4886,-0.4714,-0.4423,-0.4056,-0.3625,-0.319,0.0,0.0,0.0,0.0,0.0,0.0,0.0,0.0,0.0,-0.1572,-0.0734,0.0,-0.1312,0.0,-0.1062,-0.1274,-0.123,-0.1356,0.0,0.0,-0.1369,-0.1378,-0.1515,-0.1569,-0.1629,-0.1624,-0.1719,-0.1797,-0.1797,-0.1797,-0.1755,-0.1679,-0.1196,-0.0449,0.0393,0.0449,0.0505,0.0844,0.1148,0.1328,0.1356,0.1681,0.2021,0.2184,0.2411,0.2635,0.2693,0.2691,0.2691,0.2691,0.2691,0.2691,0.2691,0.2691,0.2693,0.2691,0.2691,0.2691,0.2691,0.2691,0.2691,-1.0151,-1.0337,-1.0594,-0.997,-0.8765,-0.9431,-1.01,-1.0527,-1.0234,-1.0093,-1.0134,-0.9719,-0.9078,-0.8369,-0.7844,-0.7545,-0.7411,-0.7111,-0.6988,-0.6988,-0.6993,-0.6941,-0.6796,-0.6791,-0.673,-0.6618,-0.6618,-0.6568,-0.6374,-0.6365,-0.6262,-0.6178,-0.6173,-0.6114,-0.5906,-0.6065,-0.6173,-0.6173,-0.6173,-0.6173,-0.6173,-0.6173,-0.6076,-0.5755,-0.5656,-0.5457,-0.5131,-0.5032,-0.4886,-0.4714,-0.4514,-0.4215,-0.385,-0.3603,-0.3183,0.0,0.0,0.0,0.0,0.0,0.0,0.0,0.0,0.0,0.0,0.0,-0.1435,-0.0925,-0.1258,-0.1429,-0.1376,-0.1496,-0.159,-0.1635,-0.1646,-0.1687,-0.1786,-0.1767,-0.1759,-0.1793,-0.1819,-0.1839,-0.1849,-0.1865,-0.1886,-0.1917,-0.1657,-0.1112,-0.0059,0.0176,0.0352,0.088,0.1131,0.1317,0.135,0.1697,0.1987,0.2282,0.2517,0.2634,0.2807,0.2865,0.2868,0.2809,0.2807,0.2779,0.2713,0.2762,0.2801,0.2781,0.2791,0.2777,0.2707,0.2691,0.2691,-1.0049,-1.0372,-1.0,-0.9831,-1.0019,-1.166,-1.2196,-1.1809,-1.1615,-1.1269,-1.0746,-1.0477,-1.0,-0.9408,-0.8812,-0.8402,-0.8064,-0.7506,-0.7264,-0.7259,-0.7259,-0.7102,-0.6871,-0.6871,-0.6857,-0.6833,-0.6894,-0.6726,-0.6515,-0.6487,-0.6384,-0.6275,-0.6246,-0.6173,-0.6173,-0.6173,-0.6173,-0.6173,-0.6173,-0.6173,-0.6173,-0.6173,-0.6128,-0.5916,-0.5717,-0.5505,-0.5292,-0.5094,-0.4886,-0.4714,-0.4542,-0.4304,-0.4056,-0.3889,-0.3492,0.0,-0.3164,0.0,0.0,0.0,0.0,0.0,0.0,0.0,0.0,-0.1678,-0.1474,-0.1362,-0.1503,-0.1636,-0.1628,-0.1681,-0.1738,-0.179,-0.1797,-0.1797,-0.1797,-0.1797,-0.18,-0.1808,-0.185,-0.1891,-0.1918,-0.1952,-0.2033,-0.2043,-0.1982,-0.1611,-0.0748,-0.0186,0.0307,0.0864,0.1049,0.1229,0.1603,0.1664,0.1903,0.2398,0.2577,0.2649,0.2944,0.3007,0.3011,0.3009,0.3003,0.2957,0.275,0.2852,0.2988,0.2885,0.297,0.2955,0.2774,0.2725,0.2709,-1.0873,-1.1005,-1.1967,-1.2282,-1.2342,-1.2698,-1.1898,-1.0401,-1.0212,-0.9742,-0.8989,-0.8943,-0.8546,-0.7909,-0.7782,-0.7678,-0.7658,-0.7534,-0.7464,-0.7469,-0.7404,-0.738,-0.7407,-0.7343,-0.7258,-0.7111,-0.7097,-0.6993,-0.673,-0.6615,-0.6454,-0.6412,-0.6257,-0.6173,-0.6173,0.0,0.0,0.0,-0.6173,-0.6173,-0.6173,-0.6173,-0.6075,-0.5911,-0.5717,0.0,-0.5297,-0.5094,-0.4886,-0.4719,-0.4671,0.0,0.0,0.0,0.0,0.0,0.0,0.0,0.0,0.0,0.0,0.0,-0.3381,-0.2844,-0.2128,-0.1601,-0.1374,-0.1461,-0.165,-0.1743,-0.1695,-0.1744,-0.1785,-0.1796,-0.1797,-0.1797,-0.1797,-0.1797,-0.1815,-0.186,-0.1875,-0.1903,-0.1955,-0.1969,-0.2054,-0.2102,-0.2046,-0.1808,-0.1252,-0.07,-0.0062,0.0803,0.1178,0.1558,0.2294,0.2259,0.2355,0.2772,0.2893,0.296,0.2964,0.3024,0.302,0.3024,0.3015,0.3013,0.297,0.2995,0.3022,0.3001,0.3011,0.3005,0.297,0.2848,0.2801,-1.0929,-1.1559,-1.2123,-1.2415,0.0,-1.2735,-1.2136,-1.0975,-1.1166,-1.0969,-1.0501,-1.0501,-1.0023,-0.9182,-0.8854,-0.8472,-0.7972,-0.7652,-0.7526,-0.7526,-0.7526,-0.7526,-0.7526,-0.7526,-0.7469,-0.7374,-0.7369,-0.7206,-0.7007,-0.6894,-0.679,-0.6627,-0.6426,-0.6323,-0.6318,-0.628,-0.6173,-0.6173,-0.6173,-0.6173,-0.6173,-0.6173,-0.6128,-0.592,-0.5812,0.0,0.0,0.0,0.0,0.0,0.0,0.0,0.0,0.0,0.0,-0.47,-0.5061,-0.5367,-0.5547,-0.4861,-0.447,-0.461,-0.4295,-0.3592,-0.2478,-0.1813,-0.1484,-0.1604,-0.1726,-0.1785,-0.1756,-0.1779,-0.1797,-0.1797,-0.1797,-0.1807,-0.1832,-0.1838,-0.1862,-0.1977,-0.1952,-0.1984,-0.2012,-0.2045,-0.2135,-0.2168,-0.2173,-0.1919,-0.1404,-0.0854,-0.0129,0.0837,0.116,0.1554,0.2229,0.2476,0.2636,0.2961,0.3089,0.3087,0.3087,0.3087,0.3087,0.3089,0.3089,0.3077,0.3097,0.3056,0.3075,0.304,0.3058,0.3087,0.3083,0.2983,0.2889,-1.0588,-1.1761,-1.1748,-1.1879,-1.2216,-1.2603,-1.2495,-1.2061,0.0,0.0,0.0,-1.2248,-1.1822,-1.091,-1.0317,-0.9536,-0.8619,-0.8053,-0.771,-0.7579,-0.754,-0.7526,-0.7526,-0.7526,-0.7526,-0.7526,-0.7526,-0.744,-0.7273,-0.724,-0.7073,-0.6838,-0.6653,-0.6454,-0.6469,-0.6257,-0.6173,-0.6173,-0.6173,-0.6173,-0.6173,-0.6173,-0.6147,-0.5968,-0.593,-0.5831,-0.567,-0.5457,-0.5268,-0.5103,-0.4928,-0.4876,-0.4881,-0.4631,-0.469,-0.5087,-0.5505,-0.5702,-0.5714,-0.5668,-0.5555,-0.5419,-0.4997,-0.4216,-0.3004,-0.2121,-0.172,-0.1824,-0.1824,-0.1797,-0.1797,-0.1808,-0.1812,-0.1812,-0.1822,-0.1849,-0.189,-0.1898,-0.1921,-0.1981,-0.2092,-0.2133,-0.2144,-0.2185,-0.2221,-0.222,-0.2216,-0.1951,-0.1344,-0.0737,-0.0,0.0869,0.1067,0.1341,0.2083,0.2412,0.2686,0.3078,0.3218,0.3226,0.3226,0.3226,0.3226,0.3211,0.3226,0.3189,0.3134,0.3164,0.3197,0.3128,0.3173,0.3226,0.3213,0.3107,0.3065,-1.0218,-1.0812,-1.181,-1.2245,-1.2318,-1.3078,-1.2912,-1.2283,-1.2491,-1.1901,-1.0798,-1.141,-1.1253,-1.0604,-1.0473,-0.9973,-0.9167,-0.8894,-0.84,-0.7725,-0.7541,-0.7526,-0.7526,-0.7526,-0.7526,-0.7526,-0.7526,-0.7507,-0.7464,-0.7307,-0.7202,-0.7135,-0.6724,-0.645,-0.6234,-0.6246,-0.6173,-0.6173,-0.6173,-0.6173,-0.6173,-0.6173,-0.6218,-0.6126,-0.6006,-0.5897,-0.5868,-0.567,-0.5552,-0.5524,-0.5495,-0.5476,-0.5476,-0.5092,-0.5074,-0.5513,-0.5903,-0.6096,-0.608,-0.5957,-0.5831,-0.5708,-0.5554,-0.4953,-0.3721,-0.2477,-0.1995,-0.2443,-0.2124,-0.1797,-0.18,-0.1839,-0.1865,-0.1871,-0.1916,-0.2012,-0.2019,-0.1961,-0.1982,-0.2106,-0.2056,-0.2152,-0.2195,-0.2214,-0.2221,-0.2221,-0.2221,-0.2018,-0.1412,-0.047,0.0269,0.0739,0.1008,0.1546,0.2351,0.2552,0.2753,0.3159,0.3226,0.3226,0.3226,0.3226,0.3226,0.3226,0.3226,0.3218,0.3201,0.3215,0.3218,0.3197,0.3218,0.3226,0.3226,0.3191,0.3154,-1.0732,-1.1545,-1.2445,-1.2966,-1.3324,-1.3411,-1.3273,-1.2945,-1.3035,-1.2189,-1.0959,-1.1611,-1.1449,-1.0744,-1.109,-1.0588,-0.9346,-0.9645,-0.9111,-0.7909,-0.8143,-0.8027,-0.7531,-0.7526,-0.7526,-0.7526,-0.7526,-0.7526,-0.7517,-0.7426,-0.7383,-0.7359,-0.6908,-0.6543,-0.6398,-0.6229,-0.6173,-0.6173,-0.6173,-0.6173,-0.6173,-0.6173,-0.6173,-0.6173,-0.6079,-0.6086,-0.6081,-0.5883,-0.5769,-0.5769,-0.567,-0.5609,-0.5609,-0.5499,-0.5503,-0.5618,-0.599,-0.6211,-0.6192,-0.6028,-0.5958,-0.5891,-0.5732,-0.5399,-0.4849,-0.4128,-0.3408,-0.2736,-0.2128,-0.1797,-0.1798,-0.1847,-0.188,-0.188,-0.1936,-0.1985,-0.2078,-0.2085,-0.2045,-0.2165,-0.2178,-0.2189,-0.2218,-0.2221,-0.2221,-0.2221,-0.2221,-0.2085,-0.1816,-0.1076,-0.0202,0.0672,0.1411,0.2014,0.2619,0.2822,0.2956,0.3159,0.3226,0.3226,0.3226,0.3226,0.3226,0.3226,0.3226,0.3226,0.3226,0.3226,0.3226,0.3226,0.3226,0.3226,0.3226,0.3226,0.3211,-1.095,-1.1983,-1.2666,-1.3339,-1.392,-1.3637,-1.3419,-1.32,-1.3193,-1.2452,-1.1335,-1.1929,-1.1799,-1.1021,-1.152,-1.0969,-0.9663,-1.0014,-0.9458,-0.8132,-0.8543,-0.8394,-0.7612,-0.7593,-0.7574,-0.7531,-0.7526,-0.7526,-0.7526,-0.7526,-0.7497,-0.7426,-0.7026,-0.6684,-0.653,-0.6332,-0.6173,-0.6173,-0.6173,-0.6173,-0.6173,-0.6173,-0.6173,-0.6173,-0.6173,-0.6173,-0.6223,-0.6072,-0.5982,-0.5977,-0.5831,-0.575,-0.5755,-0.5841,-0.5816,-0.5777,-0.6026,-0.6173,-0.6173,-0.6059,-0.6005,-0.5946,-0.5732,-0.5567,-0.5513,-0.5407,-0.4739,-0.3292,-0.2354,-0.1857,-0.1994,-0.1986,-0.1906,-0.1921,-0.1977,-0.2098,-0.214,-0.2148,-0.2166,-0.2213,-0.2221,-0.222,-0.2221,-0.2221,-0.2221,-0.2221,-0.2221,-0.2221,-0.2153,-0.1748,-0.0941,0.0269,0.1611,0.2417,0.2619,0.2956,0.3159,0.3226,0.3226,0.3226,0.3226,0.3226,0.3226,0.3226,0.3226,0.3226,0.3226,0.3226,0.3226,0.3226,0.3226,0.3226,0.3226,0.3226,0.3226,-1.0293,-1.0812,-1.2003,-1.2826,-1.3564,-1.3492,-1.3119,-1.2526,-1.2452,-1.1929,-1.126,-1.1929,-1.1842,-1.1149,-1.1137,-1.0668,-0.9814,-0.9767,-0.9212,-0.8379,-0.8212,-0.8012,-0.7754,-0.7744,-0.7717,-0.7545,-0.7526,-0.7526,-0.7526,-0.7526,-0.7436,-0.7245,-0.696,-0.6693,-0.6482,-0.6341,-0.6178,-0.6173,-0.6173,-0.6173,-0.6173,-0.6173,-0.6173,-0.6173,-0.6173,-0.6173,-0.6173,-0.6213,-0.6199,-0.6145,-0.6122,-0.6112,-0.6112,-0.6131,-0.6145,-0.614,-0.6164,-0.6173,-0.6173,-0.6059,-0.595,-0.5845,-0.5677,-0.5513,-0.5352,-0.5301,-0.5077,-0.4249,-0.2802,-0.2279,-0.2566,-0.2287,-0.2044,-0.2091,-0.2152,-0.2207,-0.2206,-0.2213,-0.2216,-0.2218,-0.2221,-0.2221,-0.2221,-0.2221,-0.2221,-0.2221,-0.2221,-0.2221,-0.2221,-0.2153,-0.1748,-0.0604,0.1073,0.2214,0.2348,0.2753,0.3092,0.3159,0.3226,0.3226,0.3226,0.3226,0.3226,0.3226,0.3226,0.3226,0.3226,0.3226,0.3226,0.3226,0.3226,0.3226,0.3226,0.3226,0.3226,-1.1196,-1.2067,-1.2748,-1.32,-1.3492,-1.3492,-1.3346,-1.3046,-1.3046,-1.2298,-1.1186,-1.1484,-1.1409,-1.1111,-1.1117,-1.0663,-0.9906,-1.033,-0.9764,-0.8548,-0.8804,-0.8584,-0.7869,-0.7845,-0.7664,-0.754,-0.7526,-0.7526,-0.7526,-0.7526,-0.7483,-0.7388,-0.7135,-0.6988,-0.6884,-0.6573,-0.6351,-0.6351,-0.6234,-0.6173,-0.6173,-0.6173,-0.6173,-0.6173,-0.6173,-0.6173,-0.6173,-0.6173,-0.6173,-0.6173,-0.6173,-0.6173,-0.6173,-0.6173,-0.6173,-0.6173,-0.6173,-0.6173,-0.6059,-0.6059,-0.595,-0.5791,-0.5677,-0.5567,-0.5513,-0.5352,-0.5223,-0.5099,-0.4558,-0.3901,-0.3012,-0.2703,-0.2481,-0.2196,-0.2183,-0.2221,-0.2221,-0.2221,-0.2221,-0.2221,-0.2221,-0.2221,-0.2221,-0.2221,-0.2221,-0.2221,-0.2221,-0.2221,-0.2221,-0.2221,-0.2018,-0.1479,-0.0269,0.0939,0.1744,0.2214,0.2619,0.3025,0.3226,0.3226,0.3159,0.3226,0.3226,0.3226,0.3226,0.3226,0.3226,0.3226,0.3226,0.3159,0.3159,0.3226,0.3226,0.3226,0.3226,-1.2227,-1.2975,-1.3329,-1.3492,-1.3492,-1.3492,-1.3492,-1.3492,-1.3492,-1.2826,-1.1787,-1.1335,-1.1117,-1.1037,-1.0657,-1.0132,-0.969,-1.0212,-0.975,-0.8639,-0.9143,-0.8867,-0.8036,-0.7886,-0.7754,-0.7565,-0.755,-0.7526,-0.7526,-0.7526,-0.7526,-0.7493,-0.7316,-0.7216,-0.7183,-0.6795,-0.6529,-0.6459,-0.6323,-0.6179,-0.6187,-0.6173,-0.6173,-0.6173,-0.6173,-0.6173,-0.6173,-0.6173,-0.6173,-0.6173,-0.6173,-0.6173,-0.6173,-0.6173,-0.6173,-0.6173,-0.6173,-0.6173,-0.6,-0.6,-0.5946,-0.5736,-0.5677,-0.5567,-0.5513,-0.5407,-0.5378,-0.5542,-0.5864,-0.5214,-0.3829,-0.3446,-0.3155,-0.2734,-0.2594,-0.2487,-0.2487,-0.2354,-0.2221,-0.2221,-0.2221,-0.2221,-0.2221,-0.2221,-0.2221,-0.2221,-0.2221,-0.2221,-0.2221,-0.2221,-0.2153,-0.2018,-0.1479,-0.047,0.1074,0.1475,0.1878,0.2485,0.2688,0.2753,0.2956,0.3025,0.3226,0.3226,0.3226,0.3025,0.2822,0.2889,0.2755,0.2688,0.2755,0.2889,0.2822,0.3023,0.3159,-1.3071,-1.2954,-1.3329,-1.3514,-1.3492,-1.3492,-1.3492,-1.3492,-1.3492,-1.3426,-1.2966,-1.1706,-1.1111,-1.0887,-0.9528,-0.8856,-0.878,-0.8932,-0.8846,-0.867,-0.8751,-0.8646,-0.8368,-0.8165,-0.7952,-0.773,-0.7541,-0.7526,-0.7526,-0.7526,-0.7526,-0.7512,-0.7331,-0.7231,-0.7212,-0.6955,-0.6679,-0.6534,-0.634,-0.6187,-0.6206,-0.6182,-0.6173,-0.6173,-0.6173,-0.6173,-0.6173,-0.6173,-0.6173,-0.6173,-0.6173,-0.6173,-0.6173,-0.6173,-0.6173,-0.6173,-0.6173,-0.6119,-0.6005,-0.6,-0.5891,-0.5677,-0.5618,-0.5513,-0.5407,-0.5301,-0.5382,-0.5604,-0.6075,-0.5891,-0.5058,-0.4423,-0.4164,-0.4053,-0.3544,-0.3218,-0.3151,-0.2619,-0.222,-0.2221,-0.2221,-0.2221,-0.2221,-0.2221,-0.2221,-0.2221,-0.2221,-0.2221,-0.2221,-0.2221,-0.2154,-0.2154,-0.2018,-0.1547,-0.0,0.047,0.0872,0.1477,0.1879,0.2013,0.235,0.2686,0.2889,0.3092,0.2891,0.2688,0.2417,0.2147,0.1947,0.188,0.2014,0.2149,0.2216,0.2822,0.2956,-1.3526,-1.3874,-1.3863,-1.3806,-1.3784,-1.3587,-1.3492,-1.3492,-1.3492,-1.29,-1.2003,-1.1335,-1.0513,-0.9533,-0.9003,-0.8703,-0.8703,-0.8703,-0.8703,-0.8703,-0.8703,-0.8595,-0.8396,-0.8179,-0.7976,-0.7773,-0.7626,-0.7526,-0.7526,-0.7526,-0.7526,-0.7582,-0.7901,-0.7861,-0.7506,-0.7581,-0.7492,-0.6968,-0.6618,-0.6374,-0.6356,-0.6243,-0.6173,-0.6173,-0.6173,-0.6173,-0.6173,-0.6173,-0.6173,-0.6173,-0.6173,-0.6173,-0.6173,-0.6173,-0.6173,-0.6173,-0.6173,-0.6119,-0.59,-0.595,-0.5891,-0.5618,-0.5563,-0.5572,-0.5513,-0.5415,-0.5418,-0.5787,-0.616,-0.6167,-0.5952,-0.5336,-0.476,-0.4339,-0.4084,-0.3751,-0.3284,-0.295,-0.2686,-0.2354,-0.2221,-0.2221,-0.2221,-0.2221,-0.2221,-0.2221,-0.2221,-0.2221,-0.2221,-0.2221,-0.2221,-0.2221,-0.2154,-0.1883,-0.0941,-0.047,-0.0067,0.0536,0.1005,0.1073,0.1342,0.1477,0.1679,0.1949,0.2016,0.1949,0.1477,0.1343,0.1142,0.1142,0.1343,0.141,0.1478,0.1947,0.2217,-1.4129,-1.4553,-1.4157,-1.3989,-1.3938,-1.3631,-1.3492,-1.3492,-1.3492,-1.29,-1.1935,-1.1632,-1.0732,-0.9604,-0.9236,-0.8927,-0.8703,-0.8703,-0.8703,-0.8703,-0.8703,-0.8628,-0.8486,-0.8288,-0.8113,-0.7952,-0.7755,-0.7626,-0.7617,-0.7555,-0.7526,-0.7521,-0.8166,-0.8166,-0.7692,-0.8016,-0.7918,-0.7298,-0.687,-0.6681,-0.6482,-0.6342,-0.6239,-0.6187,-0.6173,-0.6173,-0.6173,-0.6173,-0.6173,-0.6173,-0.6173,-0.6173,-0.6173,-0.6173,-0.6173,-0.6173,-0.6173,-0.6014,-0.585,-0.5841,-0.5786,-0.5513,-0.5513,-0.5529,-0.5588,-0.551,-0.5632,-0.5941,-0.6229,-0.642,-0.635,-0.6013,-0.5484,-0.5017,-0.4818,-0.435,-0.3682,-0.3349,-0.2885,-0.2354,-0.2221,-0.2221,-0.2221,-0.2221,-0.2221,-0.2221,-0.2221,-0.2221,-0.2221,-0.2221,-0.2221,-0.2221,-0.2221,-0.2018,-0.1614,-0.1344,-0.094,-0.0335,0.0067,0.0201,0.0336,0.0403,0.0605,0.0806,0.0873,0.0806,0.0672,0.0538,0.047,0.047,0.0605,0.0739,0.0873,0.1008,0.1344,-1.4867,-1.486,-1.4267,-1.4055,-1.4026,-1.3697,-1.3506,-1.3536,-1.3499,-1.3346,-1.2973,-1.2526,-1.1552,-1.0887,-0.9916,-0.9387,-0.878,-0.8703,-0.8703,-0.8703,-0.8703,-0.8699,-0.8666,-0.8463,-0.8349,-0.8288,-0.7952,-0.7768,-0.774,-0.7626,-0.7521,-0.7652,-0.8296,-0.8361,-0.7591,-0.8329,-0.8175,-0.752,-0.7245,-0.6997,-0.6596,-0.6492,-0.6393,-0.622,-0.6201,-0.6196,-0.6178,-0.6173,-0.6173,-0.6173,-0.6173,-0.6173,-0.6173,-0.6173,-0.6173,-0.6173,-0.6059,-0.5955,-0.5845,-0.5732,-0.5622,-0.5411,-0.5309,-0.5441,-0.5555,-0.5657,-0.5819,-0.6141,-0.629,-0.642,-0.642,-0.6354,-0.6284,-0.6288,-0.5749,-0.5084,-0.435,-0.3618,-0.2952,-0.2354,-0.2221,-0.2221,-0.2221,-0.2221,-0.2221,-0.2221,-0.2221,-0.2221,-0.2221,-0.2221,-0.2221,-0.2221,-0.2221,-0.2085,-0.2153,-0.2153,-0.1681,-0.1277,-0.1008,-0.0739,-0.0537,-0.0403,-0.0202,-0.0,-0.0,-0.0067,-0.0067,-0.0202,-0.047,-0.047,-0.0269,-0.0,0.0067,0.0269,0.0672,-1.4684,-1.5151,-1.4823,-1.464,-1.4567,-1.4062,-1.3836,-1.3799,-1.3601,-1.3193,-1.2599,-1.1855,-1.1037,-1.0212,-0.9458,-0.8927,-0.8699,-0.8703,-0.8703,-0.8703,-0.8703,-0.8703,-0.8666,-0.85,-0.8321,-0.816,-0.7914,-0.7782,-0.7749,-0.7565,-0.7717,-0.8231,-0.8807,-0.9069,-0.8877,-0.9518,-0.9336,-0.8249,-0.7975,-0.7578,-0.7011,-0.6823,-0.6595,-0.6464,-0.6384,-0.6323,-0.6242,-0.6173,-0.6173,-0.6173,-0.6173,-0.6173,-0.6173,-0.6173,-0.6173,-0.6173,-0.6173,-0.6059,-0.595,-0.5891,-0.5732,-0.5589,-0.557,-0.5604,-0.5628,-0.5815,-0.6047,-0.6211,-0.631,-0.642,-0.642,-0.642,-0.642,-0.642,-0.6218,-0.5749,-0.5014,-0.3949,-0.2952,-0.2354,-0.2221,-0.2221,-0.2221,-0.2221,-0.2221,-0.2221,-0.2221,-0.2221,-0.2221,-0.2221,-0.2221,-0.2221,-0.2221,-0.2221,-0.2221,-0.2221,-0.2018,-0.1748,-0.1614,-0.1412,-0.1277,-0.1143,-0.0941,-0.0806,-0.0806,-0.0739,-0.0806,-0.0873,-0.1076,-0.1076,-0.0739,-0.0672,-0.0739,-0.0403,-0.0,-1.4398,-1.4796,-1.4166,-1.4047,-1.4135,-1.3719,-1.3601,-1.3784,-1.3587,-1.3053,-1.2298,-1.1781,-1.0887,-0.9992,-0.9387,-0.9003,-0.8703,-0.8703,-0.8703,-0.8703,-0.8703,-0.8703,-0.8689,-0.8581,-0.8453,-0.8297,-0.8108,-0.7966,-0.7881,-0.775,-0.7931,-0.8506,-0.9134,-0.9454,-0.9582,-1.0091,-0.9901,-0.8977,-0.8725,-0.8294,-0.7705,-0.7394,-0.7066,-0.6577,-0.6525,-0.6426,-0.6196,-0.6173,-0.6173,-0.6173,-0.6173,-0.6173,-0.6173,-0.6173,-0.6173,-0.6173,-0.6173,-0.6114,-0.6059,-0.595,-0.5841,-0.5648,-0.5677,-0.576,-0.576,-0.5917,-0.6042,-0.6237,-0.6351,-0.642,-0.642,-0.642,-0.642,-0.642,-0.642,-0.6083,-0.5345,-0.4082,-0.3218,-0.2753,-0.2421,-0.2221,-0.2221,-0.2221,-0.2221,-0.2221,-0.2221,-0.2221,-0.2221,-0.2221,-0.2221,-0.2221,-0.2221,-0.2221,-0.2221,-0.2221,-0.2221,-0.2153,-0.2085,-0.1951,-0.1816,-0.1816,-0.1681,-0.1412,-0.1344,-0.1143,-0.1143,-0.1076,-0.121,-0.1143,-0.1143,-0.1008,-0.0941,-0.0941,-0.0672,-1.3971,-1.3847,-1.2825,-1.2826,-1.3206,-1.295,-1.3058,-1.3433,-1.3499,-1.3046,-1.2378,-1.2077,-1.1409,-1.0293,-0.9916,-0.9463,-0.8932,-0.8856,-0.878,-0.8703,-0.8703,-0.8703,-0.8694,-0.8675,-0.8633,-0.8576,-0.8411,-0.8226,-0.799,-0.7928,-0.8056,-0.8635,-0.932,-0.9646,-0.9901,-1.0295,-1.0295,-0.964,-0.9564,-0.9127,-0.8318,-0.8178,-0.7704,-0.6707,-0.6568,-0.6412,-0.6211,-0.6173,-0.6173,-0.6173,-0.6173,-0.6173,-0.6173,-0.6173,-0.6173,-0.6173,-0.6059,-0.6114,-0.6119,-0.6014,-0.5791,-0.5681,-0.5708,-0.568,-0.5875,-0.5957,-0.6111,-0.6355,-0.6412,-0.642,-0.642,-0.642,-0.642,-0.642,-0.642,-0.6083,-0.5415,-0.4146,-0.3418,-0.3222,-0.2757,-0.2221,-0.2221,-0.2221,-0.2221,-0.2221,-0.2221,-0.2221,-0.2221,-0.2221,-0.2221,-0.2221,-0.2221,-0.2221,-0.2221,-0.2221,-0.2221,-0.2221,-0.2221,-0.2154,-0.2153,-0.2153,-0.2085,-0.1884,-0.1748,-0.1547,-0.1412,-0.1344,-0.1277,-0.121,-0.1143,-0.1143,-0.1076,-0.1076,-0.1076,-1.2425,-1.3074,-1.315,-1.3323,-1.3501,-1.3593,-1.3313,-1.3058,-1.3366,-1.2973,-1.2305,-1.1632,-1.1558,-1.149,-1.0368,-0.9765,-0.9614,-0.9539,-0.9236,-0.878,-0.8703,-0.8703,-0.8703,-0.8699,-0.8628,-0.8486,-0.8379,-0.8061,-0.7926,-0.8143,-0.8571,-0.9268,-0.9773,-1.0478,-1.0989,-1.1178,-1.0926,-1.0351,-1.0225,-0.9875,-0.9174,-0.8642,-0.8161,-0.757,-0.6993,-0.6577,-0.622,-0.6173,-0.6173,-0.6173,-0.6173,-0.6173,-0.6173,-0.6173,-0.6173,-0.6173,-0.6173,-0.6173,-0.6173,-0.6119,-0.5955,-0.5821,-0.5905,-0.6015,-0.5936,-0.6132,-0.6298,-0.642,-0.642,-0.642,-0.642,-0.642,-0.642,-0.642,-0.642,-0.6148,-0.5481,-0.4616,-0.3687,-0.2757,-0.2423,-0.2221,-0.2221,-0.2221,-0.2221,-0.2221,-0.2221,-0.2221,-0.2221,-0.2221,-0.2221,-0.2221,-0.2221,-0.2221,-0.2221,-0.2221,-0.2221,-0.2221,-0.2221,-0.2221,-0.2154,-0.2154,-0.2085,-0.1884,-0.1884,-0.1748,-0.1614,-0.1547,-0.1412,-0.1277,-0.121,-0.121,-0.1143,-0.1076,-0.1076,-1.166,-1.2066,-1.1986,-1.2058,-1.2314,-1.2376,-1.2437,-1.262,-1.2836,-1.2746,-1.2231,-1.1855,-1.1706,-1.1626,-1.0443,-0.9922,-0.9841,-0.9539,-0.9311,-0.9387,-0.9609,-0.9382,-0.9003,-0.8927,-0.9015,-0.8594,-0.8665,-0.8604,-0.8393,-0.8292,-0.8663,-0.9408,-0.9907,-1.0478,-1.0989,-1.1498,-1.1428,-1.1052,-1.0926,-1.0604,-0.9907,-0.9262,-0.8538,-0.7941,-0.719,-0.6599,-0.6239,-0.6173,-0.6173,-0.6173,-0.6173,-0.6173,-0.6173,-0.6173,-0.6173,-0.6173,-0.6173,-0.6173,-0.6173,-0.6173,-0.6009,-0.5839,-0.6032,-0.6028,-0.5973,-0.6152,-0.6314,-0.6408,-0.6416,-0.642,-0.642,-0.642,-0.642,-0.642,-0.642,-0.6214,-0.5815,-0.4882,-0.4023,-0.3224,-0.2622,-0.2221,-0.2221,-0.2221,-0.2221,-0.2221,-0.2221,-0.2221,-0.2221,-0.2221,-0.2221,-0.2221,-0.2221,-0.2221,-0.2221,-0.2221,-0.2221,-0.2221,-0.2221,-0.2221,-0.2221,-0.2221,-0.2153,-0.2018,-0.2018,-0.1951,-0.1816,-0.1681,-0.1614,-0.1479,-0.1412,-0.1277,-0.121,-0.1143,-0.1143,-1.1117,-1.101,-1.0095,-1.0038,-1.0627,-1.0399,-1.1246,-1.2197,-1.2385,-1.2378,-1.2305,-1.2305,-1.2003,-1.1335,-1.0887,-1.0223,-1.0218,-0.983,-0.9765,-1.0067,-1.0363,-1.0132,-0.9382,-0.976,-0.9637,-0.925,-0.9469,-0.9428,-0.9082,-0.8409,-0.8628,-0.9502,-0.9709,-1.0028,-1.08,-1.131,-1.156,-1.156,-1.1498,-1.1178,-1.0604,-0.9952,-0.9152,-0.8231,-0.7146,-0.6639,-0.6309,-0.6196,-0.6173,-0.6173,-0.6173,-0.6173,-0.6173,-0.6173,-0.6173,-0.6173,-0.6173,-0.6173,-0.6173,-0.6059,-0.595,-0.583,-0.5827,-0.5822,-0.5957,-0.6099,-0.629,-0.6408,-0.642,-0.642,-0.642,-0.642,-0.642,-0.642,-0.642,-0.642,-0.6152,-0.5216,-0.4353,-0.422,-0.3021,-0.242,-0.2221,-0.2221,-0.2221,-0.2221,-0.2221,-0.2221,-0.2221,-0.2221,-0.2221,-0.2221,-0.2221,-0.2221,-0.2221,-0.2221,-0.2221,-0.2221,-0.2221,-0.2221,-0.2221,-0.2221,-0.2221,-0.2154,-0.2153,-0.2085,-0.1951,-0.1884,-0.1816,-0.1681,-0.1614,-0.1479,-0.1344,-0.1344,-0.1277,-0.9965,-1.001,-1.0029,-1.0537,-1.1074,-1.1,-1.139,-1.2231,-1.2305,-1.2231,-1.2305,-1.2305,-1.2599,-1.29,-1.2003,-1.1781,-1.1632,-1.1403,-1.1403,-1.0732,-1.0293,-1.0438,-1.0438,-1.0812,-1.0621,-1.0289,-1.0166,-1.0053,-0.9744,-0.9383,-0.952,-1.0117,-1.0225,-1.0604,-1.1247,-1.1435,-1.1622,-1.1622,-1.1622,-1.1498,-1.124,-1.0534,-0.9675,-0.8702,-0.7372,-0.6582,-0.6407,-0.6257,-0.6178,-0.6173,-0.6173,-0.6173,-0.6173,-0.6173,-0.6173,-0.6173,-0.6173,-0.6119,-0.6,-0.6,-0.59,-0.5724,-0.5863,-0.6023,-0.5896,-0.618,-0.6351,-0.642,-0.642,-0.642,-0.642,-0.642,-0.642,-0.642,-0.642,-0.642,-0.6284,-0.5679,-0.4815,-0.402,-0.3353,-0.2818,-0.2288,-0.2221,-0.2221,-0.2221,-0.2221,-0.2221,-0.2221,-0.2221,-0.2221,-0.2221,-0.2221,-0.2221,-0.2221,-0.2221,-0.2221,-0.2221,-0.2221,-0.2221,-0.2221,-0.2221,-0.2221,-0.2221,-0.2221,-0.2153,-0.2085,-0.2085,-0.2018,-0.1884,-0.1816,-0.1681,-0.1547,-0.1479,-0.1412,-0.9497,-0.9464,-0.9622,-0.9875,-1.0223,-1.0084,-1.0657,-1.1558,-1.1713,-1.2157,-1.2746,-1.29,-1.3119,-1.3426,-1.2673,-1.2305,-1.2305,-1.2305,-1.1855,-1.1335,-1.1335,-1.1632,-1.1706,-1.1903,-1.1846,-1.0988,-1.0855,-1.0714,-1.0309,-0.9857,-0.9792,-1.0421,-1.0485,-1.0604,-1.1122,-1.1435,-1.156,-1.1622,-1.1622,-1.1622,-1.1498,-1.0534,-0.9391,-0.8382,-0.7205,-0.6585,-0.6463,-0.6384,-0.6327,-0.6201,-0.6178,-0.6178,-0.6173,-0.6173,-0.6173,-0.6173,-0.6173,-0.6114,-0.6,-0.59,-0.583,-0.5694,-0.5906,-0.6013,-0.6092,-0.627,-0.6396,-0.642,-0.642,-0.642,-0.642,-0.642,-0.642,-0.642,-0.642,-0.642,-0.6284,-0.5815,-0.5415,-0.4683,-0.3949,-0.3351,-0.2887,-0.2555,-0.2221,-0.2221,-0.2221,-0.2221,-0.2221,-0.2221,-0.2221,-0.2221,-0.2221,-0.2221,-0.2221,-0.2221,-0.2221,-0.2221,-0.2221,-0.2221,-0.2221,-0.2221,-0.2221,-0.2221,-0.2221,-0.2221,-0.2153,-0.2221,-0.2221,-0.2085,-0.1951,-0.1883,-0.1748,-0.1681,-0.1547,-0.9275,-0.9261,-0.9058,-0.9051,-0.9106,-0.8933,-0.9755,-1.1186,-1.1111,-1.2009,-1.3266,-1.3492,-1.3411,-1.3339,-1.29,-1.2526,-1.2452,-1.2305,-1.1929,-1.1929,-1.2452,-1.2599,-1.2586,-1.2802,-1.2469,-1.1068,-1.1391,-1.1391,-1.0903,-1.018,-1.0168,-1.0548,-1.0548,-1.0674,-1.087,-1.1247,-1.1622,-1.1622,-1.1622,-1.1622,-1.1498,-1.0534,-0.9391,-0.8101,-0.7384,-0.6957,-0.6768,-0.6615,-0.6497,-0.6298,-0.6225,-0.6206,-0.6178,-0.6173,-0.6173,-0.6173,-0.6173,-0.6064,-0.5891,-0.58,-0.5814,-0.5776,-0.5842,-0.6022,-0.6191,-0.629,-0.6396,-0.642,-0.642,-0.642,-0.642,-0.642,-0.642,-0.642,-0.642,-0.642,-0.6288,-0.5885,-0.5815,-0.5683,-0.4746,-0.3949,-0.3353,-0.2889,-0.2488,-0.2221,-0.2221,-0.2221,-0.2221,-0.2221,-0.2221,-0.2221,-0.2221,-0.2221,-0.2221,-0.2221,-0.2221,-0.2221,-0.2221,-0.2221,-0.2221,-0.2221,-0.2221,-0.2221,-0.2221,-0.2221,-0.2221,-0.2221,-0.2221,-0.2154,-0.2153,-0.2018,-0.1884,-0.1816,-0.1748,-0.9072,-0.9053,-0.8845,-0.9143,-0.959,-0.9022,-0.9981,-1.1774,-1.1335,-1.2003,-1.3346,-1.3492,-1.3492,-1.3419,-1.3419,-1.3273,-1.3046,-1.2753,-1.2599,-1.2746,-1.29,-1.2746,-1.3237,-1.3158,-1.2769,-1.2398,-1.2241,-1.2009,-1.1544,-1.0894,-1.0744,-1.1122,-1.0863,-1.08,-1.1247,-1.156,-1.1622,-1.1622,-1.1622,-1.1622,-1.1498,-1.1108,-1.0325,-0.8949,-0.8194,-0.7634,-0.713,-0.6875,-0.6646,-0.6511,-0.6426,-0.6332,-0.622,-0.6182,-0.6192,-0.6173,-0.6173,-0.6009,-0.5732,-0.5749,-0.5729,-0.5719,-0.5799,-0.5973,-0.6211,-0.6306,-0.6404,-0.642,-0.642,-0.642,-0.642,-0.642,-0.642,-0.642,-0.642,-0.642,-0.6354,-0.6218,-0.6017,-0.5815,-0.5147,-0.461,-0.3949,-0.3286,-0.282,-0.2487,-0.2287,-0.222,-0.2221,-0.2221,-0.2221,-0.2221,-0.2221,-0.2221,-0.2221,-0.2221,-0.2221,-0.2221,-0.2221,-0.2221,-0.2221,-0.2221,-0.2221,-0.2221,-0.2221,-0.2221,-0.2221,-0.2221,-0.2221,-0.2154,-0.2153,-0.2153,-0.2085,-0.1951,-0.1951,-0.9246,-0.885,-0.9204,-0.9311,-0.9236,-0.8932,-0.983,-1.1484,-1.1335,-1.2003,-1.3119,-1.3492,-1.3492,-1.3492,-1.3492,-1.3492,-1.3339,-1.32,-1.3119,-1.3346,-1.3119,-1.3046,-1.3492,-1.3309,-1.2958,-1.2658,-1.2504,-1.2241,-1.1823,-1.1326,-1.1247,-1.1373,-1.1178,-1.124,-1.149,-1.156,-1.1622,-1.1622,-1.1622,-1.1622,-1.156,-1.1303,-1.0478,-0.9603,-0.8828,-0.8148,-0.7768,-0.7207,-0.6913,-0.6688,-0.6637,-0.6463,-0.6314,-0.6317,-0.629,-0.605,-0.6014,-0.595,-0.5703,-0.5703,-0.5747,-0.5805,-0.5917,-0.6095,-0.6245,-0.6371,-0.642,-0.642,-0.642,-0.642,-0.642,-0.642,-0.642,-0.642,-0.642,-0.642,-0.642,-0.642,-0.6152,-0.5881,-0.5481,-0.5011,-0.461,-0.3949,-0.3218,-0.2751,-0.242,-0.2287,-0.2221,-0.2221,-0.2221,-0.2221,-0.2221,-0.2221,-0.2221,-0.2221,-0.2221,-0.2221,-0.2221,-0.2221,-0.2221,-0.2221,-0.2221,-0.2221,-0.2221,-0.2221,-0.2221,-0.2221,-0.2221,-0.2221,-0.2154,-0.2154,-0.2154,-0.2154,-0.2153,-0.9609,-0.9231,-0.969,-0.9539,-0.9008,-0.8927,-0.9755,-1.0962,-1.1335,-1.215,-1.3346,-1.3492,-1.3492,-1.3492,-1.3492,-1.3492,-1.3492,-1.3492,-1.3492,-1.3492,-1.3419,-1.3492,-1.3477,-1.3287,-1.2972,-1.257,-1.2262,-1.2072,-1.1699,-1.1505,-1.156,-1.156,-1.156,-1.1622,-1.1622,-1.1622,-1.1622,-1.1622,-1.1622,-1.1622,-1.1428,-1.1052,-1.0415,-0.9709,-0.9064,-0.8579,-0.8195,-0.7603,-0.7173,-0.6974,-0.6884,-0.6702,-0.6431,-0.6426,-0.6312,-0.5944,-0.5848,-0.5732,-0.5665,-0.5741,-0.5843,-0.5843,-0.6096,-0.6217,-0.6355,-0.6404,-0.642,-0.642,-0.642,-0.642,-0.642,-0.642,-0.642,-0.642,-0.642,-0.642,-0.642,-0.642,-0.642,-0.6152,-0.5815,-0.5477,-0.5011,-0.4677,-0.4015,-0.3084,-0.2751,-0.2421,-0.2354,-0.2221,-0.2221,-0.2221,-0.2221,-0.2221,-0.2221,-0.2221,-0.2221,-0.2221,-0.2221,-0.2221,-0.2221,-0.2221,-0.2221,-0.2221,-0.2221,-0.2221,-0.2221,-0.2221,-0.2221,-0.2221,-0.2221,-0.2221,-0.2221,-0.2221,-0.2154,-1.0293,-1.0738,-1.0143,-0.9841,-0.9765,-0.9765,-1.0288,-1.1111,-1.1855,-1.268,-1.3492,-1.3492,-1.3492,-1.3492,-1.3492,-1.3492,-1.3492,-1.3492,-1.3492,-1.3492,-1.3492,-1.347,-1.3382,-1.2862,-1.2723,-1.2416,-1.1977,-1.1684,-1.163,-1.1622,-1.1622,-1.1622,-1.1622,-1.1622,-1.1622,-1.1622,-1.1622,-1.1622,-1.1622,-1.1622,-1.156,-1.1435,-1.0989,-1.0415,-0.9767,-0.9111,-0.8537,-0.795,-0.7428,-0.7154,-0.7121,-0.7007,-0.6689,-0.6361,-0.6138,-0.5935,-0.5735,-0.5609,-0.5631,-0.5751,-0.586,-0.5981,-0.6133,-0.6233,-0.6363,-0.642,-0.642,-0.642,-0.642,-0.642,-0.642,-0.642,-0.642,-0.642,-0.642,-0.642,-0.642,-0.642,-0.642,-0.642,-0.6083,-0.5815,-0.5477,-0.5143,-0.4746,-0.3816,-0.3084,-0.2753,-0.2555,-0.2487,-0.2221,-0.2221,-0.2221,-0.2221,-0.2221,-0.2221,-0.2221,-0.2221,-0.2221,-0.2221,-0.2221,-0.2221,-0.2221,-0.2221,-0.2221,-0.2221,-0.2221,-0.2221,-0.2221,-0.2221,-0.2221,-0.2221,-0.2221,-0.2221,-0.2221,-1.0143,-1.0438,-1.0519,-1.0594,-1.0588,-1.0594,-1.1037,-1.1706,-1.215,-1.2746,-1.3411,-1.3492,-1.3492,-1.3492,-1.3492,-1.3492,-1.3492,-1.3492,-1.3492,-1.3492,-1.3477,-1.3404,-1.3192,-1.2921,-1.2687,-1.2248,-1.1984,-1.1772,-1.1703,-1.1622,-1.1622,-1.1622,-1.1622,-1.1622,-1.1622,-1.1622,-1.1622,-1.1622,-1.1622,-1.1622,-1.1622,-1.156,-1.1435,-1.1115,-1.0415,-0.9716,-0.9069,-0.842,-0.7812,-0.7521,-0.7393,-0.7253,-0.6973,-0.6694,-0.6433,-0.6113,-0.6263,-0.6142,-0.5777,-0.5934,-0.5985,-0.6096,-0.6185,-0.6339,-0.6408,-0.642,-0.642,-0.642,-0.642,-0.642,-0.642,-0.642,-0.642,-0.642,-0.642,-0.642,-0.642,-0.642,-0.642,-0.642,-0.6354,-0.6083,-0.5815,-0.5543,-0.5276,-0.468,-0.4015,-0.3687,-0.3353,-0.3153,-0.2686,-0.2221,-0.2221,-0.2221,-0.2221,-0.2221,-0.2221,-0.2221,-0.2221,-0.2221,-0.2221,-0.2221,-0.2221,-0.2221,-0.2221,-0.2221,-0.2221,-0.2221,-0.2221,-0.2221,-0.2221,-0.2221,-0.2221,-0.2221,-0.2221,-1.0218,-1.0293,-1.0887,-1.1186,-1.1409,-1.1409,-1.1706,-1.2231,-1.2526,-1.2973,-1.3346,-1.3492,-1.3492,-1.3492,-1.3492,-1.3492,-1.3492,-1.3492,-1.3492,-1.3492,-1.3462,-1.3367,-1.3177,-1.2987,-1.2614,-1.2065,-1.1926,-1.175,-1.1681,-1.1622,-1.1622,-1.1622,-1.1622,-1.1622,-1.1622,-1.1622,-1.1622,-1.1622,-1.1622,-1.1622,-1.1622,-1.1622,-1.1622,-1.1365,-1.0863,-1.0161,-0.9518,-0.8807,-0.8161,-0.7642,-0.7507,-0.7366,-0.7171,-0.7064,-0.6809,-0.6507,-0.6611,-0.6533,-0.6214,-0.6145,-0.6203,-0.6264,-0.6298,-0.64,-0.6412,-0.642,-0.642,-0.642,-0.642,-0.642,-0.642,-0.642,-0.642,-0.642,-0.642,-0.642,-0.642,-0.642,-0.642,-0.642,-0.642,-0.642,-0.6148,-0.5881,-0.5609,-0.5342,-0.5014,-0.4553,-0.4154,-0.3751,-0.3286,-0.2755,-0.2554,-0.2487,-0.2221,-0.2221,-0.2221,-0.2221,-0.2221,-0.2221,-0.2221,-0.2221,-0.2221,-0.2221,-0.2221,-0.2221,-0.2221,-0.2221,-0.2221,-0.2221,-0.2221,-0.2221,-0.2221,-0.2221,-0.2221,-1.1037,-1.1037,-1.1111,-1.1558,-1.2224,-1.2231,-1.2231,-1.2452,-1.3119,-1.3346,-1.3492,-1.3492,-1.3492,-1.3492,-1.3492,-1.3492,-1.3492,-1.3492,-1.3492,-1.3492,-1.3477,-1.3382,-1.3148,-1.2804,-1.2489,-1.2284,-1.1926,-1.1648,-1.1567,-1.1622,-1.1622,-1.1622,-1.1622,-1.1622,-1.1622,-1.1622,-1.1622,-1.1622,-1.1622,-1.1622,-1.1622,-1.1622,-1.1622,-1.1435,-1.0926,-1.0225,-0.9512,-0.8935,-0.8231,-0.7591,-0.7526,-0.7456,-0.7297,-0.7264,-0.7038,-0.679,-0.6751,-0.6693,-0.6561,-0.6349,-0.6291,-0.6269,-0.6298,-0.642,-0.642,-0.642,-0.642,-0.642,-0.642,-0.642,-0.642,-0.642,-0.642,-0.642,-0.642,-0.642,-0.642,-0.642,-0.642,-0.642,-0.642,-0.642,-0.642,-0.6148,-0.5947,-0.5745,-0.5609,-0.5216,-0.4686,-0.4284,-0.3818,-0.3418,-0.3151,-0.282,-0.2354,-0.2288,-0.2221,-0.2221,-0.2221,-0.2221,-0.2221,-0.2221,-0.2221,-0.2221,-0.2221,-0.2221,-0.2221,-0.2221,-0.2221,-0.2221,-0.2221,-0.2221,-0.2221,-0.2221,-0.2221,-1.1706,-1.2526,-1.2077,-1.2298,-1.3053,-1.3046,-1.3046,-1.3119,-1.3346,-1.3492,-1.3492,-1.3492,-1.3492,-1.3492,-1.3492,-1.3492,-1.3492,-1.3492,-1.3492,-1.3404,-1.3323,-1.3097,-1.2819,-1.2519,-1.2116,-1.1955,-1.1725,-1.1622,-1.1622,-1.1622,-1.1622,-1.1622,-1.1622,-1.1622,-1.1622,-1.1622,-1.1622,-1.1622,-1.1622,-1.1622,-1.1622,-1.1622,-1.1622,-1.156,-1.1435,-1.0541,-0.9646,-0.9262,-0.849,-0.7782,-0.7526,-0.7461,-0.7307,-0.7345,-0.7172,-0.6959,-0.6889,-0.6715,-0.6628,-0.6477,-0.6383,-0.6383,-0.6379,-0.642,-0.642,-0.642,-0.642,-0.642,-0.642,-0.642,-0.642,-0.642,-0.642,-0.642,-0.642,-0.642,-0.642,-0.642,-0.642,-0.642,-0.642,-0.642,-0.642,-0.6354,-0.6218,-0.6079,-0.5947,-0.5811,-0.5282,-0.4885,-0.4483,-0.4018,-0.3751,-0.3282,-0.2753,-0.2487,-0.222,-0.2221,-0.2221,-0.2221,-0.2221,-0.2221,-0.2221,-0.2221,-0.2221,-0.2221,-0.2221,-0.2221,-0.2221,-0.2221,-0.2221,-0.2221,-0.2221,-0.2221,-0.2221,-1.2298,-1.3119,-1.282,-1.2973,-1.3492,-1.3492,-1.3492,-1.3492,-1.3492,-1.3492,-1.3492,-1.3492,-1.3492,-1.3492,-1.3492,-1.3492,-1.3492,-1.3492,-1.3492,-1.3382,-1.3177,-1.2892,-1.2592,-1.2284,-1.1992,-1.1714,-1.1645,-1.1622,-1.1622,-1.1622,-1.1622,-1.1622,-1.1622,-1.1622,-1.1622,-1.1622,-1.1622,-1.1622,-1.1622,-1.1622,-1.1622,-1.1622,-1.1622,-1.1622,-1.156,-1.0793,-0.9901,-0.9326,-0.8748,-0.7977,-0.7526,-0.7456,-0.7349,-0.7242,-0.7164,-0.7044,-0.6914,-0.6681,-0.6563,-0.6408,-0.6416,-0.64,-0.6408,-0.642,-0.642,-0.642,-0.642,-0.642,-0.642,-0.642,-0.642,-0.642,-0.642,-0.642,-0.642,-0.642,-0.642,-0.642,-0.642,-0.642,-0.642,-0.642,-0.642,-0.642,-0.6354,-0.6284,-0.6218,-0.6148,-0.5947,-0.555,-0.5282,-0.4815,-0.4284,-0.3749,-0.3215,-0.2686,-0.2221,-0.2221,-0.2221,-0.2221,-0.2221,-0.2221,-0.2221,-0.2221,-0.2221,-0.2221,-0.2221,-0.2221,-0.2221,-0.2221,-0.2221,-0.2221,-0.2221,-0.2221,-0.2221,-1.2973,-1.2452,-1.3119,-1.3419,-1.3492,-1.3492,-1.3492,-1.3492,-1.3492,-1.3492,-1.3492,-1.3492,-1.3492,-1.3492,-1.3492,-1.3492,-1.3492,-1.3492,-1.3462,-1.3353,-1.3067,-1.2972,-1.268,-1.2299,-1.1904,-1.1933,-1.1736,-1.1622,-1.1622,-1.1622,-1.1622,-1.1622,-1.1622,-1.1622,-1.1622,-1.1622,-1.1622,-1.1622,-1.1622,-1.1622,-1.1622,-1.1622,-1.1622,-1.1622,-1.1435,-1.073,-0.9837,-0.9326,-0.8683,-0.7782,-0.7461,-0.7396,-0.7251,-0.7181,-0.7116,-0.7064,-0.6798,-0.6728,-0.6741,-0.6548,-0.642,-0.642,-0.642,-0.642,-0.642,-0.642,-0.642,-0.642,-0.642,-0.642,-0.642,-0.642,-0.642,-0.642,-0.642,-0.642,-0.642,-0.642,-0.642,-0.642,-0.642,-0.642,-0.642,-0.642,-0.642,-0.6354,-0.642,-0.6354,-0.6284,-0.6083,-0.5818,-0.5415,-0.4882,-0.4417,-0.3816,-0.2753,-0.2221,-0.2221,-0.2221,-0.2221,-0.2221,-0.2221,-0.2221,-0.2221,-0.2221,-0.2221,-0.2221,-0.2221,-0.2221,-0.2221,-0.2221,-0.2221,-0.2221,-0.2221,-0.2221,-1.3346,-1.3119,-1.3419,-1.3492,-1.3492,-1.3492,-1.3492,-1.3492,-1.3492,-1.3492,-1.3492,-1.3492,-1.3492,-1.3492,-1.347,-1.3462,-1.3462,-1.3484,-1.3448,-1.3133,-1.2833,-1.2555,-1.2299,-1.2036,-1.175,-1.1699,-1.1645,-1.1622,-1.1622,-1.1622,-1.1622,-1.1622,-1.1622,-1.1622,-1.1622,-1.1622,-1.1622,-1.1622,-1.1622,-1.1622,-1.1622,-1.1622,-1.1622,-1.1622,-1.124,-1.0541,-0.9582,-0.9262,-0.849,-0.7652,-0.7396,-0.7265,-0.7134,-0.7073,-0.6876,-0.6815,-0.6679,-0.6482,-0.6548,-0.6416,-0.642,-0.642,-0.642,-0.642,-0.642,-0.642,-0.642,-0.642,-0.642,-0.642,-0.642,-0.642,-0.642,-0.642,-0.642,-0.642,-0.642,-0.642,-0.642,-0.642,-0.642,-0.642,-0.642,-0.642,-0.642,-0.642,-0.642,-0.642,-0.6354,-0.6354,-0.6218,-0.5885,-0.5481,-0.5084,-0.4417,-0.3487,-0.2887,-0.2887,-0.2554,-0.2221,-0.2221,-0.2287,-0.2221,-0.2221,-0.2221,-0.2221,-0.2221,-0.2221,-0.2221,-0.2221,-0.2221,-0.2221,-0.2221,-0.2221,-0.2221,-1.3492,-1.3492,-1.3492,-1.3492,-1.3492,-1.3492,-1.3492,-1.3492,-1.3492,-1.3492,-1.3492,-1.3492,-1.3411,-1.3353,-1.3323,-1.3221,-1.3177,-1.3148,-1.3111,-1.2797,-1.2504,-1.2277,-1.2014,-1.1728,-1.1626,-1.1622,-1.1622,-1.1622,-1.1622,-1.1622,-1.1622,-1.1622,-1.1622,-1.1622,-1.1622,-1.1622,-1.1622,-1.1622,-1.1622,-1.1622,-1.1622,-1.1622,-1.1622,-1.1498,-1.1115,-1.0478,-0.9709,-0.9005,-0.842,-0.7717,-0.733,-0.7134,-0.7068,-0.6872,-0.6675,-0.6613,-0.6548,-0.6416,-0.642,-0.642,-0.642,-0.642,-0.642,-0.642,-0.642,-0.642,-0.642,-0.642,-0.642,-0.642,-0.642,-0.642,-0.642,-0.642,-0.642,-0.642,-0.642,-0.642,-0.642,-0.642,-0.642,-0.642,-0.642,-0.642,-0.642,-0.642,-0.642,-0.642,-0.642,-0.642,-0.642,-0.6152,-0.5951,-0.555,-0.5017,-0.4287,-0.382,-0.3618,-0.3153,-0.2554,-0.242,-0.2487,-0.2354,-0.2221,-0.2221,-0.2221,-0.2221,-0.2221,-0.2221,-0.2221,-0.2221,-0.2221,-0.2221,-0.2221,-0.2221,-1.3462,-1.3484,-1.347,-1.3448,-1.3462,-1.3404,-1.3426,-1.3484,-1.3492,-1.3477,-1.3462,-1.3433,-1.3272,-1.3031,-1.2994,-1.2862,-1.268,-1.2621,-1.2562,-1.246,-1.2241,-1.2007,-1.1911,-1.1699,-1.1652,-1.1622,-1.1622,-1.1622,-1.1622,-1.1622,-1.1622,-1.1622,-1.1622,-1.1622,-1.1622,-1.1622,-1.1622,-1.1622,-1.1622,-1.1622,-1.1622,-1.1622,-1.1622,-1.1498,-1.124,-1.0541,-0.9837,-0.9192,-0.8549,-0.7847,-0.7265,-0.7073,-0.6942,-0.6741,-0.6613,-0.6486,-0.6416,-0.642,-0.642,-0.642,-0.642,-0.642,-0.642,-0.642,-0.642,-0.642,-0.642,-0.642,-0.642,-0.642,-0.642,-0.642,-0.642,-0.642,-0.642,-0.642,-0.642,-0.642,-0.642,-0.642,-0.642,-0.642,-0.642,-0.642,-0.642,-0.642,-0.642,-0.642,-0.642,-0.642,-0.642,-0.642,-0.6152,-0.6017,-0.5484,-0.4885,-0.4553,-0.4284,-0.3751,-0.3218,-0.3019,-0.2753,-0.2487,-0.2354,-0.222,-0.2221,-0.2221,-0.2221,-0.2221,-0.2221,-0.2221,-0.2221,-0.2221,-0.2221,-0.2221,-1.2936,-1.3119,-1.2899,-1.2928,-1.3097,-1.2899,-1.3053,-1.3462,-1.3484,-1.3382,-1.3148,-1.3155,-1.2965,-1.268,-1.2665,-1.2592,-1.2541,-1.2489,-1.235,-1.2204,-1.2043,-1.1889,-1.1743,-1.1619,-1.1622,-1.1622,-1.1622,-1.1622,-1.1622,-1.1622,-1.1622,-1.1622,-1.1622,-1.1622,-1.1622,-1.1622,-1.1622,-1.1622,-1.1622,-1.1622,-1.1622,-1.1622,-1.1622,-1.156,-1.1115,-1.0351,-0.9709,-0.9064,-0.8296,-0.7526,-0.7138,-0.6876,-0.6806,-0.6609,-0.6416,-0.642,-0.642,-0.642,-0.642,-0.642,-0.642,-0.642,-0.642,-0.642,-0.642,-0.642,-0.642,-0.642,-0.642,-0.642,-0.642,-0.642,-0.642,-0.642,-0.642,-0.642,-0.642,-0.642,-0.642,-0.642,-0.642,-0.642,-0.642,-0.642,-0.642,-0.642,-0.642,-0.642,-0.642,-0.642,-0.642,-0.642,-0.6354,-0.6218,-0.5951,-0.5418,-0.5216,-0.4951,-0.4414,-0.3816,-0.3485,-0.3153,-0.2753,-0.242,-0.222,-0.2221,-0.2221,-0.2221,-0.2221,-0.2221,-0.2221,-0.2221,-0.2221,-0.2221,-0.2221,-1.2636,-1.2775,-1.2606,-1.2636,-1.276,-1.2614,-1.2767,-1.3082,-1.3119,-1.2987,-1.2826,-1.2819,-1.2643,-1.2298,-1.2254,-1.2255,-1.2116,-1.2072,-1.1992,-1.1904,-1.1867,-1.1736,-1.1667,-1.1622,-1.1622,-1.1622,-1.1622,-1.1622,-1.1622,-1.1622,-1.1622,-1.1622,-1.1622,-1.1622,-1.1622,-1.1622,-1.1622,-1.1622,-1.1622,-1.1622,-1.1622,-1.1622,-1.1622,-1.1435,-1.0863,-1.0225,-0.9454,-0.8807,-0.7972,-0.7199,-0.6876,-0.6806,-0.6675,-0.6548,-0.6416,-0.642,-0.642,-0.642,-0.642,-0.642,-0.642,-0.642,-0.642,-0.642,-0.642,-0.642,-0.642,-0.642,-0.642,-0.642,-0.642,-0.642,-0.642,-0.642,-0.642,-0.642,-0.642,-0.642,-0.642,-0.642,-0.642,-0.642,-0.642,-0.642,-0.642,-0.642,-0.642,-0.642,-0.642,-0.642,-0.642,-0.642,-0.642,-0.6354,-0.6086,-0.5951,-0.5818,-0.555,-0.5147,-0.4613,-0.4082,-0.3485,-0.3021,-0.2621,-0.222,-0.2221,-0.2221,-0.2221,-0.2221,-0.2221,-0.2221,-0.2221,-0.2221,-0.2221,-0.2221,-1.246,-1.2415,-1.2482,-1.2467,-1.2475,-1.2423,-1.2445,-1.2475,-1.2467,-1.2467,-1.2475,-1.2482,-1.2299,-1.2043,-1.1999,-1.1867,-1.1772,-1.1714,-1.1728,-1.1567,-1.1626,-1.1652,-1.1645,-1.1622,-1.1622,-1.1622,-1.1622,-1.1622,-1.1622,-1.1622,-1.1622,-1.1622,-1.1622,-1.1622,-1.1622,-1.1622,-1.1622,-1.1622,-1.1622,-1.1622,-1.1622,-1.1622,-1.156,-1.1498,-1.0926,-1.0288,-0.9448,-0.8613,-0.7842,-0.7199,-0.6806,-0.6741,-0.6613,-0.6548,-0.642,-0.642,-0.642,-0.642,-0.642,-0.642,-0.642,-0.642,-0.642,-0.642,-0.642,-0.642,-0.642,-0.642,-0.642,-0.642,-0.642,-0.642,-0.642,-0.642,-0.642,-0.642,-0.642,-0.642,-0.642,-0.642,-0.642,-0.642,-0.642,-0.642,-0.642,-0.642,-0.642,-0.642,-0.642,-0.642,-0.642,-0.642,-0.642,-0.642,-0.6354,-0.6218,-0.6288,-0.6086,-0.5679,-0.5345,-0.4815,-0.4084,-0.3288,-0.2822,-0.2354,-0.2288,-0.2288,-0.2221,-0.2221,-0.2221,-0.2221,-0.2221,-0.2221,-0.2221,-0.2221,-1.1933,-1.208,-1.2087,-1.2087,-1.2116,-1.1897,-1.1948,-1.2116,-1.1889,-1.1941,-1.2051,-1.2058,-1.1984,-1.175,-1.1721,-1.1633,-1.1589,-1.1622,-1.1622,-1.1622,-1.1622,-1.1622,-1.1622,-1.1622,-1.1622,-1.1622,-1.1622,-1.1622,-1.1622,-1.1622,-1.1622,-1.1622,-1.1622,-1.1622,-1.1622,-1.1622,-1.1622,-1.1622,-1.1622,-1.1622,-1.1622,-1.1622,-1.156,-1.156,-1.1178,-1.0478,-0.9767,-0.9122,-0.8096,-0.7199,-0.6806,-0.6609,-0.6482,-0.6416,-0.6416,-0.642,-0.6412,-0.64,-0.6412,-0.6408,-0.6396,-0.6416,-0.642,-0.642,-0.642,-0.642,-0.642,-0.642,-0.642,-0.642,-0.642,-0.642,-0.642,-0.642,-0.642,-0.642,-0.642,-0.642,-0.642,-0.642,-0.642,-0.642,-0.642,-0.642,-0.642,-0.642,-0.642,-0.642,-0.642,-0.642,-0.642,-0.642,-0.642,-0.642,-0.642,-0.642,-0.642,-0.642,-0.6086,-0.5815,-0.5547,-0.4749,-0.3954,-0.3021,-0.2487,-0.2487,-0.2421,-0.2221,-0.2221,-0.2221,-0.2221,-0.2221,-0.2221,-0.2221,-0.2221,-1.1663,-1.1823,-1.1823,-1.1823,-1.1787,-1.1633,-1.167,-1.1772,-1.1633,-1.1655,-1.1809,-1.1816,-1.1721,-1.1567,-1.1622,-1.1622,-1.1622,-1.1622,-1.1622,-1.1622,-1.1622,-1.1622,-1.1622,-1.1622,-1.1622,-1.1622,-1.1622,-1.1622,-1.1622,-1.1622,-1.1622,-1.1622,-1.1622,-1.1622,-1.1622,-1.1622,-1.1622,-1.1622,-1.1622,-1.1622,-1.1622,-1.1622,-1.1622,-1.156,-1.1115,-1.0408,-0.9633,-0.893,-0.7902,-0.7068,-0.6613,-0.6548,-0.642,-0.642,-0.642,-0.6326,-0.6294,-0.6262,-0.6298,-0.6363,-0.6351,-0.6375,-0.6416,-0.6412,-0.642,-0.642,-0.642,-0.642,-0.642,-0.642,-0.642,-0.642,-0.642,-0.642,-0.642,-0.642,-0.642,-0.642,-0.642,-0.642,-0.642,-0.642,-0.642,-0.642,-0.642,-0.642,-0.642,-0.642,-0.642,-0.642,-0.642,-0.642,-0.642,-0.642,-0.642,-0.642,-0.642,-0.642,-0.642,-0.6218,-0.5885,-0.5282,-0.455,-0.3751,-0.322,-0.2885,-0.2753,-0.2421,-0.2221,-0.2221,-0.2221,-0.2221,-0.2221,-0.2221,-0.2221,-1.163,-1.1622,-1.163,-1.163,-1.1622,-1.1622,-1.163,-1.163,-1.1622,-1.1622,-1.1589,-1.1652,-1.1622,-1.1622,-1.1622,-1.1622,-1.1622,-1.1622,-1.1622,-1.1622,-1.1622,-1.1622,-1.1622,-1.1622,-1.1622,-1.1622,-1.1622,-1.1622,-1.1622,-1.1622,-1.1622,-1.1622,-1.1622,-1.1622,-1.1622,-1.1622,-1.1622,-1.1622,-1.1622,-1.1622,-1.1622,-1.1622,-1.1622,-1.1373,-1.0856,-1.0021,-0.9186,-0.8285,-0.7447,-0.6868,-0.6482,-0.642,-0.642,-0.642,-0.642,-0.633,-0.6258,-0.6181,-0.6173,-0.6245,-0.6274,-0.6323,-0.6367,-0.6392,-0.6396,-0.642,-0.642,-0.642,-0.642,-0.642,-0.642,-0.642,-0.642,-0.642,-0.642,-0.642,-0.642,-0.642,-0.642,-0.642,-0.642,-0.642,-0.642,-0.642,-0.642,-0.642,-0.642,-0.642,-0.642,-0.642,-0.642,-0.642,-0.642,-0.642,-0.642,-0.642,-0.642,-0.642,-0.642,-0.642,-0.6288,-0.5752,-0.5282,-0.4752,-0.4217,-0.3618,-0.3019,-0.2554,-0.2421,-0.2221,-0.2221,-0.2221,-0.2221,-0.2221,-0.2221,-1.1622,-1.1622,-1.1622,-1.1622,-1.1622,-1.1622,-1.1622,-1.1622,-1.1622,-1.1622,-1.1622,-1.1622,-1.1622,-1.1622,-1.1622,-1.1622,-1.1622,-1.1622,-1.1622,-1.1622,-1.1622,-1.1622,-1.1622,-1.1622,-1.1622,-1.1622,-1.1622,-1.1622,-1.1622,-1.1622,-1.1622,-1.1622,-1.1622,-1.1622,-1.1622,-1.1622,-1.1622,-1.1622,-1.1622,-1.1622,-1.1622,-1.1622,-1.1622,-1.1303,-1.0793,-1.0015,-0.9244,-0.8285,-0.7447,-0.6868,-0.6478,-0.642,-0.642,-0.6416,-0.6408,-0.629,-0.6222,-0.6097,-0.6058,-0.6049,-0.6132,-0.6176,-0.6225,-0.6294,-0.6331,-0.6412,-0.6416,-0.642,-0.642,-0.642,-0.642,-0.642,-0.642,-0.642,-0.642,-0.642,-0.642,-0.642,-0.642,-0.642,-0.642,-0.642,-0.642,-0.642,-0.642,-0.642,-0.642,-0.642,-0.642,-0.642,-0.642,-0.642,-0.642,-0.642,-0.642,-0.642,-0.642,-0.642,-0.642,-0.642,-0.642,-0.6354,-0.5951,-0.5352,-0.4686,-0.4018,-0.342,-0.2887,-0.2421,-0.2221,-0.2221,-0.2221,-0.2221,-0.2221,-0.2221]},{"header":{"parameterUnit":"m.s-1","parameterCategory":1,"la1":31.0,"la2":29.5877,"lo1":-88.7671,"lo2":-86.6584,"dy":0.0162,"dx":0.0185,"nx":115,"ny":88,"refTime":"2024-07-12T00:00:00:Z","depth":0,"parameterNumber":3,"parameterNumberName":"V-component_of_WINDS"},"data":[0.0,0.0,0.0,0.0,0.0,0.0,0.0,0.0,0.0,0.0,0.0,0.0,0.0,0.0,0.0,0.0,0.0,0.0,0.0,0.0,0.0,0.0,0.0,0.0,0.0,0.0,0.0,0.0,0.0,0.0,0.0,0.0,0.0,0.0,0.0,0.0,0.0,0.0,0.0,0.0,0.0,0.0,0.0,0.0,0.0,0.0,0.0,0.0,0.0,0.0,0.0,0.0,0.0,0.0,0.0,0.0,0.0,0.0,0.0,0.0,0.0,0.0,0.0,0.0,0.0,0.0,0.0,0.0,0.0,0.0,0.0,0.0,0.0,0.0,0.0,0.0,0.0,0.0,0.0,0.0,0.0,0.0,0.0,0.0,0.0,0.0,0.0,0.0,0.0,0.0,0.0,0.0,0.0,0.0,0.0,0.0,0.0,0.0,0.0,0.0,0.0,0.0,0.0,0.0,0.0,0.0,0.0,0.0,0.0,0.0,0.0,0.0,0.0,0.0,0.0,0.0,0.0,0.0,0.0,0.0,0.0,0.0,0.0,0.0,0.0,0.0,0.0,0.0,0.0,0.0,0.0,0.0,0.0,0.0,0.0,0.0,0.0,0.0,0.0,0.0,0.0,0.0,0.0,0.0,0.0,0.0,0.0,0.0,0.0,0.0,0.0,0.0,0.0,0.0,0.0,0.0,0.0,0.0,0.0,0.0,0.0,0.0,0.0,0.0,0.0,0.0,0.0,0.0,0.0,0.0,0.0,0.0,0.0,0.0,0.0,0.0,0.0,0.0,0.0,0.0,0.0,0.0,0.0,0.0,0.0,0.0,0.0,0.0,0.0,0.0,0.0,0.0,0.0,0.0,0.0,0.0,0.0,0.0,0.0,0.0,0.0,0.0,0.0,0.0,0.0,0.0,0.0,0.0,0.0,0.0,0.0,0.0,0.0,0.0,0.0,0.0,0.0,0.0,0.0,0.0,0.0,0.0,0.0,0.0,0.0,0.0,0.0,0.0,0.0,0.0,0.0,0.0,0.0,0.0,0.0,0.0,0.0,0.0,0.0,0.0,0.0,0.0,0.0,0.0,0.0,0.0,0.0,0.0,0.0,0.0,0.0,0.0,0.0,0.0,0.0,0.0,0.0,0.0,0.0,0.0,0.0,0.0,0.0,0.0,0.0,0.0,0.0,0.0,0.0,0.0,0.0,0.0,0.0,0.0,0.0,0.0,0.0,0.0,0.0,0.0,0.0,0.0,0.0,0.0,0.0,0.0,0.0,0.0,0.0,0.0,0.0,0.0,0.0,0.0,0.0,0.0,0.0,0.0,0.0,0.0,0.0,0.0,0.0,0.0,0.0,0.0,0.0,0.0,0.0,0.0,0.0,0.0,0.0,0.0,0.0,0.0,0.0,0.0,0.0,0.0,0.0,0.0,0.0,0.0,0.0,0.0,0.0,0.0,0.0,0.0,0.0,0.0,0.0,0.0,0.0,0.0,0.0,0.0,0.0,0.0,0.0,0.0,0.0,0.0,0.0,0.0,0.0,0.0,0.0,0.0,0.0,0.0,0.0,0.0,0.0,0.0,0.0,0.0,0.0,0.0,0.0,0.0,0.0,0.0,0.0,0.0,0.0,0.0,0.0,0.0,0.0,0.0,0.0,0.0,0.0,0.0,0.0,0.0,0.0,0.0,0.0,0.0,0.0,0.0,0.0,0.0,0.0,0.0,0.0,0.0,0.0,0.0,0.0,0.0,0.0,0.0,0.0,0.0,0.0,0.0,0.0,0.0,0.0,0.0,0.0,0.0,0.0,0.0,0.0,0.0,0.0,0.0,0.0,0.0,0.0,0.0,0.0,0.0,0.0,0.0,0.0,0.0,0.0,0.0,0.0,0.0,0.0,0.0,0.0,0.0,0.0,0.0,0.0,0.0,0.0,0.0,0.0,0.0,0.0,0.0,0.0,0.0,0.0,0.0,0.0,0.0,0.0,0.0,0.0,0.0,0.0,0.0,0.0,0.0,0.0,0.0,0.0,0.0,0.0,0.0,0.0,0.0,0.0,0.0,0.0,0.0,0.0,0.0,0.0,0.0,0.0,0.0,0.0,0.0,0.0,0.0,0.0,0.0,0.0,0.0,0.0,0.0,0.0,0.0,0.0,0.0,0.0,0.0,0.0,0.0,0.0,0.0,0.0,0.0,0.0,0.0,0.0,0.0,0.0,0.0,0.0,0.0,0.0,0.0,0.0,0.0,0.0,0.0,0.0,0.0,0.0,0.0,0.0,0.0,0.0,0.0,0.0,0.0,0.0,0.0,0.0,0.0,0.0,0.0,0.0,0.0,0.0,0.0,0.0,0.0,0.0,0.0,0.0,0.0,0.0,0.0,0.0,0.0,0.0,0.0,0.0,0.0,0.0,0.0,0.0,0.0,0.0,0.0,0.0,0.0,0.0,0.0,0.0,0.0,0.0,0.0,0.0,0.0,0.0,0.0,0.0,0.0,0.0,0.0,0.0,0.0,0.0,0.0,0.0,0.0,0.0,0.0,0.0,0.0,0.0,0.0,0.0,0.0,0.0,0.0,0.0,0.0,0.0,0.0,0.0,0.0,0.0,0.0,0.0,0.0,0.0,0.0,0.0,0.0,0.0,0.0,0.0,0.0,0.0,0.0,0.0,0.0,0.0,0.0,0.0,0.0,0.0,0.0,0.0,0.0,0.0,0.0,0.0,0.0,0.0,0.0,0.0,0.0,0.0,0.0,0.0,0.0,0.0,0.0,0.0,0.0,0.0,0.0,0.0,0.0,0.0,0.0,0.0,0.0,0.0,0.0,0.0,0.0,0.0,0.0,0.0,0.0,0.0,0.0,0.0,0.0,0.0,0.0,0.0,0.0,0.0,0.0,0.0,0.0,0.0,0.0,0.0,0.0,0.0,0.0,0.0,0.0,0.0,0.0,0.0,0.0,0.0,0.0,0.0,0.0,0.0,0.0,0.0,0.0,0.0,0.0,0.0,0.0,0.0,0.0,0.0,0.0,0.0,0.0,0.0,0.0,0.0,0.0,0.0,0.0,0.0,0.0,0.0,0.0,0.0,0.0,0.0,0.0,0.0,0.0,0.0,0.0,0.0,0.0,0.0,0.0,0.0,0.0,0.0,0.0,0.0,0.0,0.0,0.0,0.0,0.0,0.0,0.0,0.0,0.0,0.0,0.0,0.0,0.0,0.0,0.0,0.0,0.0,0.0,0.0,0.0,0.0,0.0,0.0,0.0,0.0,0.0,0.0,0.0,0.0,0.0,0.0,0.0,0.0,0.0,0.0,0.0,0.0,0.0,0.0,0.0,0.0,0.0,0.0,0.0,0.0,0.0,0.0,0.0,0.0,0.0,0.0,0.0,0.0,0.0,0.0,0.0,0.0,0.0,0.0,0.0,0.0,0.0,0.0,0.0,0.0,0.0,0.0,0.0,0.0,0.0,0.0,0.0,0.0,0.0,0.0,0.0,0.0,0.0,0.0,0.0,0.0,0.0,0.0,0.0,0.0,0.0,0.0,0.0,0.0,0.0,0.0,0.0,0.0,0.0,0.0,0.0,0.0,0.0,0.0,0.0,0.0,0.0,0.0,0.0,0.0,0.0,0.0,0.0,0.0,0.0,0.0,0.0,0.0,0.0,0.0,0.0,0.0,0.0,0.0,0.0,0.0,0.0,0.0,0.0,0.0,0.0,0.0,0.0,0.0,0.0,0.0,0.0,0.0,0.0,0.0,0.0,0.0,0.0,0.0,0.0,0.0,0.0,0.0,0.0,0.0,0.0,0.0,0.0,0.0,0.0,0.0,0.0,0.0,0.0,0.0,0.0,0.0,0.0,0.0,0.0,0.0,0.0,0.0,0.0,0.0,0.0,0.0,0.0,0.0,0.0,0.0,0.0,0.0,0.0,0.0,0.0,0.0,0.0,0.0,0.0,0.0,0.0,0.0,0.0,0.0,0.0,0.0,0.0,0.0,0.0,0.0,0.0,0.0,0.0,0.0,0.0,0.0,0.0,0.0,0.0,0.0,0.0,0.0,0.0,0.0,0.0,0.0,0.0,0.0,0.0,0.0,0.0,0.0,0.0,0.0,0.0,0.0,0.0,0.0,0.0,0.0,0.0,0.0,0.0,0.0,0.0,0.0,0.0,0.0,0.0,0.0,0.0,0.0,0.0,0.0,0.0,0.0,0.0,0.0,0.0,0.0,0.0,0.0,0.0,0.0,0.0,0.0,0.0,0.0,0.0,0.0,0.0,0.0,0.0,0.0,-0.9681,0.0,0.0,0.0,0.0,0.0,0.0,0.0,0.0,0.0,0.0,0.0,0.0,0.0,0.0,0.0,0.0,0.0,0.0,0.0,0.0,0.0,0.0,0.0,0.0,0.0,0.0,0.0,0.0,0.0,0.0,0.0,0.0,0.0,0.0,0.0,0.0,0.0,0.0,0.0,0.0,0.0,0.0,0.0,0.0,0.0,0.0,0.0,0.0,0.0,0.0,0.0,0.0,0.0,0.0,0.0,0.0,0.0,0.0,0.0,0.0,0.0,0.0,0.0,0.0,0.0,0.0,0.0,0.0,0.0,0.0,0.0,0.0,0.0,0.0,0.0,0.0,0.0,0.0,0.0,0.0,0.0,0.0,0.0,0.0,0.0,0.0,0.0,0.0,0.0,0.0,0.0,0.0,0.0,0.0,0.0,0.0,0.0,0.0,0.0,0.0,0.0,0.0,0.0,0.0,0.0,0.0,0.0,0.0,0.0,0.0,-0.9817,-0.9801,-0.9743,-0.9724,-0.9759,0.0,0.0,0.0,0.0,0.0,0.0,0.0,0.0,0.0,0.0,0.0,0.0,0.0,0.0,0.0,0.0,0.0,0.0,0.0,0.0,0.0,0.0,0.0,0.0,0.0,0.0,0.0,0.0,0.0,0.0,0.0,0.0,0.0,0.0,0.0,0.0,0.0,0.0,0.0,0.0,0.0,0.0,0.0,0.0,0.0,0.0,0.0,0.0,0.0,0.0,0.0,0.0,0.0,0.0,0.0,0.0,0.0,0.0,0.0,0.0,0.0,0.0,0.0,0.0,0.0,0.0,0.0,0.0,0.0,0.0,0.0,0.0,0.0,0.0,0.0,0.0,0.0,0.0,0.0,0.0,0.0,0.0,0.0,0.0,0.0,0.0,0.0,0.0,0.0,0.0,0.0,0.0,0.0,0.0,0.0,0.0,0.0,0.0,0.0,0.0,0.0,0.0,0.0,0.0,0.0,0.0,0.0,0.0,0.0,0.0,0.0,0.0,-1.0084,-1.0061,-1.0126,0.0,0.0,0.0,0.0,0.0,0.0,0.0,0.0,0.0,0.0,0.0,0.0,0.0,0.0,0.0,0.0,0.0,0.0,0.0,0.0,0.0,0.0,0.0,0.0,0.0,0.0,0.0,0.0,0.0,0.0,0.0,0.0,0.0,0.0,0.0,0.0,0.0,0.0,0.0,0.0,0.0,0.0,0.0,0.0,0.0,0.0,0.0,0.0,0.0,0.0,0.0,0.0,0.0,0.0,0.0,0.0,0.0,0.0,0.0,0.0,0.0,0.0,0.0,0.0,0.0,0.0,0.0,0.0,0.0,0.0,0.0,0.0,0.0,0.0,0.0,0.0,0.0,0.0,0.0,0.0,0.0,0.0,0.0,0.0,0.0,0.0,0.0,0.0,0.0,0.0,0.0,0.0,0.0,0.0,0.0,0.0,0.0,0.0,0.0,0.0,0.0,0.0,0.0,0.0,0.0,0.0,0.0,0.0,0.0,0.0,-1.0336,-1.1049,-1.1049,0.0,-1.1074,0.0,0.0,0.0,0.0,0.0,0.0,0.0,0.0,0.0,0.0,0.0,0.0,0.0,0.0,0.0,0.0,0.0,0.0,0.0,0.0,0.0,0.0,0.0,0.0,0.0,0.0,0.0,0.0,0.0,0.0,0.0,0.0,0.0,0.0,0.0,0.0,0.0,0.0,0.0,0.0,0.0,0.0,0.0,0.0,0.0,0.0,0.0,0.0,0.0,0.0,0.0,0.0,0.0,0.0,0.0,0.0,0.0,0.0,0.0,0.0,0.0,0.0,0.0,0.0,0.0,0.0,0.0,0.0,0.0,0.0,0.0,0.0,0.0,0.0,0.0,0.0,0.0,0.0,0.0,0.0,0.0,0.0,0.0,0.0,0.0,0.0,0.0,0.0,0.0,0.0,0.0,0.0,0.0,0.0,0.0,0.0,0.0,0.0,0.0,0.0,0.0,0.0,0.0,0.0,0.0,0.0,0.0,0.0,0.0,0.0,0.0,-1.1296,-1.1288,-1.1258,0.0,0.0,0.0,0.0,0.0,0.0,0.0,0.0,0.0,0.0,0.0,0.0,0.0,0.0,0.0,0.0,0.0,0.0,0.0,0.0,0.0,0.0,0.0,0.0,0.0,0.0,0.0,0.0,0.0,0.0,0.0,0.0,0.0,0.0,0.0,0.0,0.0,0.0,0.0,0.0,0.0,0.0,0.0,0.0,0.0,0.0,0.0,0.0,0.0,0.0,0.0,0.0,0.0,0.0,0.0,0.0,0.0,0.0,0.0,0.0,0.0,0.0,0.0,0.0,0.0,0.0,0.0,0.0,0.0,0.0,0.0,0.0,0.0,0.0,0.0,0.0,0.0,0.0,0.0,0.0,0.0,0.0,0.0,0.0,0.0,0.0,0.0,0.0,0.0,0.0,0.0,0.0,0.0,0.0,0.0,0.0,0.0,0.0,0.0,0.0,0.0,0.0,0.0,0.0,0.0,0.0,0.0,0.0,0.0,0.0,-1.1206,0.0,-1.1729,-1.167,-1.1534,-1.1299,0.0,0.0,0.0,0.0,0.0,0.0,0.0,0.0,0.0,0.0,0.0,0.0,0.0,0.0,0.0,0.0,0.0,0.0,0.0,0.0,0.0,0.0,0.0,0.0,0.0,0.0,0.0,0.0,0.0,0.0,0.0,0.0,0.0,0.0,0.0,0.0,0.0,0.0,0.0,0.0,0.0,0.0,0.0,0.0,0.0,0.0,0.0,0.0,0.0,0.0,0.0,0.0,0.0,0.0,0.0,0.0,0.0,0.0,0.0,0.0,0.0,0.0,0.0,0.0,0.0,0.0,0.0,0.0,0.0,0.0,0.0,0.0,0.0,0.0,0.0,0.0,0.0,0.0,0.0,0.0,0.0,0.0,0.0,0.0,0.0,0.0,0.0,0.0,0.0,0.0,0.0,0.0,0.0,0.0,0.0,0.0,0.0,0.0,0.0,0.0,0.0,0.0,0.0,0.0,0.0,0.0,0.0,0.0,0.0,-1.1767,-1.1767,-1.2533,-1.2488,-1.2089,0.0,0.0,0.0,0.0,0.0,0.0,0.0,0.0,0.0,0.0,0.0,0.0,0.0,0.0,0.0,0.0,0.0,0.0,0.0,0.0,0.0,0.0,0.0,0.0,0.0,0.0,0.0,0.0,0.0,0.0,0.0,0.0,0.0,0.0,0.0,0.0,0.0,0.0,0.0,0.0,0.0,0.0,0.0,0.0,0.0,0.0,0.0,0.0,0.0,0.0,0.0,0.0,0.0,0.0,0.0,0.0,0.0,0.0,0.0,0.0,0.0,0.0,0.0,0.0,0.0,0.0,0.0,0.0,0.0,0.0,0.0,0.0,0.0,0.0,0.0,0.0,0.0,0.0,0.0,0.0,0.0,0.0,0.0,0.0,0.0,0.0,0.0,0.0,0.0,0.0,0.0,0.0,0.0,0.0,0.0,0.0,0.0,0.0,0.0,0.0,0.0,0.0,0.0,0.0,0.0,0.0,0.0,0.0,0.0,-1.1046,-1.1324,-1.2102,-1.3338,-1.2387,-1.1906,0.0,0.0,0.0,0.0,0.0,0.0,0.0,0.0,0.0,0.0,0.0,0.0,0.0,0.0,0.0,0.0,0.0,0.0,0.0,0.0,0.0,0.0,0.0,0.0,0.0,0.0,0.0,0.0,0.0,0.0,0.0,0.0,0.0,0.0,0.0,0.0,0.0,0.0,0.0,0.0,0.0,0.0,0.0,0.0,0.0,0.0,0.0,0.0,0.0,0.0,0.0,0.0,0.0,0.0,0.0,0.0,0.0,0.0,0.0,0.0,0.0,0.0,0.0,0.0,0.0,0.0,0.0,0.0,0.0,0.0,0.0,0.0,0.0,0.0,0.0,0.0,0.0,0.0,0.0,0.0,0.0,0.0,0.0,0.0,0.0,0.0,0.0,0.0,0.0,0.0,0.0,0.0,0.0,0.0,0.0,0.0,0.0,0.0,0.0,0.0,0.0,0.0,0.0,0.0,0.0,0.0,0.0,0.0,0.0,-1.1008,0.0,-1.2678,0.0,-1.2425,-1.181,0.0,0.0,0.0,0.0,0.0,0.0,0.0,0.0,0.0,0.0,0.0,0.0,0.0,0.0,0.0,0.0,0.0,0.0,0.0,0.0,0.0,0.0,0.0,0.0,0.0,0.0,0.0,0.0,0.0,0.0,0.0,0.0,0.0,0.0,0.0,0.0,0.0,0.0,0.0,0.0,0.0,0.0,0.0,0.0,0.0,0.0,0.0,0.0,0.0,0.0,0.0,0.0,0.0,0.0,0.0,0.0,0.0,0.0,0.0,0.0,0.0,0.0,0.0,0.0,0.0,0.0,0.0,0.0,0.0,0.0,0.0,0.0,0.0,0.0,0.0,0.0,0.0,0.0,0.0,0.0,0.0,0.0,0.0,0.0,0.0,0.0,0.0,0.0,0.0,0.0,0.0,0.0,0.0,0.0,0.0,0.0,0.0,0.0,0.0,0.0,0.0,0.0,0.0,0.0,0.0,0.0,0.0,0.0,-1.1024,-1.2607,-1.3378,-1.3475,-1.2781,-1.2684,-1.1877,0.0,0.0,0.0,0.0,0.0,0.0,0.0,0.0,0.0,0.0,0.0,0.0,0.0,0.0,0.0,0.0,0.0,0.0,0.0,0.0,0.0,0.0,0.0,0.0,0.0,0.0,0.0,0.0,0.0,0.0,0.0,0.0,0.0,0.0,0.0,0.0,0.0,0.0,0.0,0.0,0.0,0.0,0.0,0.0,0.0,0.0,0.0,0.0,0.0,0.0,0.0,0.0,0.0,0.0,0.0,0.0,0.0,0.0,0.0,0.0,0.0,0.0,0.0,0.0,0.0,0.0,0.0,0.0,0.0,0.0,0.0,0.0,0.0,0.0,0.0,0.0,0.0,0.0,0.0,0.0,0.0,0.0,0.0,0.0,0.0,0.0,0.0,0.0,0.0,0.0,0.0,0.0,0.0,0.0,0.0,0.0,0.0,0.0,0.0,0.0,0.0,0.0,0.0,0.0,0.0,0.0,0.0,0.0,0.0,-1.1875,-1.2668,-1.3504,-1.4269,-1.2738,-1.2117,0.0,0.0,0.0,0.0,0.0,0.0,0.0,0.0,0.0,0.0,0.0,0.0,0.0,0.0,0.0,0.0,0.0,0.0,0.0,0.0,0.0,0.0,0.0,0.0,0.0,0.0,0.0,0.0,0.0,0.0,0.0,0.0,0.0,0.0,0.0,0.0,0.0,0.0,0.0,0.0,0.0,0.0,0.0,0.0,0.0,0.0,0.0,0.0,0.0,0.0,0.0,0.0,0.0,0.0,0.0,0.0,0.0,0.0,0.0,0.0,0.0,0.0,0.0,0.0,0.0,0.0,0.0,0.0,0.0,0.0,0.0,0.0,0.0,0.0,0.0,0.0,0.0,0.0,0.0,0.0,0.0,0.0,0.0,0.0,0.0,0.0,0.0,0.0,0.0,0.0,0.0,0.0,0.0,0.0,0.0,0.0,0.0,0.0,0.0,0.0,0.0,0.0,0.0,0.0,0.0,0.0,0.0,0.0,0.0,-1.2887,-1.3637,-1.4372,-1.5094,-1.3349,-1.2555,-1.2859,0.0,0.0,0.0,0.0,0.0,0.0,0.0,0.0,0.0,0.0,0.0,0.0,0.0,0.0,0.0,0.0,0.0,0.0,0.0,0.0,0.0,0.0,0.0,0.0,0.0,0.0,0.0,0.0,0.0,0.0,0.0,0.0,0.0,0.0,0.0,0.0,0.0,0.0,0.0,0.0,0.0,0.0,0.0,0.0,0.0,0.0,0.0,0.0,0.0,0.0,0.0,0.0,0.0,0.0,0.0,0.0,0.0,0.0,0.0,0.0,0.0,0.0,0.0,0.0,0.0,0.0,0.0,0.0,0.0,0.0,0.0,0.0,0.0,0.0,0.0,0.0,0.0,0.0,0.0,0.0,0.0,0.0,0.0,0.0,0.0,0.0,0.0,0.0,0.0,0.0,0.0,0.0,0.0,0.0,0.0,0.0,0.0,0.0,0.0,0.0,0.0,0.0,0.0,0.0,0.0,0.0,0.0,0.0,-1.5151,-1.6044,-1.6139,-1.5355,-1.4391,-1.319,0.0,0.0,0.0,0.0,0.0,0.0,0.0,0.0,0.0,0.0,0.0,0.0,0.0,0.0,0.0,0.0,0.0,0.0,0.0,0.0,0.0,0.0,0.0,0.0,0.0,0.0,0.0,0.0,0.0,0.0,0.0,0.0,0.0,0.0,0.0,0.0,0.0,0.0,0.0,0.0,0.0,0.0,0.0,0.0,0.0,0.0,0.0,0.0,0.0,0.0,0.0,0.0,0.0,0.0,0.0,0.0,0.0,0.0,0.0,0.0,0.0,0.0,0.0,0.0,0.0,0.0,0.0,0.0,0.0,0.0,0.0,0.0,0.0,0.0,0.0,0.0,0.0,0.0,0.0,0.0,0.0,0.0,0.0,0.0,0.0,0.0,0.0,0.0,0.0,0.0,0.0,0.0,0.0,0.0,0.0,0.0,0.0,0.0,0.0,0.0,0.0,0.0,0.0,0.0,0.0,0.0,0.0,0.0,0.0,-1.5983,-1.7965,-1.8646,-1.7801,-1.5267,-1.3975,0.0,0.0,0.0,0.0,0.0,0.0,0.0,0.0,0.0,0.0,0.0,0.0,0.0,0.0,0.0,0.0,0.0,0.0,0.0,0.0,0.0,0.0,0.0,0.0,0.0,0.0,0.0,0.0,0.0,0.0,0.0,0.0,0.0,0.0,0.0,0.0,0.0,0.0,0.0,0.0,0.0,0.0,0.0,0.0,0.0,0.0,0.0,0.0,0.0,0.0,0.0,0.0,0.0,0.0,0.0,0.0,0.0,0.0,0.0,0.0,0.0,0.0,0.0,0.0,0.0,0.0,0.0,0.0,0.0,0.0,0.0,0.0,0.0,0.0,0.0,0.0,0.0,0.0,0.0,0.0,0.0,0.0,0.0,0.0,0.0,0.0,0.0,0.0,0.0,0.0,0.0,0.0,0.0,0.0,0.0,0.0,0.0,0.0,0.0,0.0,0.0,0.0,0.0,0.0,0.0,0.0,0.0,0.0,-1.5818,-1.7833,-1.9953,-2.084,-2.037,-1.7513,-1.5508,0.0,0.0,0.0,0.0,0.0,0.0,0.0,0.0,0.0,0.0,0.0,0.0,0.0,0.0,0.0,0.0,0.0,0.0,0.0,0.0,0.0,0.0,0.0,0.0,0.0,0.0,0.0,0.0,0.0,0.0,0.0,0.0,0.0,0.0,0.0,0.0,0.0,0.0,0.0,0.0,0.0,0.0,0.0,0.0,0.0,0.0,0.0,0.0,0.0,0.0,0.0,0.0,0.0,0.0,0.0,0.0,0.0,0.0,0.0,0.0,0.0,0.0,0.0,0.0,0.0,0.0,0.0,0.0,0.0,0.0,0.0,0.0,0.0,0.0,0.0,0.0,0.0,0.0,0.0,0.0,0.0,0.0,0.0,0.0,0.0,0.0,0.0,0.0,0.0,0.0,0.0,0.0,0.0,0.0,0.0,0.0,0.0,0.0,0.0,0.0,0.0,0.0,0.0,0.0,0.0,0.0,0.0,0.0,-1.7587,-1.9955,-2.1727,-2.2633,-2.2533,-2.015,-1.7327,0.0,0.0,0.0,0.0,0.0,0.0,0.0,0.0,0.0,0.0,0.0,0.0,0.0,0.0,0.0,0.0,0.0,0.0,0.0,0.0,0.0,0.0,0.0,0.0,0.0,0.0,0.0,0.0,0.0,0.0,0.0,0.0,0.0,0.0,0.0,0.0,0.0,0.0,0.0,0.0,0.0,0.0,0.0,0.0,0.0,0.0,0.0,0.0,0.0,0.0,0.0,0.0,0.0,0.0,0.0,0.0,0.0,0.0,0.0,0.0,0.0,0.0,0.0,0.0,0.0,0.0,0.0,0.0,0.0,0.0,0.0,0.0,0.0,0.0,0.0,0.0,0.0,0.0,0.0,0.0,0.0,0.0,0.0,0.0,0.0,0.0,0.0,0.0,0.0,0.0,0.0,0.0,0.0,0.0,0.0,0.0,0.0,0.0,0.0,0.0,0.0,0.0,0.0,0.0,0.0,0.0,0.0,0.0,-1.8141,-1.9974,-2.2262,-2.3466,-2.3423,-2.0416,-1.7841,0.0,0.0,0.0,0.0,0.0,0.0,0.0,0.0,0.0,0.0,0.0,0.0,0.0,0.0,0.0,0.0,0.0,0.0,0.0,0.0,0.0,0.0,0.0,0.0,0.0,0.0,0.0,0.0,0.0,0.0,0.0,0.0,0.0,0.0,0.0,0.0,0.0,0.0,0.0,0.0,0.0,0.0,0.0,0.0,0.0,0.0,0.0,0.0,-1.1263,0.0,0.0,0.0,0.0,0.0,0.0,0.0,0.0,0.0,0.0,0.0,0.0,0.0,0.0,0.0,0.0,0.0,0.0,0.0,0.0,0.0,0.0,0.0,0.0,0.0,0.0,0.0,0.0,0.0,0.0,0.0,0.0,0.0,0.0,0.0,0.0,0.0,0.0,0.0,0.0,0.0,0.0,0.0,0.0,0.0,0.0,0.0,0.0,0.0,0.0,0.0,0.0,0.0,0.0,0.0,0.0,0.0,0.0,0.0,-1.9116,-2.113,-2.3227,-2.4117,-2.3651,-2.1627,-1.9211,0.0,0.0,0.0,0.0,0.0,0.0,0.0,0.0,0.0,0.0,0.0,0.0,0.0,0.0,0.0,0.0,0.0,0.0,0.0,0.0,0.0,0.0,0.0,0.0,0.0,0.0,0.0,0.0,0.0,0.0,0.0,0.0,0.0,0.0,0.0,0.0,0.0,0.0,0.0,0.0,0.0,0.0,0.0,0.0,0.0,0.0,0.0,0.0,0.0,0.0,0.0,0.0,0.0,0.0,0.0,0.0,0.0,0.0,0.0,0.0,0.0,0.0,0.0,0.0,0.0,0.0,0.0,0.0,0.0,0.0,0.0,0.0,0.0,0.0,0.0,0.0,0.0,0.0,0.0,0.0,0.0,0.0,0.0,0.0,0.0,0.0,0.0,0.0,0.0,0.0,0.0,0.0,0.0,0.0,0.0,0.0,0.0,0.0,0.0,0.0,0.0,0.0,0.0,0.0,0.0,0.0,0.0,-1.761,-2.0019,-2.2419,-2.4144,-2.465,-2.3916,-2.2988,-2.0606,-1.6682,0.0,0.0,0.0,0.0,0.0,0.0,0.0,0.0,0.0,0.0,0.0,0.0,0.0,0.0,0.0,0.0,0.0,0.0,0.0,0.0,0.0,0.0,0.0,0.0,0.0,0.0,0.0,0.0,0.0,0.0,0.0,0.0,0.0,0.0,0.0,0.0,0.0,0.0,-0.9491,-1.0781,0.0,0.0,0.0,0.0,0.0,0.0,0.0,0.0,-1.1633,0.0,0.0,0.0,0.0,0.0,0.0,0.0,0.0,0.0,0.0,0.0,0.0,0.0,0.0,0.0,0.0,0.0,0.0,0.0,0.0,0.0,0.0,0.0,0.0,0.0,0.0,0.0,0.0,0.0,0.0,0.0,0.0,0.0,0.0,0.0,0.0,0.0,0.0,0.0,0.0,0.0,0.0,0.0,0.0,0.0,0.0,0.0,0.0,0.0,0.0,0.0,0.0,0.0,0.0,0.0,0.0,-1.6063,-1.7881,-1.9998,-2.2457,-2.4144,-2.4934,-2.475,-2.331,-2.0891,-1.7579,0.0,0.0,0.0,0.0,0.0,0.0,0.0,0.0,0.0,0.0,0.0,0.0,0.0,0.0,0.0,0.0,0.0,0.0,0.0,0.0,0.0,0.0,0.0,0.0,0.0,0.0,0.0,0.0,0.0,0.0,0.0,0.0,0.0,0.0,0.0,0.0,0.0,0.0,0.0,-1.1992,-1.2597,0.0,0.0,0.0,0.0,0.0,0.0,0.0,0.0,-1.1754,0.0,0.0,0.0,0.0,0.0,0.0,0.0,0.0,0.0,0.0,0.0,0.0,0.0,0.0,0.0,0.0,0.0,0.0,0.0,0.0,0.0,0.0,0.0,0.0,0.0,0.0,0.0,0.0,0.0,0.0,0.0,0.0,0.0,0.0,0.0,0.0,0.0,0.0,0.0,0.0,0.0,0.0,0.0,0.0,0.0,0.0,0.0,0.0,0.0,0.0,0.0,0.0,0.0,0.0,0.0,-1.5651,-1.8156,-2.0426,-2.2457,-2.4138,-2.458,-2.3689,-2.2078,-1.9656,0.0,0.0,0.0,0.0,0.0,0.0,0.0,0.0,0.0,0.0,0.0,0.0,0.0,0.0,0.0,0.0,0.0,0.0,0.0,0.0,0.0,0.0,0.0,0.0,0.0,0.0,0.0,0.0,0.0,0.0,0.0,0.0,0.0,0.0,0.0,0.0,0.0,0.0,0.0,0.0,-1.2558,-1.2968,-1.3416,0.0,0.0,0.0,0.0,0.0,0.0,-1.2736,-1.2319,0.0,0.0,0.0,0.0,0.0,0.0,0.0,0.0,0.0,0.0,0.0,0.0,0.0,0.0,0.0,0.0,0.0,0.0,0.0,0.0,0.0,0.0,0.0,0.0,0.0,0.0,0.0,0.0,0.0,0.0,0.0,0.0,0.0,0.0,0.0,0.0,0.0,0.0,0.0,0.0,0.0,0.0,0.0,0.0,0.0,0.0,0.0,0.0,0.0,0.0,0.0,0.0,0.0,0.0,0.0,-1.5145,-1.8346,-2.0801,-2.2476,-2.4125,-2.4276,-2.2779,-2.1301,-1.8878,0.0,0.0,0.0,0.0,0.0,0.0,0.0,0.0,0.0,0.0,0.0,0.0,0.0,0.0,0.0,0.0,0.0,0.0,0.0,0.0,0.0,0.0,0.0,0.0,0.0,0.0,0.0,0.0,0.0,0.0,0.0,0.0,0.0,0.0,0.0,0.0,0.0,0.0,0.0,0.0,0.0,-1.3826,-1.4529,-1.4486,0.0,0.0,0.0,0.0,-1.45,-1.4039,0.0,0.0,0.0,0.0,0.0,0.0,0.0,0.0,0.0,0.0,0.0,0.0,0.0,0.0,0.0,0.0,0.0,0.0,0.0,0.0,0.0,0.0,0.0,0.0,0.0,0.0,0.0,0.0,0.0,0.0,0.0,0.0,0.0,0.0,0.0,0.0,0.0,0.0,0.0,0.0,0.0,0.0,0.0,0.0,0.0,0.0,0.0,0.0,0.0,0.0,0.0,0.0,0.0,0.0,0.0,0.0,-1.514,-1.8342,-2.0817,-2.2469,-2.4157,-2.4542,-2.3594,-2.2665,-2.0302,0.0,0.0,0.0,0.0,0.0,0.0,0.0,0.0,0.0,0.0,0.0,0.0,0.0,0.0,0.0,0.0,0.0,0.0,0.0,0.0,0.0,0.0,0.0,0.0,0.0,0.0,0.0,0.0,0.0,0.0,0.0,0.0,0.0,0.0,0.0,0.0,0.0,0.0,0.0,0.0,0.0,-1.6286,-1.6389,-1.5738,-1.5479,0.0,0.0,-1.5403,-1.6269,-1.6325,0.0,0.0,0.0,0.0,0.0,0.0,0.0,0.0,0.0,0.0,0.0,0.0,0.0,0.0,0.0,0.0,0.0,0.0,0.0,0.0,0.0,0.0,0.0,0.0,0.0,0.0,0.0,0.0,0.0,0.0,0.0,0.0,0.0,0.0,0.0,0.0,0.0,0.0,0.0,0.0,0.0,0.0,0.0,0.0,0.0,0.0,0.0,0.0,0.0,0.0,0.0,0.0,0.0,0.0,0.0,-1.3912,-1.5184,-1.8793,-2.1259,-2.2476,-2.4157,-2.4352,-2.3044,-2.1282,-1.8859,0.0,0.0,0.0,0.0,0.0,0.0,0.0,0.0,0.0,0.0,0.0,0.0,0.0,0.0,0.0,0.0,0.0,0.0,0.0,0.0,0.0,0.0,0.0,0.0,0.0,0.0,0.0,0.0,0.0,0.0,0.0,0.0,0.0,0.0,0.0,0.0,0.0,0.0,0.0,0.0,0.0,0.0,-1.729,-1.709,0.0,0.0,0.0,-1.7507,-1.7448,0.0,0.0,0.0,0.0,0.0,0.0,0.0,0.0,0.0,0.0,0.0,0.0,0.0,0.0,0.0,0.0,0.0,0.0,0.0,0.0,0.0,0.0,0.0,0.0,0.0,0.0,0.0,0.0,0.0,0.0,0.0,0.0,0.0,0.0,0.0,0.0,0.0,0.0,0.0,0.0,0.0,0.0,0.0,0.0,0.0,0.0,0.0,0.0,0.0,0.0,0.0,0.0,0.0,0.0,0.0,0.0,0.0,-1.5157,-1.9343,-2.1851,-2.2514,-2.4125,-2.4214,-2.2533,-2.0429,0.0,0.0,0.0,0.0,0.0,0.0,0.0,0.0,0.0,0.0,0.0,0.0,0.0,0.0,0.0,0.0,0.0,0.0,0.0,0.0,0.0,0.0,0.0,0.0,0.0,0.0,0.0,-0.5455,0.0,0.0,0.0,0.0,0.0,0.0,0.0,0.0,0.0,0.0,0.0,0.0,0.0,0.0,-1.694,-1.8446,-1.8576,-1.8715,0.0,0.0,-1.9163,-1.8985,-1.8729,-1.7903,0.0,0.0,0.0,0.0,0.0,0.0,0.0,0.0,0.0,0.0,0.0,0.0,0.0,0.0,0.0,0.0,0.0,0.0,0.0,0.0,0.0,0.0,0.0,0.0,0.0,0.0,0.0,0.0,0.0,0.0,0.0,0.0,0.0,0.0,0.0,0.0,0.0,0.0,0.0,0.0,0.0,0.0,0.0,0.0,0.0,0.0,0.0,0.0,0.0,0.0,0.0,0.0,0.0,0.0,0.0,-1.5261,-1.9924,-2.2419,-2.2552,-2.4125,-2.4214,-2.2552,-2.1547,-1.9113,0.0,0.0,0.0,0.0,0.0,0.0,0.0,0.0,0.0,0.0,0.0,0.0,0.0,0.0,0.0,0.0,0.0,0.0,0.0,0.0,0.0,0.0,0.0,0.0,0.0,0.0,0.0,0.0,0.0,0.0,0.0,0.0,0.0,0.0,0.0,0.0,0.0,0.0,0.0,0.0,0.0,-1.9381,-2.03,-2.0371,-2.0894,0.0,0.0,-1.9819,-2.1318,-2.0848,-1.9453,-1.6937,0.0,0.0,0.0,0.0,0.0,0.0,0.0,0.0,0.0,0.0,0.0,0.0,0.0,0.0,0.0,0.0,0.0,0.0,0.0,0.0,0.0,0.0,0.0,0.0,0.0,0.0,0.0,0.0,0.0,0.0,0.0,0.0,0.0,0.0,0.0,0.0,0.0,0.0,0.0,0.0,0.0,0.0,0.0,0.0,0.0,0.0,0.0,0.0,0.0,0.0,0.0,0.0,0.0,-1.5099,-1.5164,-1.999,-2.2495,-2.2552,-2.4125,-2.42,-2.2533,-2.1661,-1.9503,0.0,0.0,0.0,0.0,0.0,0.0,0.0,0.0,0.0,0.0,0.0,0.0,0.0,0.0,0.0,0.0,0.0,0.0,0.0,0.0,0.0,0.0,0.0,0.0,0.0,0.0,0.0,0.0,-0.8286,-0.886,-0.9706,0.0,0.0,0.0,0.0,0.0,0.0,0.0,0.0,0.0,0.0,-2.0417,-2.1296,-2.1767,0.0,0.0,-2.2686,-2.2425,-2.2576,-2.184,-2.0724,-1.9246,-1.7795,0.0,0.0,0.0,0.0,0.0,0.0,0.0,0.0,0.0,0.0,0.0,0.0,0.0,0.0,0.0,0.0,0.0,0.0,0.0,0.0,0.0,0.0,0.0,0.0,0.0,0.0,0.0,0.0,0.0,0.0,0.0,0.0,0.0,0.0,0.0,0.0,0.0,0.0,0.0,0.0,0.0,0.0,0.0,0.0,0.0,0.0,0.0,0.0,0.0,0.0,0.0,0.0,-1.5207,-1.5475,-2.0104,-2.2628,-2.2855,-2.4257,-2.4195,-2.2571,-2.1661,-1.9644,0.0,0.0,0.0,0.0,0.0,0.0,0.0,0.0,0.0,0.0,0.0,0.0,0.0,0.0,0.0,0.0,0.0,0.0,0.0,0.0,0.0,0.0,0.0,0.0,0.0,0.0,0.0,0.0,-0.9209,-0.9626,-1.0234,0.0,0.0,0.0,0.0,0.0,0.0,0.0,0.0,0.0,0.0,-2.1393,-2.2504,-2.3091,-2.353,-2.3844,-2.3907,-2.3758,-2.3191,-2.253,-2.1655,-2.0324,0.0,0.0,0.0,0.0,0.0,0.0,0.0,0.0,0.0,0.0,0.0,0.0,0.0,0.0,0.0,0.0,0.0,0.0,0.0,0.0,0.0,0.0,0.0,0.0,0.0,0.0,0.0,-1.0123,0.0,0.0,-1.0098,0.0,0.0,0.0,0.0,0.0,0.0,0.0,0.0,0.0,0.0,0.0,0.0,0.0,0.0,0.0,0.0,0.0,0.0,0.0,0.0,0.0,0.0,-1.5494,-1.6327,-2.0378,-2.2874,-2.3651,-2.4555,-2.42,-2.2552,-2.168,-1.9633,-1.6288,0.0,0.0,0.0,0.0,0.0,0.0,0.0,0.0,0.0,0.0,0.0,0.0,0.0,0.0,0.0,0.0,0.0,0.0,0.0,0.0,0.0,0.0,0.0,0.0,0.0,0.0,-0.8937,-0.9762,-1.0273,0.0,0.0,0.0,0.0,0.0,0.0,0.0,0.0,0.0,0.0,-2.0767,-2.2484,-2.4085,-2.4369,-2.4673,-2.5476,-2.4232,-2.3155,-2.3162,-2.3097,-2.2188,0.0,0.0,0.0,0.0,0.0,0.0,0.0,0.0,0.0,0.0,0.0,0.0,0.0,0.0,0.0,0.0,0.0,0.0,0.0,0.0,0.0,0.0,0.0,0.0,0.0,0.0,0.0,-1.3512,-1.2528,0.0,0.0,0.0,0.0,0.0,0.0,0.0,0.0,0.0,0.0,0.0,-1.8846,-1.9373,0.0,0.0,0.0,0.0,0.0,0.0,0.0,0.0,0.0,0.0,0.0,0.0,-1.578,-1.7251,-2.0674,-2.2893,-2.3689,-2.4555,-2.42,-2.2552,-2.2211,-2.0221,-1.6326,0.0,0.0,0.0,0.0,0.0,0.0,0.0,0.0,0.0,0.0,0.0,0.0,0.0,0.0,0.0,0.0,0.0,0.0,0.0,0.0,0.0,0.0,0.0,0.0,0.0,-0.9545,0.0,0.0,0.0,0.0,0.0,0.0,0.0,0.0,0.0,0.0,0.0,-1.8726,-2.0685,-2.2463,-2.3773,-2.4319,-2.4903,-2.5369,0.0,0.0,0.0,0.0,0.0,0.0,0.0,0.0,0.0,0.0,0.0,0.0,0.0,0.0,-2.0424,-1.6431,-1.5245,-1.5013,-1.557,0.0,0.0,0.0,0.0,0.0,0.0,0.0,0.0,0.0,0.0,0.0,0.0,0.0,0.0,-1.5866,0.0,-1.4938,0.0,0.0,0.0,0.0,0.0,0.0,0.0,0.0,-1.9934,-2.1103,-2.1355,-2.1874,-2.157,0.0,-2.0497,-1.8649,0.0,0.0,0.0,0.0,0.0,0.0,0.0,0.0,-1.6785,-1.8467,-2.1384,-2.331,-2.4125,-2.4707,-2.4327,-2.295,-2.2059,-2.0069,-1.6753,-1.5375,-1.3878,0.0,0.0,0.0,0.0,0.0,0.0,0.0,0.0,0.0,0.0,0.0,0.0,0.0,0.0,0.0,0.0,0.0,0.0,0.0,0.0,0.0,0.0,0.0,-1.0306,0.0,0.0,0.0,0.0,0.0,0.0,0.0,0.0,0.0,-1.9778,-2.0095,-2.0799,-2.2489,-2.3677,-2.4495,-2.4809,0.0,0.0,0.0,0.0,0.0,0.0,0.0,-2.3879,-2.3864,-2.3378,-2.3085,-2.3312,-2.4094,-2.4302,-2.3166,0.0,0.0,-1.9158,-1.7932,-1.7675,-1.8218,-1.8755,-1.9167,-1.9148,-1.9846,-2.0291,0.0,0.0,0.0,0.0,0.0,0.0,0.0,0.0,-1.7198,-1.7219,0.0,-1.7396,0.0,0.0,0.0,0.0,0.0,-1.884,0.0,0.0,-2.3335,-2.4504,-2.3727,-2.3708,-2.3727,-2.3746,-2.3702,-2.2424,-2.0019,-1.7706,0.0,0.0,0.0,0.0,0.0,0.0,-1.8467,-2.0086,-2.2443,-2.4125,-2.494,-2.4991,-2.4574,-2.3613,-2.1339,-1.9292,-1.7624,-1.6789,-1.5562,-1.3868,-1.2341,0.0,0.0,0.0,0.0,0.0,0.0,0.0,0.0,0.0,0.0,0.0,0.0,0.0,0.0,0.0,0.0,0.0,0.0,0.0,0.0,-1.0282,0.0,0.0,0.0,0.0,0.0,0.0,0.0,0.0,0.0,0.0,-2.2167,-2.207,-2.25,-2.4198,0.0,0.0,0.0,0.0,-2.569,-2.569,-2.5655,-2.5305,-2.4505,-2.5024,-2.497,-2.3387,0.0,0.0,-2.4402,-2.4999,-2.5026,-2.3328,-2.3805,-2.4333,-2.4236,-2.2663,-2.1614,-2.1672,-2.1672,-2.1769,-2.1867,-2.2449,-2.2998,-2.1564,0.0,0.0,0.0,0.0,-1.9501,-2.0164,-2.1293,-2.1436,-2.0771,-1.9579,-1.9745,0.0,0.0,0.0,0.0,0.0,0.0,-2.118,-2.1855,-2.3379,-2.4257,-2.4631,-2.4631,-2.4617,-2.4617,-2.465,-2.3948,-2.2652,-2.1924,-1.9278,-1.4871,0.0,0.0,0.0,0.0,-2.0125,-2.1741,-2.305,-2.4125,-2.4991,-2.4991,-2.4327,-2.2874,-2.1547,-2.0058,-1.841,-1.8136,-1.7245,-1.5619,-1.4551,0.0,0.0,0.0,0.0,0.0,0.0,0.0,0.0,0.0,0.0,0.0,0.0,0.0,0.0,0.0,0.0,0.0,0.0,0.0,-1.0272,-1.0803,-1.1644,0.0,0.0,0.0,0.0,0.0,0.0,0.0,0.0,0.0,-2.3595,-2.3718,-2.4079,0.0,0.0,-2.5422,-2.5659,-2.5701,-2.5703,-2.5703,-2.5673,0.0,-2.5347,-2.4985,-2.4779,-2.4834,-2.5266,-2.5516,-2.5231,-2.542,-2.5429,-2.489,-2.5046,-2.5232,-2.5135,-2.3814,-2.2862,-2.3154,-2.3426,-2.375,-2.4358,-2.4708,-2.4844,-2.4808,-2.2614,-2.1842,-2.1984,-2.2678,-2.2601,-2.3198,-2.4275,-2.4431,-2.3695,-2.2392,-2.2584,-2.1324,-1.9063,-1.8833,0.0,0.0,0.0,-2.3158,-2.3986,-2.4466,-2.482,-2.4991,-2.4991,-2.4991,-2.4991,-2.4991,-2.4726,-2.4219,-2.42,-2.2121,-1.8193,0.0,0.0,-1.8418,-2.0106,-2.1635,-2.2935,-2.3809,-2.4479,-2.4991,-2.4991,-2.4352,-2.3026,-2.2154,-2.1093,-1.9755,-1.9387,-1.862,-1.7292,-1.6143,-1.4247,0.0,0.0,0.0,0.0,0.0,0.0,0.0,0.0,0.0,0.0,0.0,-0.7558,0.0,0.0,0.0,0.0,-1.0276,-1.1814,-1.2288,-1.3074,0.0,0.0,0.0,0.0,0.0,0.0,0.0,-2.0982,-2.245,-2.3745,-2.4762,-2.4924,-2.5117,-2.5625,-2.5703,-2.57,-2.5691,0.0,-2.5687,-2.5687,-2.5701,-2.5696,-2.569,-2.5252,-2.5083,-2.5535,-2.5609,-2.56,-2.5595,-2.5609,-2.5604,-2.5607,-2.5601,-2.5601,-2.5601,-2.4727,-2.4125,-2.4494,-2.4708,-2.4999,-2.5523,-2.5601,-2.5601,-2.7101,-2.6915,-2.5318,-2.4946,-2.5436,-2.5314,-2.5574,-2.6069,-2.6268,-2.5918,-2.5248,-2.5498,-2.434,-2.2214,-2.1666,0.0,-2.5219,-2.5205,-2.5579,-2.6299,-2.6299,-2.592,-2.5237,-2.5219,-2.5162,-2.5105,-2.5091,-2.5067,-2.4991,-2.4991,-2.4214,-2.2716,-2.1966,-2.1532,-2.1448,-2.2255,-2.3068,-2.3784,-2.4598,-2.4991,-2.4991,-2.4991,-2.4561,-2.3613,-2.2874,-2.2059,-2.113,-2.0391,-1.9585,-1.8713,-1.7225,-1.5486,-1.3519,0.0,0.0,0.0,0.0,0.0,0.0,0.0,0.0,0.0,0.0,0.0,0.0,0.0,0.0,0.0,-1.2593,0.0,-1.5426,-1.6342,0.0,0.0,0.0,-1.8695,-1.9711,-2.1123,-2.2132,-2.2455,0.0,0.0,-2.5699,-2.5699,-2.571,-2.5791,-2.5738,-2.5703,-2.5702,-2.5697,-2.5689,-2.5687,-2.5783,-2.5781,-2.5729,-2.5626,-2.5613,-2.56,-2.5605,-2.5595,-2.5607,-2.5601,-2.5601,-2.5601,-2.5601,-2.5601,-2.5601,-2.5523,-2.5601,-2.5543,-2.5562,-2.5582,-2.5601,-2.5601,-2.5601,-2.8584,-2.8525,-2.7807,-2.7175,-2.6674,-2.6692,-2.6598,-2.6478,-2.6682,-2.6534,-2.6248,-2.6467,-2.6338,-2.5981,-2.5937,-2.629,-2.6906,-2.6906,-2.702,-2.7191,-2.7191,-2.7096,-2.6925,-2.6906,-2.6565,-2.5944,-2.592,-2.5603,-2.5029,-2.4991,-2.4788,-2.4422,-2.4227,-2.3468,-2.2329,-2.3676,-2.4492,-2.4688,-2.4883,-2.4991,-2.4991,-2.4991,-2.4308,-2.2817,-2.259,-2.1813,-2.0353,-2.0107,-1.9595,-1.8732,-1.7738,-1.642,-1.4676,-1.2913,0.0,0.0,0.0,0.0,0.0,0.0,0.0,0.0,0.0,-1.0844,-0.8837,0.0,-1.1979,0.0,-1.4727,-1.8217,-1.6556,-1.7722,0.0,0.0,-2.0893,-2.1753,-2.3917,-2.3933,-2.4046,-2.4771,-2.5371,-2.5699,-2.5699,-2.5699,-2.5917,-2.6509,-2.6086,-2.5699,-2.57,-2.5699,-2.5698,-2.5787,-2.6283,-2.6451,-2.5882,-2.5648,-2.5682,-2.561,-2.5629,-2.5607,-2.5621,-2.5601,-2.5601,-2.5601,-2.5601,-2.5601,-2.5601,-2.5601,-2.5621,-2.5601,-2.5601,-2.5601,-2.5601,-2.5601,-2.5601,-3.0339,-3.0235,-2.9711,-2.9163,-2.867,-2.7985,-2.7563,-2.7424,-2.7555,-2.7358,-2.6926,-2.6704,-2.6743,-2.6953,-2.7131,-2.7439,-2.79,-2.7998,-2.8029,-2.8029,-2.8048,-2.7839,-2.7513,-2.7494,-2.7247,-2.6792,-2.6792,-2.6342,-2.5565,-2.5527,-2.5351,-2.501,-2.4991,-2.4523,-2.3689,-2.4555,-2.4991,-2.4991,-2.4991,-2.4991,-2.4991,-2.4991,-2.4371,-2.3082,-2.2684,-2.1888,-2.0581,-2.0183,-1.9595,-1.8732,-1.7937,-1.6904,-1.5586,-1.4319,-1.3256,0.0,0.0,0.0,0.0,0.0,0.0,0.0,0.0,0.0,0.0,0.0,-1.395,-1.2446,-1.7983,-2.1104,-1.9678,-2.0747,-2.2052,-2.338,-2.3536,-2.4121,-2.5543,-2.527,-2.5153,-2.564,-2.6011,-2.6303,-2.6439,-2.6673,-2.6965,-2.7413,-2.7098,-2.6813,-2.6855,-2.6855,-2.6853,-2.688,-2.7262,-2.741,-2.688,-2.6782,-2.6743,-2.6758,-2.6757,-2.6746,-2.6708,-2.6702,-2.6722,-2.6728,-2.6708,-2.6436,-2.5815,-2.6281,-2.665,-2.6456,-2.6553,-2.6417,-2.5757,-2.5601,-2.5601,-3.1871,-3.1685,-3.1005,-3.0711,-3.0609,-2.9225,-2.8559,-2.851,-2.8569,-2.8245,-2.7633,-2.6941,-2.6746,-2.694,-2.712,-2.7699,-2.8592,-2.8763,-2.8866,-2.8847,-2.8847,-2.8483,-2.7816,-2.7816,-2.7759,-2.7665,-2.765,-2.7228,-2.6375,-2.6261,-2.5844,-2.5167,-2.5053,-2.4991,-2.4991,-2.4991,-2.4991,-2.4991,-2.4991,-2.4991,-2.4991,-2.4991,-2.458,-2.3727,-2.2931,-2.2078,-2.1225,-2.0429,-1.9595,-1.8732,-1.805,-1.7264,-1.642,-1.5597,-1.4829,0.0,-1.3982,0.0,0.0,0.0,0.0,0.0,0.0,0.0,0.0,-1.5633,-1.6438,-1.8328,-2.149,-2.34,-2.3283,-2.4043,-2.4861,-2.5601,-2.5699,-2.5699,-2.5699,-2.5699,-2.5738,-2.5855,-2.6459,-2.7043,-2.7433,-2.792,-2.8188,-2.8325,-2.8349,-2.8372,-2.8564,-2.8378,-2.8162,-2.8288,-2.8281,-2.8157,-2.8236,-2.8213,-2.81,-2.812,-2.8046,-2.8157,-2.801,-2.8023,-2.8061,-2.8042,-2.7984,-2.7557,-2.6164,-2.7136,-2.7848,-2.7446,-2.7673,-2.7537,-2.6398,-2.5931,-2.5776,-3.1579,-3.1513,-3.0972,-3.0785,-3.074,-3.0468,-2.9823,-2.8971,-2.9038,-2.9116,-2.9174,-2.9025,-2.9083,-2.9262,-2.9297,-2.9425,-2.9612,-2.9664,-2.9661,-2.968,-2.9696,-2.9602,-2.9434,-2.945,-2.9109,-2.8521,-2.8464,-2.8048,-2.7247,-2.6531,-2.6129,-2.5958,-2.5332,-2.4991,-2.4991,0.0,0.0,0.0,-2.4991,-2.4991,-2.4991,-2.4991,-2.4593,-2.3708,-2.2931,0.0,-2.1244,-2.0429,-1.9595,-1.8751,-1.8562,0.0,0.0,0.0,0.0,0.0,0.0,0.0,0.0,0.0,0.0,0.0,-1.8025,-1.7465,-1.7331,-1.7427,-1.8484,-2.0886,-2.3595,-2.492,-2.4238,-2.4939,-2.5524,-2.5679,-2.5699,-2.5699,-2.5699,-2.5699,-2.5952,-2.6595,-2.6809,-2.7219,-2.7959,-2.8154,-2.8481,-2.9143,-2.9264,-2.9554,-3.0189,-2.9171,-2.8359,-2.8289,-2.8393,-2.8532,-2.9148,-2.87,-2.834,-2.8145,-2.8113,-2.8165,-2.8204,-2.8178,-2.8139,-2.8178,-2.81,-2.8081,-2.7673,-2.7906,-2.8159,-2.7964,-2.8061,-2.8003,-2.7673,-2.7097,-2.665,-3.29,-3.2643,-3.1999,-3.1719,0.0,-3.1128,-3.0612,-3.0155,-3.0064,-3.0136,-3.0282,-3.0282,-3.0176,-3.0034,-3.0132,-3.0039,-2.9751,-2.9855,-2.9907,-2.9907,-2.9907,-2.9907,-2.9907,-2.9907,-2.968,-2.9301,-2.9282,-2.89,-2.8104,-2.765,-2.7233,-2.683,-2.6015,-2.5598,-2.5579,-2.5186,-2.4991,-2.4991,-2.4991,-2.4991,-2.4991,-2.4991,-2.458,-2.3746,-2.331,0.0,0.0,0.0,0.0,0.0,0.0,0.0,0.0,0.0,0.0,-1.8676,-1.8723,-1.8718,-1.8727,-1.9138,-1.9754,-2.0584,-2.111,-2.0905,-1.9826,-2.0212,-2.1218,-2.2932,-2.4686,-2.5524,-2.5114,-2.5446,-2.5699,-2.5699,-2.5699,-2.5835,-2.6205,-2.6283,-2.6634,-2.7409,-2.792,-2.8368,-2.8777,-2.9245,-2.9611,-3.0059,-3.0137,-3.0291,-3.0632,-3.0085,-2.955,-2.9519,-2.9528,-2.9647,-2.9995,-2.98,-2.9394,-2.9402,-2.9389,-2.9369,-2.9369,-2.9369,-2.9369,-2.9389,-2.9389,-2.9272,-2.8858,-2.9078,-2.9253,-2.8923,-2.9097,-2.9369,-2.9331,-2.8379,-2.7485,-3.4363,-3.3917,-3.3176,-3.286,-3.2674,-3.1792,-3.152,-3.1626,0.0,0.0,0.0,-3.1093,-3.0797,-3.0386,-3.0613,-3.0476,-3.0058,-3.0053,-3.0082,-3.0116,-2.9964,-2.9907,-2.9907,-2.9907,-2.9907,-2.9907,-2.9907,-2.9566,-2.8903,-2.8771,-2.837,-2.7684,-2.6683,-2.6129,-2.5944,-2.5332,-2.4991,-2.4991,-2.4991,-2.4991,-2.4991,-2.4991,-2.4655,-2.3935,-2.3784,-2.3386,-2.2741,-2.1888,-2.113,-2.0467,-1.9766,-1.9376,-1.9395,-2.0058,-2.0726,-2.1396,-2.2078,-2.225,-2.1702,-2.2319,-2.2488,-2.1938,-2.3258,-2.3611,-2.2437,-2.3086,-2.3844,-2.4542,-2.5286,-2.5699,-2.5699,-2.5855,-2.5913,-2.5913,-2.605,-2.6439,-2.7024,-2.7141,-2.7472,-2.8329,-2.9007,-2.9572,-2.9727,-3.0292,-3.0799,-3.0779,-3.0721,-3.0798,-3.0791,-3.0714,-3.0625,-3.0632,-3.0567,-3.0713,-3.075,-3.0647,-3.0703,-3.0568,-3.0613,-3.069,-3.069,-3.069,-3.069,-3.0554,-3.069,-3.0341,-2.9816,-3.0108,-3.0418,-2.9758,-3.0185,-3.069,-3.0574,-2.9564,-2.8566,-3.4495,-3.4293,-3.3817,-3.3642,-3.3615,-3.3201,-3.3203,-3.3295,-3.171,-3.1206,-3.1584,-3.1347,-3.1342,-3.1464,-3.1529,-3.1629,-3.1709,-3.1016,-3.0809,-3.0985,-3.0246,-2.9907,-2.9907,-2.9907,-2.9907,-2.9907,-2.9907,-2.9832,-2.9661,-2.9036,-2.8619,-2.8354,-2.6967,-2.5868,-2.5237,-2.5053,-2.4991,-2.4991,-2.4991,-2.4991,-2.4991,-2.4991,-2.494,-2.4801,-2.4087,-2.3651,-2.3537,-2.2741,-2.2267,-2.2154,-2.204,-2.1964,-2.1964,-2.2056,-2.2201,-2.2317,-2.242,-2.2752,-2.3302,-2.3455,-2.3828,-2.448,-2.4796,-2.4903,-2.4899,-2.5152,-2.5351,-2.5371,-2.5556,-2.5699,-2.5738,-2.6303,-2.6673,-2.6751,-2.7394,-2.7896,-2.7994,-2.8037,-2.8349,-2.9201,-2.9401,-2.9844,-3.0429,-3.0701,-3.0799,-3.0799,-3.0799,-3.0793,-3.0788,-3.0797,-3.08,-3.0792,-3.0784,-3.0781,-3.073,-3.0714,-3.0697,-3.0697,-3.069,-3.069,-3.069,-3.069,-3.069,-3.069,-3.069,-3.0613,-3.0457,-3.0593,-3.0613,-3.0418,-3.0613,-3.069,-3.069,-3.036,-3.001,-3.4298,-3.4012,-3.3734,-3.3559,-3.3397,-3.3404,-3.3481,-3.3504,-3.2672,-3.2601,-3.2993,-3.279,-3.2557,-3.2344,-3.2207,-3.2108,-3.2064,-3.1547,-3.1258,-3.114,-3.0656,-3.0222,-2.9926,-2.9907,-2.9907,-2.9907,-2.9907,-2.9907,-2.9869,-2.951,-2.9339,-2.9244,-2.7706,-2.6489,-2.566,-2.5219,-2.4991,-2.4991,-2.4991,-2.4991,-2.4991,-2.4991,-2.4991,-2.4991,-2.4612,-2.4409,-2.439,-2.3594,-2.3139,-2.3139,-2.2741,-2.2495,-2.2495,-2.2904,-2.3144,-2.3176,-2.3587,-2.4015,-2.4382,-2.4403,-2.4581,-2.5019,-2.5076,-2.513,-2.5241,-2.535,-2.5456,-2.5498,-2.5615,-2.5699,-2.5718,-2.642,-2.6887,-2.6887,-2.7686,-2.8388,-2.8812,-2.8909,-2.9245,-3.002,-3.0195,-3.0351,-3.076,-3.0799,-3.0799,-3.0799,-3.0799,-3.0789,-3.0786,-3.0801,-3.08,-3.0793,-3.0768,-3.0735,-3.0709,-3.071,-3.0698,-3.0697,-3.069,-3.069,-3.069,-3.069,-3.069,-3.069,-3.069,-3.069,-3.069,-3.069,-3.069,-3.069,-3.069,-3.069,-3.069,-3.069,-3.0554,-3.4208,-3.3839,-3.3652,-3.3433,-3.3196,-3.3334,-3.3422,-3.3509,-3.3491,-3.3753,-3.4124,-3.3921,-3.3552,-3.3178,-3.2988,-3.2784,-3.2622,-3.2251,-3.1929,-3.1728,-3.1337,-3.079,-3.0248,-3.0173,-3.0097,-2.9926,-2.9907,-2.9907,-2.9907,-2.9907,-2.9794,-2.951,-2.818,-2.7058,-2.619,-2.5394,-2.4991,-2.4991,-2.4991,-2.4991,-2.4991,-2.4991,-2.4991,-2.4991,-2.4991,-2.4991,-2.4959,-2.4352,-2.3992,-2.3973,-2.3386,-2.3063,-2.3082,-2.3645,-2.3993,-2.4062,-2.4625,-2.4991,-2.4991,-2.4999,-2.5012,-2.5006,-2.5076,-2.5113,-2.5125,-2.5168,-2.5262,-2.5432,-2.5615,-2.5753,-2.6057,-2.6723,-2.7258,-2.7472,-2.8271,-2.9085,-2.9669,-2.9786,-3.0039,-3.0682,-3.0799,-3.0779,-3.0799,-3.0799,-3.0799,-3.0799,-3.0799,-3.0799,-3.0784,-3.079,-3.0786,-3.078,-3.0739,-3.0706,-3.0709,-3.0698,-3.0697,-3.069,-3.069,-3.069,-3.069,-3.069,-3.069,-3.069,-3.069,-3.069,-3.069,-3.069,-3.069,-3.069,-3.069,-3.069,-3.069,-3.069,-3.069,-3.4473,-3.4293,-3.3895,-3.3633,-3.3364,-3.3393,-3.352,-3.3726,-3.3753,-3.3921,-3.4148,-3.3921,-3.391,-3.4061,-3.4024,-3.4093,-3.4226,-3.3508,-3.3219,-3.3298,-3.2635,-3.1839,-3.1099,-3.1061,-3.0665,-2.9983,-2.9907,-2.9907,-2.9907,-2.9907,-2.9547,-2.879,-2.7915,-2.7096,-2.6242,-2.5432,-2.501,-2.4991,-2.4991,-2.4991,-2.4991,-2.4991,-2.4991,-2.4991,-2.4991,-2.4991,-2.4991,-2.4921,-2.4864,-2.4877,-2.4782,-2.4745,-2.4745,-2.482,-2.4877,-2.4858,-2.4953,-2.4991,-2.4991,-2.4999,-2.5025,-2.507,-2.5088,-2.5125,-2.518,-2.521,-2.5236,-2.5389,-2.5589,-2.6053,-2.6654,-2.7522,-2.8344,-2.8987,-2.9844,-3.0604,-3.0585,-3.0682,-3.0721,-3.076,-3.0799,-3.0799,-3.0799,-3.0799,-3.0799,-3.0799,-3.0799,-3.0799,-3.0799,-3.0784,-3.079,-3.0775,-3.0723,-3.0701,-3.0691,-3.0697,-3.0704,-3.0697,-3.069,-3.069,-3.069,-3.069,-3.069,-3.069,-3.069,-3.069,-3.069,-3.069,-3.069,-3.069,-3.069,-3.069,-3.069,-3.069,-3.069,-3.4457,-3.4555,-3.3872,-3.3509,-3.3393,-3.3393,-3.3452,-3.3549,-3.3549,-3.3788,-3.4173,-3.4074,-3.4099,-3.4197,-3.4216,-3.434,-3.4545,-3.4054,-3.3773,-3.3658,-3.3147,-3.2317,-3.1271,-3.1176,-3.0739,-2.9964,-2.9907,-2.9907,-2.9907,-2.9907,-2.9737,-2.9358,-2.8616,-2.8029,-2.7612,-2.6361,-2.5712,-2.5712,-2.5237,-2.4991,-2.4991,-2.4991,-2.4991,-2.4991,-2.4991,-2.4991,-2.4991,-2.4991,-2.4991,-2.4991,-2.4991,-2.4991,-2.4991,-2.4991,-2.4991,-2.4991,-2.4991,-2.4991,-2.4999,-2.4999,-2.5025,-2.5082,-2.5088,-2.5113,-2.5125,-2.518,-2.5386,-2.5929,-2.6525,-2.6906,-2.6961,-2.8073,-2.9094,-2.9547,-3.0273,-3.0799,-3.0799,-3.0799,-3.0799,-3.0799,-3.0799,-3.0799,-3.0799,-3.0799,-3.0799,-3.0799,-3.0799,-3.0799,-3.0799,-3.0799,-3.0793,-3.0785,-3.078,-3.0747,-3.0712,-3.0701,-3.0709,-3.0711,-3.069,-3.069,-3.0697,-3.069,-3.069,-3.069,-3.069,-3.069,-3.069,-3.069,-3.069,-3.0697,-3.0697,-3.069,-3.069,-3.069,-3.069,-3.4768,-3.4704,-3.3837,-3.3393,-3.3393,-3.3393,-3.3393,-3.3393,-3.3393,-3.3633,-3.3991,-3.4124,-3.4216,-3.4221,-3.4321,-3.448,-3.4647,-3.4476,-3.4285,-3.4018,-3.3825,-3.309,-3.1934,-3.1629,-3.1099,-3.0341,-3.0002,-2.9907,-2.9907,-2.9907,-2.9907,-2.9775,-2.9074,-2.8676,-2.8544,-2.7252,-2.6432,-2.6148,-2.5598,-2.5251,-2.5048,-2.4991,-2.4991,-2.4991,-2.4991,-2.4991,-2.4991,-2.4991,-2.4991,-2.4991,-2.4991,-2.4991,-2.4991,-2.4991,-2.4991,-2.4991,-2.4991,-2.4991,-2.4993,-2.4993,-2.5006,-2.5095,-2.5088,-2.5113,-2.5125,-2.5168,-2.5573,-2.6357,-2.7587,-2.8134,-2.7686,-2.8582,-2.9401,-2.9757,-3.0417,-3.0739,-3.0739,-3.0769,-3.0799,-3.0799,-3.0799,-3.0799,-3.0799,-3.0799,-3.0799,-3.0799,-3.0799,-3.0799,-3.0799,-3.0799,-3.0784,-3.0793,-3.0785,-3.0797,-3.0743,-3.0707,-3.0704,-3.072,-3.0722,-3.0697,-3.0698,-3.0711,-3.069,-3.069,-3.069,-3.0711,-3.071,-3.0704,-3.0716,-3.0722,-3.0716,-3.0704,-3.071,-3.0691,-3.0697,-3.5669,-3.4879,-3.3837,-3.3447,-3.3393,-3.3393,-3.3393,-3.3393,-3.3393,-3.3441,-3.3559,-3.3998,-3.4197,-3.4269,-3.4651,-3.487,-3.4889,-3.485,-3.4832,-3.4775,-3.4775,-3.4358,-3.3562,-3.2747,-3.1895,-3.1004,-3.0246,-2.9907,-2.9907,-2.9907,-2.9907,-2.9851,-2.9131,-2.8733,-2.8657,-2.7896,-2.7039,-2.6451,-2.6157,-2.5772,-2.5124,-2.5029,-2.4991,-2.4991,-2.4991,-2.4991,-2.4991,-2.4991,-2.4991,-2.4991,-2.4991,-2.4991,-2.4991,-2.4991,-2.4991,-2.4991,-2.4991,-2.5004,-2.5012,-2.4993,-2.5019,-2.5088,-2.5082,-2.5125,-2.5168,-2.521,-2.5593,-2.6364,-2.858,-2.9615,-2.9055,-2.9159,-2.9631,-3.0277,-3.0517,-3.0613,-3.062,-3.0709,-3.0779,-3.0799,-3.0799,-3.0799,-3.0799,-3.0799,-3.0799,-3.0799,-3.0799,-3.0799,-3.0799,-3.0799,-3.0804,-3.0804,-3.0793,-3.0801,-3.0801,-3.0758,-3.0749,-3.0746,-3.0724,-3.0715,-3.0711,-3.0703,-3.0704,-3.0704,-3.0724,-3.0722,-3.0706,-3.0706,-3.0739,-3.0743,-3.0735,-3.0726,-3.0721,-3.071,-3.0698,-3.5937,-3.5448,-3.4528,-3.4172,-3.4117,-3.3628,-3.3393,-3.3393,-3.3393,-3.3605,-3.3895,-3.4124,-3.4386,-3.467,-3.4812,-3.4908,-3.4908,-3.4908,-3.4908,-3.4908,-3.4908,-3.4472,-3.3676,-3.2804,-3.1989,-3.1174,-3.0305,-2.9907,-2.9907,-2.9907,-2.9907,-2.9853,-2.9487,-2.9336,-2.9288,-2.8542,-2.7959,-2.7691,-2.6792,-2.6048,-2.573,-2.5275,-2.4991,-2.4991,-2.4991,-2.4991,-2.4991,-2.4991,-2.4991,-2.4991,-2.4991,-2.4991,-2.4991,-2.4991,-2.4991,-2.4991,-2.4991,-2.5004,-2.5057,-2.5025,-2.5019,-2.5082,-2.5094,-2.5132,-2.5125,-2.5206,-2.5765,-2.7224,-2.8981,-2.9978,-2.9922,-2.9879,-3.0055,-3.0395,-3.0509,-3.0552,-3.0605,-3.0639,-3.0703,-3.0769,-3.0799,-3.0799,-3.0799,-3.0799,-3.0799,-3.0799,-3.0799,-3.0799,-3.0799,-3.0799,-3.0799,-3.0799,-3.0804,-3.0782,-3.0786,-3.0778,-3.0762,-3.0718,-3.0706,-3.0723,-3.0732,-3.0746,-3.0755,-3.0759,-3.0754,-3.0759,-3.0746,-3.0752,-3.078,-3.078,-3.0752,-3.0749,-3.0765,-3.0739,-3.074,-3.6334,-3.6019,-3.5041,-3.4624,-3.4498,-3.3737,-3.3393,-3.3393,-3.3393,-3.3605,-3.3939,-3.4023,-3.4298,-3.463,-3.4771,-3.4831,-3.4908,-3.4908,-3.4908,-3.4908,-3.4908,-3.4605,-3.4036,-3.324,-3.2539,-3.1895,-3.0817,-3.0305,-3.0267,-3.0021,-2.9907,-2.9888,-2.9698,-2.9698,-2.9744,-2.9152,-2.8794,-2.8474,-2.7555,-2.6797,-2.6242,-2.5674,-2.5256,-2.5048,-2.4991,-2.4991,-2.4991,-2.4991,-2.4991,-2.4991,-2.4991,-2.4991,-2.4991,-2.4991,-2.4991,-2.4991,-2.4991,-2.505,-2.5089,-2.5051,-2.5063,-2.5125,-2.5125,-2.5201,-2.5468,-2.5645,-2.6498,-2.795,-2.9306,-3.0204,-3.0199,-3.0228,-3.0328,-3.0389,-3.0422,-3.0472,-3.054,-3.0579,-3.0665,-3.0769,-3.0799,-3.0799,-3.0799,-3.0799,-3.0799,-3.0799,-3.0799,-3.0799,-3.0799,-3.0799,-3.0799,-3.0799,-3.0799,-3.0793,-3.0798,-3.0791,-3.0767,-3.074,-3.0742,-3.0761,-3.0779,-3.0779,-3.0795,-3.079,-3.0788,-3.079,-3.0793,-3.0796,-3.0797,-3.0797,-3.0795,-3.0772,-3.0788,-3.0784,-3.0771,-3.7029,-3.6779,-3.5313,-3.4787,-3.4715,-3.39,-3.3429,-3.3502,-3.3411,-3.3452,-3.3577,-3.3726,-3.403,-3.4269,-3.4583,-3.473,-3.4889,-3.4908,-3.4908,-3.4908,-3.4908,-3.4889,-3.4756,-3.3941,-3.3486,-3.324,-3.1895,-3.1156,-3.1042,-3.0305,-2.9888,-2.9855,-2.9662,-2.9644,-2.9891,-2.9532,-2.923,-2.882,-2.8528,-2.7805,-2.6456,-2.628,-2.5882,-2.5181,-2.5105,-2.5086,-2.501,-2.4991,-2.4991,-2.4991,-2.4991,-2.4991,-2.4991,-2.4991,-2.4991,-2.4991,-2.4999,-2.5044,-2.507,-2.5076,-2.5101,-2.5187,-2.5249,-2.56,-2.6135,-2.6612,-2.7377,-2.8586,-2.9593,-3.0204,-3.0204,-3.0218,-3.0213,-3.0232,-3.0279,-3.0378,-3.0472,-3.0568,-3.0659,-3.0769,-3.0799,-3.0799,-3.0799,-3.0799,-3.0799,-3.0799,-3.0799,-3.0799,-3.0799,-3.0799,-3.0799,-3.0799,-3.0799,-3.0789,-3.0784,-3.0784,-3.0794,-3.0794,-3.0784,-3.0792,-3.0776,-3.0798,-3.08,-3.0801,-3.0801,-3.0801,-3.0801,-3.08,-3.0797,-3.0797,-3.08,-3.0801,-3.0801,-3.08,-3.0793,-3.8004,-3.7736,-3.6689,-3.6236,-3.6055,-3.4806,-3.4244,-3.4154,-3.3665,-3.3491,-3.3698,-3.3947,-3.4221,-3.4476,-3.4691,-3.4831,-3.4889,-3.4908,-3.4908,-3.4908,-3.4908,-3.4908,-3.4756,-3.4093,-3.3373,-3.2728,-3.1743,-3.1212,-3.108,-3.0341,-2.9839,-2.9681,-2.9494,-2.9435,-2.9494,-2.9293,-2.9167,-2.925,-2.8758,-2.828,-2.7862,-2.7365,-2.6698,-2.5925,-2.5844,-2.5598,-2.5034,-2.4991,-2.4991,-2.4991,-2.4991,-2.4991,-2.4991,-2.4991,-2.4991,-2.4991,-2.4991,-2.4999,-2.5025,-2.5019,-2.5076,-2.5208,-2.5652,-2.6084,-2.6479,-2.7358,-2.8147,-2.8911,-2.9688,-3.0204,-3.0204,-3.0204,-3.0204,-3.0204,-3.0226,-3.0279,-3.037,-3.0507,-3.0659,-3.0769,-3.0799,-3.0799,-3.0799,-3.0799,-3.0799,-3.0799,-3.0799,-3.0799,-3.0799,-3.0799,-3.0799,-3.0799,-3.0799,-3.0799,-3.0799,-3.0799,-3.0793,-3.079,-3.0798,-3.0788,-3.0794,-3.0799,-3.0786,-3.079,-3.079,-3.0792,-3.079,-3.0788,-3.0801,-3.0801,-3.0792,-3.0793,-3.0792,-3.0798,-3.0801,-3.851,-3.8296,-3.7637,-3.7077,-3.6583,-3.5278,-3.4527,-3.4117,-3.3628,-3.3567,-3.3788,-3.3972,-3.4269,-3.4561,-3.473,-3.4812,-3.4908,-3.4908,-3.4908,-3.4908,-3.4908,-3.4908,-3.4851,-3.4415,-3.3903,-3.3278,-3.252,-3.1951,-3.161,-3.0798,-3.0126,-2.9664,-2.9415,-2.9314,-2.9272,-2.9101,-2.9166,-2.9361,-2.8989,-2.8688,-2.8508,-2.8086,-2.7324,-2.638,-2.6171,-2.5773,-2.5086,-2.4991,-2.4991,-2.4991,-2.4991,-2.4991,-2.4991,-2.4991,-2.4991,-2.4991,-2.4991,-2.4985,-2.4999,-2.5025,-2.5051,-2.5215,-2.5609,-2.6251,-2.681,-2.7835,-2.8427,-2.9344,-2.9879,-3.0204,-3.0204,-3.0204,-3.0204,-3.0204,-3.0204,-3.0234,-3.0314,-3.049,-3.0613,-3.0697,-3.0764,-3.0799,-3.0799,-3.0799,-3.0799,-3.0799,-3.0799,-3.0799,-3.0799,-3.0799,-3.0799,-3.0799,-3.0799,-3.0799,-3.0799,-3.0799,-3.0799,-3.0784,-3.0789,-3.0798,-3.0786,-3.0786,-3.0794,-3.0788,-3.0791,-3.0799,-3.0799,-3.0801,-3.0796,-3.0799,-3.0799,-3.0784,-3.0786,-3.0786,-3.0793,-3.8646,-3.8566,-3.8053,-3.7248,-3.6285,-3.5339,-3.4465,-3.3669,-3.3411,-3.3549,-3.378,-3.3868,-3.4099,-3.4473,-3.4583,-3.471,-3.485,-3.487,-3.4889,-3.4908,-3.4908,-3.4908,-3.487,-3.4794,-3.4624,-3.4396,-3.3733,-3.2994,-3.2046,-3.1216,-3.0598,-2.9626,-2.9336,-2.9251,-2.9166,-2.9071,-2.9071,-2.9233,-2.9217,-2.8947,-2.8539,-2.8519,-2.778,-2.6408,-2.6342,-2.5958,-2.5143,-2.4991,-2.4991,-2.4991,-2.4991,-2.4991,-2.4991,-2.4991,-2.4991,-2.4991,-2.4999,-2.4985,-2.5004,-2.505,-2.5082,-2.5107,-2.5482,-2.5888,-2.7345,-2.8026,-2.8752,-2.9898,-3.0166,-3.0204,-3.0204,-3.0204,-3.0204,-3.0204,-3.0204,-3.0234,-3.0321,-3.0461,-3.0591,-3.0651,-3.0736,-3.0799,-3.0799,-3.0799,-3.0799,-3.0799,-3.0799,-3.0799,-3.0799,-3.0799,-3.0799,-3.0799,-3.0799,-3.0799,-3.0799,-3.0799,-3.0799,-3.0799,-3.0799,-3.0804,-3.0784,-3.0784,-3.0789,-3.0802,-3.079,-3.0801,-3.0788,-3.0791,-3.0794,-3.0796,-3.0799,-3.0799,-3.0801,-3.0801,-3.0801,-3.9109,-3.8793,-3.7921,-3.7364,-3.6842,-3.541,-3.4681,-3.4465,-3.3717,-3.3577,-3.3807,-3.4023,-3.4049,-3.4092,-3.445,-3.4626,-3.4668,-3.4689,-3.4771,-3.4889,-3.4908,-3.4908,-3.4908,-3.4889,-3.4605,-3.4036,-3.3298,-3.233,-3.1498,-3.0656,-2.9889,-2.9394,-2.9209,-2.8984,-2.8815,-2.8743,-2.8839,-2.903,-2.9075,-2.9092,-2.9096,-2.9177,-2.8462,-2.7067,-2.704,-2.638,-2.5181,-2.4991,-2.4991,-2.4991,-2.4991,-2.4991,-2.4991,-2.4991,-2.4991,-2.4991,-2.4991,-2.4991,-2.4991,-2.5004,-2.5044,-2.5216,-2.6098,-2.7134,-2.7631,-2.8848,-2.9631,-3.0204,-3.0204,-3.0204,-3.0204,-3.0204,-3.0204,-3.0204,-3.0204,-3.0221,-3.0309,-3.0433,-3.0579,-3.0736,-3.0784,-3.0799,-3.0799,-3.0799,-3.0799,-3.0799,-3.0799,-3.0799,-3.0799,-3.0799,-3.0799,-3.0799,-3.0799,-3.0799,-3.0799,-3.0799,-3.0799,-3.0799,-3.0799,-3.0799,-3.0804,-3.0804,-3.0789,-3.0802,-3.0802,-3.079,-3.0798,-3.0801,-3.0788,-3.0794,-3.0796,-3.0796,-3.0799,-3.0801,-3.0801,-3.9364,-3.916,-3.8305,-3.7668,-3.7071,-3.5688,-3.488,-3.444,-3.388,-3.3643,-3.3834,-3.3947,-3.3998,-3.4005,-3.4427,-3.4602,-3.4604,-3.4689,-3.4751,-3.473,-3.4649,-3.4711,-3.4812,-3.4831,-3.4546,-3.415,-3.3204,-3.2392,-3.16,-3.0676,-2.9964,-2.939,-2.9185,-2.8984,-2.8815,-2.8637,-2.8644,-2.8791,-2.8839,-2.8938,-2.9185,-2.9375,-2.8596,-2.7469,-2.7311,-2.6716,-2.5256,-2.4991,-2.4991,-2.4991,-2.4991,-2.4991,-2.4991,-2.4991,-2.4991,-2.4991,-2.4991,-2.4991,-2.4991,-2.4991,-2.5031,-2.5292,-2.639,-2.7191,-2.7803,-2.8943,-2.9707,-3.0147,-3.0185,-3.0204,-3.0204,-3.0204,-3.0204,-3.0204,-3.0204,-3.0207,-3.0267,-3.0392,-3.0557,-3.0671,-3.0748,-3.0799,-3.0799,-3.0799,-3.0799,-3.0799,-3.0799,-3.0799,-3.0799,-3.0799,-3.0799,-3.0799,-3.0799,-3.0799,-3.0799,-3.0799,-3.0799,-3.0799,-3.0799,-3.0799,-3.0799,-3.0799,-3.0784,-3.0793,-3.0793,-3.0798,-3.0786,-3.0794,-3.0798,-3.0785,-3.0788,-3.0794,-3.0796,-3.0799,-3.0799,-3.9419,-3.9368,-3.8685,-3.7791,-3.6756,-3.5968,-3.4872,-3.397,-3.3798,-3.378,-3.3807,-3.3807,-3.3895,-3.4124,-3.4269,-3.4514,-3.4495,-3.4567,-3.4626,-3.4539,-3.4431,-3.448,-3.4711,-3.4607,-3.4459,-3.4221,-3.3573,-3.261,-3.1673,-3.111,-3.034,-2.9463,-2.923,-2.9123,-2.8887,-2.8712,-2.8612,-2.8612,-2.8637,-2.8743,-2.8938,-2.9107,-2.859,-2.7567,-2.7141,-2.6626,-2.5541,-2.5086,-2.4991,-2.4991,-2.4991,-2.4991,-2.4991,-2.4991,-2.4991,-2.4991,-2.4991,-2.4991,-2.4991,-2.4999,-2.5025,-2.5254,-2.6015,-2.6817,-2.7727,-2.8695,-2.9593,-3.0147,-3.0204,-3.0204,-3.0204,-3.0204,-3.0204,-3.0204,-3.0204,-3.0204,-3.024,-3.0356,-3.0492,-3.051,-3.0672,-3.0745,-3.0799,-3.0799,-3.0799,-3.0799,-3.0799,-3.0799,-3.0799,-3.0799,-3.0799,-3.0799,-3.0799,-3.0799,-3.0799,-3.0799,-3.0799,-3.0799,-3.0799,-3.0799,-3.0799,-3.0799,-3.0799,-3.0804,-3.0784,-3.0789,-3.0798,-3.0802,-3.0786,-3.0794,-3.0798,-3.0785,-3.0791,-3.0791,-3.0794,-3.888,-3.8707,-3.7106,-3.6152,-3.5664,-3.4889,-3.429,-3.3834,-3.3807,-3.3834,-3.3807,-3.3807,-3.3698,-3.3605,-3.3895,-3.3972,-3.4023,-3.408,-3.408,-3.4298,-3.4473,-3.4409,-3.4409,-3.4293,-3.3943,-3.3392,-3.249,-3.1644,-3.0903,-3.0217,-2.9518,-2.9175,-2.9075,-2.8938,-2.8737,-2.8662,-2.8587,-2.8587,-2.8587,-2.8637,-2.8718,-2.8943,-2.8706,-2.7811,-2.704,-2.6399,-2.5939,-2.5332,-2.501,-2.4991,-2.4991,-2.4991,-2.4991,-2.4991,-2.4991,-2.4991,-2.4991,-2.5004,-2.4993,-2.4993,-2.5057,-2.5298,-2.6448,-2.7452,-2.774,-2.9077,-2.9879,-3.0204,-3.0204,-3.0204,-3.0204,-3.0204,-3.0204,-3.0204,-3.0204,-3.0204,-3.0213,-3.0273,-3.0402,-3.0537,-3.0618,-3.0671,-3.0794,-3.0799,-3.0799,-3.0799,-3.0799,-3.0799,-3.0799,-3.0799,-3.0799,-3.0799,-3.0799,-3.0799,-3.0799,-3.0799,-3.0799,-3.0799,-3.0799,-3.0799,-3.0799,-3.0799,-3.0799,-3.0799,-3.0799,-3.0784,-3.0789,-3.0789,-3.0793,-3.0802,-3.0786,-3.0794,-3.0801,-3.0785,-3.0788,-3.8092,-3.7959,-3.6547,-3.5913,-3.5653,-3.488,-3.4321,-3.4049,-3.4016,-3.386,-3.3643,-3.3605,-3.352,-3.3441,-3.3671,-3.3807,-3.3807,-3.3807,-3.3947,-3.4124,-3.4124,-3.4023,-3.3998,-3.3847,-3.3453,-3.2839,-3.1977,-3.1117,-3.0368,-2.9675,-2.9265,-2.9026,-2.9003,-2.8938,-2.8785,-2.8662,-2.8612,-2.8587,-2.8587,-2.8587,-2.8637,-2.8943,-2.8903,-2.8296,-2.7368,-2.666,-2.6167,-2.5844,-2.5375,-2.5105,-2.501,-2.501,-2.4991,-2.4991,-2.4991,-2.4991,-2.4991,-2.4985,-2.4993,-2.5057,-2.5254,-2.5685,-2.6918,-2.7695,-2.8357,-2.9497,-3.0089,-3.0204,-3.0204,-3.0204,-3.0204,-3.0204,-3.0204,-3.0204,-3.0204,-3.0204,-3.0213,-3.0267,-3.0321,-3.0423,-3.0507,-3.0598,-3.0685,-3.0753,-3.0799,-3.0799,-3.0799,-3.0799,-3.0799,-3.0799,-3.0799,-3.0799,-3.0799,-3.0799,-3.0799,-3.0799,-3.0799,-3.0799,-3.0799,-3.0799,-3.0799,-3.0799,-3.0799,-3.0799,-3.0799,-3.0799,-3.0784,-3.0799,-3.0799,-3.0789,-3.0798,-3.0782,-3.079,-3.0794,-3.0801,-3.7201,-3.7144,-3.6329,-3.5968,-3.5854,-3.5172,-3.4588,-3.4173,-3.4197,-3.3913,-3.3462,-3.3393,-3.3404,-3.3433,-3.3605,-3.3726,-3.3753,-3.3807,-3.3921,-3.3921,-3.3753,-3.3698,-3.3662,-3.335,-3.2912,-3.2606,-3.1728,-3.0876,-3.016,-2.9566,-2.9115,-2.898,-2.898,-2.8934,-2.8881,-2.8737,-2.8587,-2.8587,-2.8587,-2.8587,-2.8637,-2.8943,-2.8903,-2.8723,-2.8048,-2.7392,-2.6896,-2.6531,-2.6058,-2.5262,-2.52,-2.5124,-2.501,-2.4991,-2.4991,-2.4991,-2.4991,-2.5018,-2.5019,-2.512,-2.5438,-2.6327,-2.7192,-2.8032,-2.8815,-2.9593,-3.0089,-3.0204,-3.0204,-3.0204,-3.0204,-3.0204,-3.0204,-3.0204,-3.0204,-3.0204,-3.0232,-3.0273,-3.0267,-3.0292,-3.0393,-3.0507,-3.0618,-3.0704,-3.0759,-3.0799,-3.0799,-3.0799,-3.0799,-3.0799,-3.0799,-3.0799,-3.0799,-3.0799,-3.0799,-3.0799,-3.0799,-3.0799,-3.0799,-3.0799,-3.0799,-3.0799,-3.0799,-3.0799,-3.0799,-3.0799,-3.0799,-3.0799,-3.0799,-3.0804,-3.0784,-3.0793,-3.0802,-3.0786,-3.079,-3.6386,-3.631,-3.5476,-3.5038,-3.4877,-3.4887,-3.4524,-3.3954,-3.4124,-3.3895,-3.3452,-3.3393,-3.3393,-3.3422,-3.3422,-3.3481,-3.3549,-3.3661,-3.3698,-3.3643,-3.3605,-3.3643,-3.339,-3.298,-3.221,-3.1474,-3.1074,-3.0683,-2.9879,-2.9331,-2.8929,-2.8785,-2.8863,-2.8887,-2.8737,-2.8612,-2.8587,-2.8587,-2.8587,-2.8587,-2.8637,-2.8749,-2.8956,-2.9043,-2.8575,-2.8244,-2.8074,-2.7574,-2.6906,-2.6115,-2.6015,-2.5636,-2.5181,-2.5029,-2.5067,-2.4991,-2.4991,-2.5031,-2.5076,-2.5152,-2.5577,-2.6339,-2.7281,-2.8103,-2.8911,-2.9669,-3.0128,-3.0204,-3.0204,-3.0204,-3.0204,-3.0204,-3.0204,-3.0204,-3.0204,-3.0204,-3.0218,-3.0226,-3.0247,-3.0267,-3.0348,-3.0394,-3.0507,-3.0625,-3.0691,-3.0739,-3.0774,-3.0779,-3.0799,-3.0799,-3.0799,-3.0799,-3.0799,-3.0799,-3.0799,-3.0799,-3.0799,-3.0799,-3.0799,-3.0799,-3.0799,-3.0799,-3.0799,-3.0799,-3.0799,-3.0799,-3.0799,-3.0799,-3.0799,-3.0804,-3.0784,-3.0784,-3.0789,-3.0798,-3.0798,-3.5434,-3.5495,-3.4961,-3.4751,-3.4771,-3.485,-3.4567,-3.4074,-3.4124,-3.3895,-3.352,-3.3393,-3.3393,-3.3393,-3.3393,-3.3393,-3.3433,-3.3509,-3.352,-3.3452,-3.352,-3.3549,-3.3393,-3.294,-3.2071,-3.1329,-3.0948,-3.0296,-2.9264,-2.8937,-2.8737,-2.8687,-2.8743,-2.8718,-2.8619,-2.8612,-2.8587,-2.8587,-2.8587,-2.8587,-2.8612,-2.8694,-2.8984,-2.9122,-2.9101,-2.8892,-2.8491,-2.8376,-2.7725,-2.7077,-2.6868,-2.6167,-2.556,-2.5338,-2.5465,-2.5202,-2.505,-2.5025,-2.5203,-2.5463,-2.6193,-2.702,-2.7835,-2.8676,-2.9383,-2.9975,-3.0204,-3.0204,-3.0204,-3.0204,-3.0204,-3.0204,-3.0204,-3.0204,-3.0204,-3.0204,-3.0204,-3.0204,-3.024,-3.0254,-3.0309,-3.0351,-3.0394,-3.0507,-3.0613,-3.0678,-3.0745,-3.0774,-3.0799,-3.0799,-3.0799,-3.0799,-3.0799,-3.0799,-3.0799,-3.0799,-3.0799,-3.0799,-3.0799,-3.0799,-3.0799,-3.0799,-3.0799,-3.0799,-3.0799,-3.0799,-3.0799,-3.0799,-3.0799,-3.0799,-3.0804,-3.0804,-3.0804,-3.0804,-3.0784,-3.4649,-3.4752,-3.4647,-3.4689,-3.4831,-3.4831,-3.4588,-3.4245,-3.4124,-3.3842,-3.3452,-3.3393,-3.3393,-3.3393,-3.3393,-3.3393,-3.3393,-3.3393,-3.3393,-3.3393,-3.3422,-3.3393,-3.3357,-3.2886,-3.2107,-3.1111,-3.0351,-2.988,-2.8956,-2.8656,-2.8612,-2.8612,-2.8612,-2.8587,-2.8587,-2.8587,-2.8587,-2.8587,-2.8587,-2.8587,-2.8644,-2.8791,-2.9007,-2.923,-2.9416,-2.9195,-2.8818,-2.8879,-2.8506,-2.7972,-2.7612,-2.7134,-2.6034,-2.6015,-2.6043,-2.5748,-2.533,-2.5076,-2.5291,-2.5895,-2.6632,-2.7491,-2.8376,-2.9249,-2.9898,-3.0128,-3.0204,-3.0204,-3.0204,-3.0204,-3.0204,-3.0204,-3.0204,-3.0204,-3.0204,-3.0204,-3.0204,-3.0204,-3.0204,-3.024,-3.0267,-3.029,-3.0351,-3.0384,-3.0498,-3.0626,-3.0678,-3.0764,-3.0769,-3.0799,-3.0799,-3.0799,-3.0799,-3.0799,-3.0799,-3.0799,-3.0799,-3.0799,-3.0799,-3.0799,-3.0799,-3.0799,-3.0799,-3.0799,-3.0799,-3.0799,-3.0799,-3.0799,-3.0799,-3.0799,-3.0799,-3.0799,-3.0799,-3.0799,-3.0804,-3.4473,-3.4316,-3.4517,-3.4604,-3.4626,-3.4626,-3.4454,-3.4197,-3.3947,-3.3689,-3.3393,-3.3393,-3.3393,-3.3393,-3.3393,-3.3393,-3.3393,-3.3393,-3.3393,-3.3393,-3.3393,-3.3339,-3.3121,-3.1836,-3.1492,-3.0731,-2.9644,-2.892,-2.8605,-2.8587,-2.8587,-2.8587,-2.8587,-2.8587,-2.8587,-2.8587,-2.8587,-2.8587,-2.8587,-2.8587,-2.8612,-2.8662,-2.8815,-2.9007,-2.9191,-2.9341,-2.9289,-2.9413,-2.9247,-2.8692,-2.8559,-2.8366,-2.7861,-2.6754,-2.7127,-2.7052,-2.6416,-2.5043,-2.5399,-2.6212,-2.6988,-2.7841,-2.8548,-2.9325,-2.9937,-3.0204,-3.0204,-3.0204,-3.0204,-3.0204,-3.0204,-3.0204,-3.0204,-3.0204,-3.0204,-3.0204,-3.0204,-3.0204,-3.0204,-3.0204,-3.0234,-3.0267,-3.029,-3.0329,-3.0393,-3.0524,-3.0626,-3.0697,-3.0753,-3.0739,-3.0799,-3.0799,-3.0799,-3.0799,-3.0799,-3.0799,-3.0799,-3.0799,-3.0799,-3.0799,-3.0799,-3.0799,-3.0799,-3.0799,-3.0799,-3.0799,-3.0799,-3.0799,-3.0799,-3.0799,-3.0799,-3.0799,-3.0799,-3.0799,-3.0799,-3.4517,-3.4409,-3.4404,-3.4381,-3.4363,-3.4381,-3.4221,-3.3998,-3.3842,-3.3643,-3.3404,-3.3393,-3.3393,-3.3393,-3.3393,-3.3393,-3.3393,-3.3393,-3.3393,-3.3393,-3.3357,-3.3176,-3.2651,-3.1981,-3.1401,-3.0314,-2.9663,-2.9137,-2.8786,-2.8587,-2.8587,-2.8587,-2.8587,-2.8587,-2.8587,-2.8587,-2.8587,-2.8587,-2.8587,-2.8587,-2.8587,-2.8612,-2.8662,-2.8767,-2.9007,-2.9249,-2.9435,-2.9607,-2.9672,-2.9344,-2.9377,-2.909,-2.8495,-2.7618,-2.7319,-2.7573,-2.6597,-2.6083,-2.6607,-2.7332,-2.786,-2.8376,-2.9096,-2.9822,-3.0147,-3.0204,-3.0204,-3.0204,-3.0204,-3.0204,-3.0204,-3.0204,-3.0204,-3.0204,-3.0204,-3.0204,-3.0204,-3.0204,-3.0204,-3.0204,-3.0218,-3.0234,-3.0267,-3.0278,-3.0306,-3.0404,-3.0498,-3.0579,-3.0618,-3.0639,-3.0703,-3.0799,-3.0799,-3.0799,-3.0799,-3.0799,-3.0799,-3.0799,-3.0799,-3.0799,-3.0799,-3.0799,-3.0799,-3.0799,-3.0799,-3.0799,-3.0799,-3.0799,-3.0799,-3.0799,-3.0799,-3.0799,-3.0799,-3.0799,-3.0799,-3.4495,-3.4473,-3.4269,-3.4173,-3.4099,-3.4099,-3.3998,-3.3834,-3.3726,-3.3577,-3.3452,-3.3393,-3.3393,-3.3393,-3.3393,-3.3393,-3.3393,-3.3393,-3.3393,-3.3393,-3.3321,-3.3085,-3.2614,-3.2144,-3.122,-3.0051,-2.9518,-2.9083,-2.8732,-2.8587,-2.8587,-2.8587,-2.8587,-2.8587,-2.8587,-2.8587,-2.8587,-2.8587,-2.8587,-2.8587,-2.8587,-2.8587,-2.8587,-2.8669,-2.8863,-2.9097,-2.9293,-2.9494,-2.968,-2.9817,-2.9832,-2.9545,-2.903,-2.8332,-2.8093,-2.8184,-2.7538,-2.7476,-2.803,-2.8605,-2.8872,-2.9159,-2.9631,-3.0109,-3.0166,-3.0204,-3.0204,-3.0204,-3.0204,-3.0204,-3.0204,-3.0204,-3.0204,-3.0204,-3.0204,-3.0204,-3.0204,-3.0204,-3.0204,-3.0204,-3.0204,-3.0204,-3.0221,-3.0254,-3.0266,-3.0294,-3.037,-3.0462,-3.0519,-3.0552,-3.0625,-3.0716,-3.0734,-3.0739,-3.0799,-3.0799,-3.0799,-3.0799,-3.0799,-3.0799,-3.0799,-3.0799,-3.0799,-3.0799,-3.0799,-3.0799,-3.0799,-3.0799,-3.0799,-3.0799,-3.0799,-3.0799,-3.0799,-3.0799,-3.0799,-3.4221,-3.4221,-3.4197,-3.4049,-3.3815,-3.3834,-3.3834,-3.3753,-3.352,-3.3452,-3.3393,-3.3393,-3.3393,-3.3393,-3.3393,-3.3393,-3.3393,-3.3393,-3.3393,-3.3393,-3.3357,-3.3121,-3.2542,-3.1691,-3.0912,-3.0405,-2.9518,-2.883,-2.863,-2.8587,-2.8587,-2.8587,-2.8587,-2.8587,-2.8587,-2.8587,-2.8587,-2.8587,-2.8587,-2.8587,-2.8587,-2.8587,-2.8587,-2.8662,-2.8839,-2.9075,-2.9275,-2.9456,-2.9681,-2.9891,-2.9907,-2.9905,-2.9542,-2.8866,-2.8761,-2.9121,-2.8669,-2.8703,-2.9294,-2.9241,-2.8973,-2.9178,-2.9631,-3.0204,-3.0204,-3.0204,-3.0204,-3.0204,-3.0204,-3.0204,-3.0204,-3.0204,-3.0204,-3.0204,-3.0204,-3.0204,-3.0204,-3.0204,-3.0204,-3.0204,-3.0204,-3.0204,-3.0204,-3.0221,-3.0241,-3.026,-3.0266,-3.0356,-3.0442,-3.0482,-3.0543,-3.0591,-3.062,-3.0691,-3.0769,-3.0794,-3.0799,-3.0799,-3.0799,-3.0799,-3.0799,-3.0799,-3.0799,-3.0799,-3.0799,-3.0799,-3.0799,-3.0799,-3.0799,-3.0799,-3.0799,-3.0799,-3.0799,-3.0799,-3.0799,-3.3998,-3.3726,-3.3868,-3.3788,-3.3567,-3.3549,-3.3549,-3.352,-3.3452,-3.3393,-3.3393,-3.3393,-3.3393,-3.3393,-3.3393,-3.3393,-3.3393,-3.3393,-3.3393,-3.3176,-3.2977,-3.2415,-3.1727,-3.0985,-2.9989,-2.959,-2.884,-2.8587,-2.8587,-2.8587,-2.8587,-2.8587,-2.8587,-2.8587,-2.8587,-2.8587,-2.8587,-2.8587,-2.8587,-2.8587,-2.8587,-2.8587,-2.8587,-2.8612,-2.8662,-2.8962,-2.9251,-2.9375,-2.9608,-2.9822,-2.9907,-2.9924,-2.9861,-2.9188,-2.9311,-2.9844,-2.9258,-2.9379,-2.9899,-2.9832,-2.9713,-2.9713,-3.0013,-3.0204,-3.0204,-3.0204,-3.0204,-3.0204,-3.0204,-3.0204,-3.0204,-3.0204,-3.0204,-3.0204,-3.0204,-3.0204,-3.0204,-3.0204,-3.0204,-3.0204,-3.0204,-3.0204,-3.0204,-3.0218,-3.0226,-3.0215,-3.0241,-3.0248,-3.0344,-3.0411,-3.0453,-3.0518,-3.0552,-3.0586,-3.0697,-3.0739,-3.0779,-3.0799,-3.0799,-3.0799,-3.0799,-3.0799,-3.0799,-3.0799,-3.0799,-3.0799,-3.0799,-3.0799,-3.0799,-3.0799,-3.0799,-3.0799,-3.0799,-3.0799,-3.0799,-3.3788,-3.352,-3.3615,-3.3577,-3.3393,-3.3393,-3.3393,-3.3393,-3.3393,-3.3393,-3.3393,-3.3393,-3.3393,-3.3393,-3.3393,-3.3393,-3.3393,-3.3393,-3.3393,-3.3121,-3.2614,-3.1908,-3.1166,-3.0405,-2.9681,-2.8993,-2.8641,-2.8587,-2.8587,-2.8587,-2.8587,-2.8587,-2.8587,-2.8587,-2.8587,-2.8587,-2.8587,-2.8587,-2.8587,-2.8587,-2.8587,-2.8587,-2.8587,-2.8587,-2.8612,-2.8868,-2.9166,-2.9355,-2.9532,-2.977,-2.9907,-2.9905,-2.975,-2.9596,-2.9554,-2.9623,-2.9654,-2.9527,-2.9913,-3.0147,-3.0185,-3.0109,-3.0147,-3.0204,-3.0204,-3.0204,-3.0204,-3.0204,-3.0204,-3.0204,-3.0204,-3.0204,-3.0204,-3.0204,-3.0204,-3.0204,-3.0204,-3.0204,-3.0204,-3.0204,-3.0204,-3.0204,-3.0204,-3.0204,-3.0218,-3.0213,-3.0226,-3.0221,-3.0241,-3.0316,-3.0344,-3.0402,-3.0482,-3.0532,-3.0593,-3.0703,-3.0799,-3.0799,-3.0799,-3.0799,-3.0799,-3.0799,-3.0799,-3.0799,-3.0799,-3.0799,-3.0799,-3.0799,-3.0799,-3.0799,-3.0799,-3.0799,-3.0799,-3.0799,-3.0799,-3.3577,-3.3753,-3.352,-3.3422,-3.3393,-3.3393,-3.3393,-3.3393,-3.3393,-3.3393,-3.3393,-3.3393,-3.3393,-3.3393,-3.3393,-3.3393,-3.3393,-3.3393,-3.3321,-3.3049,-3.2343,-3.2107,-3.1383,-3.0441,-2.9463,-2.9536,-2.9047,-2.8587,-2.8587,-2.8587,-2.8587,-2.8587,-2.8587,-2.8587,-2.8587,-2.8587,-2.8587,-2.8587,-2.8587,-2.8587,-2.8587,-2.8587,-2.8587,-2.8587,-2.8662,-2.8892,-2.9188,-2.9355,-2.9551,-2.9822,-2.9924,-2.994,-2.9915,-2.9912,-2.9927,-3.0,-3.0041,-3.0037,-3.0094,-3.0157,-3.0204,-3.0204,-3.0204,-3.0204,-3.0204,-3.0204,-3.0204,-3.0204,-3.0204,-3.0204,-3.0204,-3.0204,-3.0204,-3.0204,-3.0204,-3.0204,-3.0204,-3.0204,-3.0204,-3.0204,-3.0204,-3.0204,-3.0204,-3.0204,-3.0204,-3.0218,-3.0204,-3.0218,-3.0213,-3.0234,-3.0286,-3.0321,-3.0392,-3.0463,-3.0524,-3.0697,-3.0799,-3.0799,-3.0799,-3.0799,-3.0799,-3.0799,-3.0799,-3.0799,-3.0799,-3.0799,-3.0799,-3.0799,-3.0799,-3.0799,-3.0799,-3.0799,-3.0799,-3.0799,-3.0799,-3.3452,-3.352,-3.3422,-3.3393,-3.3393,-3.3393,-3.3393,-3.3393,-3.3393,-3.3393,-3.3393,-3.3393,-3.3393,-3.3393,-3.3339,-3.3321,-3.3321,-3.3375,-3.3284,-3.2506,-3.1763,-3.1075,-3.0441,-2.9789,-2.9083,-2.8956,-2.8641,-2.8587,-2.8587,-2.8587,-2.8587,-2.8587,-2.8587,-2.8587,-2.8587,-2.8587,-2.8587,-2.8587,-2.8587,-2.8587,-2.8587,-2.8587,-2.8587,-2.8587,-2.8718,-2.8962,-2.9272,-2.9375,-2.9608,-2.9855,-2.994,-2.9972,-3.0003,-3.0038,-3.0083,-3.0117,-3.0128,-3.0171,-3.0157,-3.0185,-3.0204,-3.0204,-3.0204,-3.0204,-3.0204,-3.0204,-3.0204,-3.0204,-3.0204,-3.0204,-3.0204,-3.0204,-3.0204,-3.0204,-3.0204,-3.0204,-3.0204,-3.0204,-3.0204,-3.0204,-3.0204,-3.0204,-3.0204,-3.0204,-3.0204,-3.0204,-3.0204,-3.0204,-3.0218,-3.0218,-3.0226,-3.0273,-3.0309,-3.0378,-3.0463,-3.0603,-3.0685,-3.0685,-3.0734,-3.0799,-3.0799,-3.0774,-3.0799,-3.0799,-3.0799,-3.0799,-3.0799,-3.0799,-3.0799,-3.0799,-3.0799,-3.0799,-3.0799,-3.0799,-3.0799,-3.3393,-3.3393,-3.3393,-3.3393,-3.3393,-3.3393,-3.3393,-3.3393,-3.3393,-3.3393,-3.3393,-3.3393,-3.3194,-3.3049,-3.2977,-3.2723,-3.2614,-3.2542,-3.2451,-3.1673,-3.0948,-3.0387,-2.9735,-2.9029,-2.8775,-2.8587,-2.8587,-2.8587,-2.8587,-2.8587,-2.8587,-2.8587,-2.8587,-2.8587,-2.8587,-2.8587,-2.8587,-2.8587,-2.8587,-2.8587,-2.8587,-2.8587,-2.8587,-2.8637,-2.8767,-2.8984,-2.923,-2.9455,-2.9607,-2.9839,-2.9956,-3.0003,-3.0019,-3.0064,-3.0109,-3.0142,-3.0157,-3.0185,-3.0204,-3.0204,-3.0204,-3.0204,-3.0204,-3.0204,-3.0204,-3.0204,-3.0204,-3.0204,-3.0204,-3.0204,-3.0204,-3.0204,-3.0204,-3.0204,-3.0204,-3.0204,-3.0204,-3.0204,-3.0204,-3.0204,-3.0204,-3.0204,-3.0204,-3.0204,-3.0204,-3.0204,-3.0204,-3.0204,-3.0204,-3.0204,-3.0204,-3.024,-3.026,-3.0316,-3.0389,-3.0501,-3.0563,-3.0568,-3.0639,-3.0734,-3.0745,-3.0739,-3.0769,-3.0799,-3.0799,-3.0799,-3.0799,-3.0799,-3.0799,-3.0799,-3.0799,-3.0799,-3.0799,-3.0799,-3.0799,-3.3321,-3.3375,-3.3339,-3.3284,-3.3321,-3.3176,-3.323,-3.3375,-3.3393,-3.3357,-3.3321,-3.3248,-3.285,-3.2252,-3.2162,-3.1836,-3.1383,-3.1238,-3.1093,-3.084,-3.0296,-2.9906,-2.9481,-2.8956,-2.8659,-2.8587,-2.8587,-2.8587,-2.8587,-2.8587,-2.8587,-2.8587,-2.8587,-2.8587,-2.8587,-2.8587,-2.8587,-2.8587,-2.8587,-2.8587,-2.8587,-2.8587,-2.8587,-2.8637,-2.8718,-2.8962,-2.9188,-2.9377,-2.957,-2.9805,-2.9972,-3.0038,-3.0068,-3.0094,-3.0142,-3.019,-3.0185,-3.0204,-3.0204,-3.0204,-3.0204,-3.0204,-3.0204,-3.0204,-3.0204,-3.0204,-3.0204,-3.0204,-3.0204,-3.0204,-3.0204,-3.0204,-3.0204,-3.0204,-3.0204,-3.0204,-3.0204,-3.0204,-3.0204,-3.0204,-3.0204,-3.0204,-3.0204,-3.0204,-3.0204,-3.0204,-3.0204,-3.0204,-3.0204,-3.0204,-3.0204,-3.0204,-3.024,-3.0247,-3.0328,-3.0411,-3.0462,-3.0482,-3.0552,-3.0613,-3.0652,-3.0697,-3.0739,-3.0769,-3.0779,-3.0799,-3.0799,-3.0799,-3.0799,-3.0799,-3.0799,-3.0799,-3.0799,-3.0799,-3.0799,-3.2017,-3.2469,-3.1926,-3.1999,-3.2415,-3.1926,-3.2306,-3.3321,-3.3375,-3.3121,-3.2542,-3.256,-3.2089,-3.1383,-3.1347,-3.1166,-3.1039,-3.0912,-3.0568,-3.0206,-2.9807,-2.9427,-2.9065,-2.8757,-2.8587,-2.8587,-2.8587,-2.8587,-2.8587,-2.8587,-2.8587,-2.8587,-2.8587,-2.8587,-2.8587,-2.8587,-2.8587,-2.8587,-2.8587,-2.8587,-2.8587,-2.8587,-2.8587,-2.8612,-2.8767,-2.903,-2.923,-2.9416,-2.9662,-2.9907,-3.0022,-3.0083,-3.0079,-3.0123,-3.0185,-3.0204,-3.0204,-3.0204,-3.0204,-3.0204,-3.0204,-3.0204,-3.0204,-3.0204,-3.0204,-3.0204,-3.0204,-3.0204,-3.0204,-3.0204,-3.0204,-3.0204,-3.0204,-3.0204,-3.0204,-3.0204,-3.0204,-3.0204,-3.0204,-3.0204,-3.0204,-3.0204,-3.0204,-3.0204,-3.0204,-3.0204,-3.0204,-3.0204,-3.0204,-3.0204,-3.0204,-3.0204,-3.0218,-3.0226,-3.026,-3.034,-3.0356,-3.04,-3.0443,-3.0524,-3.0583,-3.0639,-3.0697,-3.0745,-3.0779,-3.0799,-3.0799,-3.0799,-3.0799,-3.0799,-3.0799,-3.0799,-3.0799,-3.0799,-3.0799,-3.1274,-3.1618,-3.1202,-3.1274,-3.1582,-3.122,-3.16,-3.2379,-3.2469,-3.2144,-3.1745,-3.1727,-3.1292,-3.0631,-3.0522,-3.0333,-2.9989,-2.988,-2.9681,-2.9463,-2.9373,-2.9047,-2.8696,-2.8587,-2.8587,-2.8587,-2.8587,-2.8587,-2.8587,-2.8587,-2.8587,-2.8587,-2.8587,-2.8587,-2.8587,-2.8587,-2.8587,-2.8587,-2.8587,-2.8587,-2.8587,-2.8587,-2.8587,-2.8662,-2.8863,-2.9075,-2.9314,-2.9494,-2.9751,-2.9988,-3.0083,-3.0079,-3.0109,-3.0157,-3.0185,-3.0204,-3.0204,-3.0204,-3.0204,-3.0204,-3.0204,-3.0204,-3.0204,-3.0204,-3.0204,-3.0204,-3.0204,-3.0204,-3.0204,-3.0204,-3.0204,-3.0204,-3.0204,-3.0204,-3.0204,-3.0204,-3.0204,-3.0204,-3.0204,-3.0204,-3.0204,-3.0204,-3.0204,-3.0204,-3.0204,-3.0204,-3.0204,-3.0204,-3.0204,-3.0204,-3.0204,-3.0204,-3.0204,-3.0218,-3.0253,-3.026,-3.0286,-3.0316,-3.0348,-3.0414,-3.049,-3.0583,-3.0672,-3.0728,-3.0779,-3.0799,-3.0799,-3.0799,-3.0799,-3.0799,-3.0799,-3.0799,-3.0799,-3.0799,-3.0799,-3.084,-3.0921,-3.0894,-3.0858,-3.0876,-3.0749,-3.0803,-3.0876,-3.0858,-3.0858,-3.0876,-3.0894,-3.0441,-2.9807,-2.9699,-2.9373,-2.9137,-2.8993,-2.9029,-2.863,-2.8775,-2.8659,-2.8641,-2.8587,-2.8587,-2.8587,-2.8587,-2.8587,-2.8587,-2.8587,-2.8587,-2.8587,-2.8587,-2.8587,-2.8587,-2.8587,-2.8587,-2.8587,-2.8587,-2.8587,-2.8587,-2.8587,-2.8612,-2.8637,-2.8839,-2.9052,-2.9295,-2.9551,-2.9786,-2.9988,-3.0079,-3.0094,-3.0142,-3.0157,-3.0204,-3.0204,-3.0204,-3.0204,-3.0204,-3.0204,-3.0204,-3.0204,-3.0204,-3.0204,-3.0204,-3.0204,-3.0204,-3.0204,-3.0204,-3.0204,-3.0204,-3.0204,-3.0204,-3.0204,-3.0204,-3.0204,-3.0204,-3.0204,-3.0204,-3.0204,-3.0204,-3.0204,-3.0204,-3.0204,-3.0204,-3.0204,-3.0204,-3.0204,-3.0204,-3.0204,-3.0204,-3.0204,-3.0204,-3.0204,-3.0218,-3.0226,-3.0232,-3.0253,-3.0273,-3.0314,-3.0402,-3.0509,-3.0644,-3.071,-3.0769,-3.0794,-3.0794,-3.0799,-3.0799,-3.0799,-3.0799,-3.0799,-3.0799,-3.0799,-3.0799,-2.9536,-3.0087,-3.0106,-3.0106,-2.9989,-2.9445,-2.9572,-2.9989,-2.9427,-2.9554,-3.0015,-3.0033,-2.9663,-2.9083,-2.9011,-2.8793,-2.8685,-2.8587,-2.8587,-2.8587,-2.8587,-2.8587,-2.8587,-2.8587,-2.8587,-2.8587,-2.8587,-2.8587,-2.8587,-2.8587,-2.8587,-2.8587,-2.8587,-2.8587,-2.8587,-2.8587,-2.8587,-2.8587,-2.8587,-2.8587,-2.8587,-2.8587,-2.8612,-2.8612,-2.8743,-2.8984,-2.9191,-2.9378,-2.9697,-2.9988,-3.0079,-3.0123,-3.0171,-3.0185,-3.0185,-3.0204,-3.0166,-3.0109,-3.0166,-3.0147,-3.0089,-3.0185,-3.0204,-3.0204,-3.0204,-3.0204,-3.0204,-3.0204,-3.0204,-3.0204,-3.0204,-3.0204,-3.0204,-3.0204,-3.0204,-3.0204,-3.0204,-3.0204,-3.0204,-3.0204,-3.0204,-3.0204,-3.0204,-3.0204,-3.0204,-3.0204,-3.0204,-3.0204,-3.0204,-3.0204,-3.0204,-3.0204,-3.0204,-3.0204,-3.0204,-3.0204,-3.0204,-3.0204,-3.0253,-3.0267,-3.0297,-3.0413,-3.0546,-3.0672,-3.0739,-3.0739,-3.0764,-3.0799,-3.0799,-3.0799,-3.0799,-3.0799,-3.0799,-3.0799,-3.0799,-2.8866,-2.9264,-2.9264,-2.9264,-2.9174,-2.8793,-2.8884,-2.9137,-2.8793,-2.8848,-2.9228,-2.9246,-2.9011,-2.863,-2.8587,-2.8587,-2.8587,-2.8587,-2.8587,-2.8587,-2.8587,-2.8587,-2.8587,-2.8587,-2.8587,-2.8587,-2.8587,-2.8587,-2.8587,-2.8587,-2.8587,-2.8587,-2.8587,-2.8587,-2.8587,-2.8587,-2.8587,-2.8587,-2.8587,-2.8587,-2.8587,-2.8587,-2.8587,-2.8612,-2.8767,-2.8989,-2.9214,-2.9437,-2.975,-3.0019,-3.0142,-3.0157,-3.0204,-3.0204,-3.0204,-3.0084,-2.9931,-2.9778,-2.995,-2.9937,-2.9879,-2.9994,-3.0185,-3.0166,-3.0204,-3.0204,-3.0204,-3.0204,-3.0204,-3.0204,-3.0204,-3.0204,-3.0204,-3.0204,-3.0204,-3.0204,-3.0204,-3.0204,-3.0204,-3.0204,-3.0204,-3.0204,-3.0204,-3.0204,-3.0204,-3.0204,-3.0204,-3.0204,-3.0204,-3.0204,-3.0204,-3.0204,-3.0204,-3.0204,-3.0204,-3.0204,-3.0204,-3.0204,-3.0204,-3.0226,-3.0273,-3.0344,-3.0443,-3.0552,-3.0632,-3.0665,-3.0697,-3.0764,-3.0799,-3.0799,-3.0799,-3.0799,-3.0799,-3.0799,-3.0799,-2.8605,-2.8587,-2.8605,-2.8605,-2.8587,-2.8587,-2.8605,-2.8605,-2.8587,-2.8587,-2.8685,-2.8659,-2.8587,-2.8587,-2.8587,-2.8587,-2.8587,-2.8587,-2.8587,-2.8587,-2.8587,-2.8587,-2.8587,-2.8587,-2.8587,-2.8587,-2.8587,-2.8587,-2.8587,-2.8587,-2.8587,-2.8587,-2.8587,-2.8587,-2.8587,-2.8587,-2.8587,-2.8587,-2.8587,-2.8587,-2.8587,-2.8587,-2.8587,-2.8687,-2.8845,-2.9104,-2.9358,-2.9625,-2.9867,-3.0045,-3.0171,-3.0204,-3.0204,-3.0204,-3.0204,-3.0103,-2.9759,-2.9715,-2.9677,-2.9383,-2.9516,-2.9746,-2.9956,-3.007,-3.0089,-3.0204,-3.0204,-3.0204,-3.0204,-3.0204,-3.0204,-3.0204,-3.0204,-3.0204,-3.0204,-3.0204,-3.0204,-3.0204,-3.0204,-3.0204,-3.0204,-3.0204,-3.0204,-3.0204,-3.0204,-3.0204,-3.0204,-3.0204,-3.0204,-3.0204,-3.0204,-3.0204,-3.0204,-3.0204,-3.0204,-3.0204,-3.0204,-3.0204,-3.0204,-3.0204,-3.0232,-3.0299,-3.0344,-3.0432,-3.0491,-3.0568,-3.0652,-3.0734,-3.0764,-3.0799,-3.0799,-3.0799,-3.0799,-3.0799,-3.0799,-2.8587,-2.8587,-2.8587,-2.8587,-2.8587,-2.8587,-2.8587,-2.8587,-2.8587,-2.8587,-2.8587,-2.8587,-2.8587,-2.8587,-2.8587,-2.8587,-2.8587,-2.8587,-2.8587,-2.8587,-2.8587,-2.8587,-2.8587,-2.8587,-2.8587,-2.8587,-2.8587,-2.8587,-2.8587,-2.8587,-2.8587,-2.8587,-2.8587,-2.8587,-2.8587,-2.8587,-2.8587,-2.8587,-2.8587,-2.8587,-2.8587,-2.8587,-2.8587,-2.8694,-2.8868,-2.9086,-2.9319,-2.9625,-2.9867,-3.0045,-3.0152,-3.0204,-3.0204,-3.0185,-3.0147,-2.9912,-2.9587,-2.9314,-2.9123,-2.8765,-2.8848,-2.9058,-2.9287,-2.9612,-2.9784,-3.0166,-3.0185,-3.0204,-3.0204,-3.0204,-3.0204,-3.0204,-3.0204,-3.0204,-3.0204,-3.0204,-3.0204,-3.0204,-3.0204,-3.0204,-3.0204,-3.0204,-3.0204,-3.0204,-3.0204,-3.0204,-3.0204,-3.0204,-3.0204,-3.0204,-3.0204,-3.0204,-3.0204,-3.0204,-3.0204,-3.0204,-3.0204,-3.0204,-3.0204,-3.0204,-3.0204,-3.0218,-3.026,-3.0352,-3.0442,-3.0518,-3.061,-3.0685,-3.0764,-3.0799,-3.0799,-3.0799,-3.0799,-3.0799,-3.0799]}]]